<?xml version="1.0" encoding="UTF-8" standalone="no" ?>
<gpx xmlns="http://www.topografix.com/GPX/1/1" xmlns:xsi="http://www.w3.org/2001/XMLSchema-instance" xsi:schemaLocation="http://www.topografix.com/GPX/1/1 http://www.topografix.com/GPX/1/1/gpx.xsd" version="1.1" creator="VisuGPX - https://www.visugpx.com">
  <metadata>
    <name>Off Car</name>
  </metadata>
  <trk>
    <name><![CDATA[13581223-STL21_Sainté]]></name>
    <extensions>
      <line xmlns="http://www.topografix.com/GPX/gpx_style/0/2">
        <color>FF0000</color>
        <width>4</width>
      </line>
    </extensions>
    <trkseg>
      <trkpt lat="45.45009" lon="4.39845">
        <ele>494</ele>
        <time>2021-08-23T12:46:16Z</time>
      </trkpt>
      <trkpt lat="45.45009" lon="4.39835">
        <ele>494</ele>
        <time>2021-08-23T12:46:20Z</time>
      </trkpt>
      <trkpt lat="45.45239" lon="4.39867">
        <ele>494</ele>
        <time>2021-08-23T12:48:15Z</time>
      </trkpt>
      <trkpt lat="45.45268" lon="4.39869">
        <ele>494</ele>
        <time>2021-08-23T12:48:30Z</time>
      </trkpt>
      <trkpt lat="45.45358" lon="4.39897">
        <ele>495</ele>
        <time>2021-08-23T12:49:16Z</time>
      </trkpt>
      <trkpt lat="45.45367" lon="4.39923">
        <ele>496</ele>
        <time>2021-08-23T12:49:26Z</time>
      </trkpt>
      <trkpt lat="45.45636" lon="4.40297">
        <ele>495</ele>
        <time>2021-08-23T12:52:34Z</time>
      </trkpt>
      <trkpt lat="45.45746" lon="4.4049">
        <ele>492</ele>
        <time>2021-08-23T12:54:01Z</time>
      </trkpt>
      <trkpt lat="45.45772" lon="4.40551">
        <ele>493</ele>
        <time>2021-08-23T12:54:26Z</time>
      </trkpt>
      <trkpt lat="45.45769" lon="4.40564">
        <ele>493</ele>
        <time>2021-08-23T12:54:31Z</time>
      </trkpt>
      <trkpt lat="45.45769" lon="4.40578">
        <ele>494</ele>
        <time>2021-08-23T12:54:36Z</time>
      </trkpt>
      <trkpt lat="45.45733" lon="4.40606">
        <ele>495</ele>
        <time>2021-08-23T12:54:57Z</time>
      </trkpt>
      <trkpt lat="45.45727" lon="4.40619">
        <ele>495</ele>
        <time>2021-08-23T12:55:02Z</time>
      </trkpt>
      <trkpt lat="45.45687" lon="4.4066">
        <ele>495</ele>
        <time>2021-08-23T12:55:27Z</time>
      </trkpt>
      <trkpt lat="45.4566" lon="4.40692">
        <ele>496</ele>
        <time>2021-08-23T12:55:44Z</time>
      </trkpt>
      <trkpt lat="45.45505" lon="4.40851">
        <ele>492</ele>
        <time>2021-08-23T12:57:20Z</time>
      </trkpt>
      <trkpt lat="45.4535" lon="4.41015">
        <ele>490</ele>
        <time>2021-08-23T12:58:56Z</time>
      </trkpt>
      <trkpt lat="45.45349" lon="4.4104">
        <ele>491</ele>
        <time>2021-08-23T12:59:05Z</time>
      </trkpt>
      <trkpt lat="45.45379" lon="4.4109">
        <ele>490</ele>
        <time>2021-08-23T12:59:28Z</time>
      </trkpt>
      <trkpt lat="45.45441" lon="4.41176">
        <ele>492</ele>
        <time>2021-08-23T13:00:12Z</time>
      </trkpt>
      <trkpt lat="45.45434" lon="4.41181">
        <ele>492</ele>
        <time>2021-08-23T13:00:16Z</time>
      </trkpt>
      <trkpt lat="45.45532" lon="4.413">
        <ele>500</ele>
        <time>2021-08-23T13:01:20Z</time>
      </trkpt>
      <trkpt lat="45.4553" lon="4.4132">
        <ele>501</ele>
        <time>2021-08-23T13:01:27Z</time>
      </trkpt>
      <trkpt lat="45.45524" lon="4.41331">
        <ele>501</ele>
        <time>2021-08-23T13:01:32Z</time>
      </trkpt>
      <trkpt lat="45.45485" lon="4.41341">
        <ele>501</ele>
        <time>2021-08-23T13:01:52Z</time>
      </trkpt>
      <trkpt lat="45.45463" lon="4.4136">
        <ele>501</ele>
        <time>2021-08-23T13:02:05Z</time>
      </trkpt>
      <trkpt lat="45.45227" lon="4.41746">
        <ele>509</ele>
        <time>2021-08-23T13:05:04Z</time>
      </trkpt>
      <trkpt lat="45.45245" lon="4.41811">
        <ele>511</ele>
        <time>2021-08-23T13:05:29Z</time>
      </trkpt>
      <trkpt lat="45.45288" lon="4.41898">
        <ele>514</ele>
        <time>2021-08-23T13:06:06Z</time>
      </trkpt>
      <trkpt lat="45.45304" lon="4.41916">
        <ele>514</ele>
        <time>2021-08-23T13:06:16Z</time>
      </trkpt>
      <trkpt lat="45.45362" lon="4.41948">
        <ele>513</ele>
        <time>2021-08-23T13:06:48Z</time>
      </trkpt>
      <trkpt lat="45.45374" lon="4.41961">
        <ele>513</ele>
        <time>2021-08-23T13:06:55Z</time>
      </trkpt>
      <trkpt lat="45.45444" lon="4.42063">
        <ele>517</ele>
        <time>2021-08-23T13:07:45Z</time>
      </trkpt>
      <trkpt lat="45.45526" lon="4.42214">
        <ele>521</ele>
        <time>2021-08-23T13:08:52Z</time>
      </trkpt>
      <trkpt lat="45.45551" lon="4.42255">
        <ele>520</ele>
        <time>2021-08-23T13:09:11Z</time>
      </trkpt>
      <trkpt lat="45.45561" lon="4.42281">
        <ele>520</ele>
        <time>2021-08-23T13:09:22Z</time>
      </trkpt>
      <trkpt lat="45.45574" lon="4.42371">
        <ele>523</ele>
        <time>2021-08-23T13:09:54Z</time>
      </trkpt>
      <trkpt lat="45.45584" lon="4.42397">
        <ele>523</ele>
        <time>2021-08-23T13:10:04Z</time>
      </trkpt>
      <trkpt lat="45.45639" lon="4.42503">
        <ele>528</ele>
        <time>2021-08-23T13:10:51Z</time>
      </trkpt>
      <trkpt lat="45.4567" lon="4.42556">
        <ele>532</ele>
        <time>2021-08-23T13:11:15Z</time>
      </trkpt>
      <trkpt lat="45.45681" lon="4.42558">
        <ele>531</ele>
        <time>2021-08-23T13:11:20Z</time>
      </trkpt>
      <trkpt lat="45.45713" lon="4.42588">
        <ele>532</ele>
        <time>2021-08-23T13:11:40Z</time>
      </trkpt>
      <trkpt lat="45.4573" lon="4.42597">
        <ele>532</ele>
        <time>2021-08-23T13:11:49Z</time>
      </trkpt>
      <trkpt lat="45.45779" lon="4.42599">
        <ele>530</ele>
        <time>2021-08-23T13:12:13Z</time>
      </trkpt>
      <trkpt lat="45.45799" lon="4.42605">
        <ele>530</ele>
        <time>2021-08-23T13:12:23Z</time>
      </trkpt>
      <trkpt lat="45.45815" lon="4.42617">
        <ele>531</ele>
        <time>2021-08-23T13:12:32Z</time>
      </trkpt>
      <trkpt lat="45.45875" lon="4.42711">
        <ele>538</ele>
        <time>2021-08-23T13:13:17Z</time>
      </trkpt>
      <trkpt lat="45.45885" lon="4.42747">
        <ele>539</ele>
        <time>2021-08-23T13:13:31Z</time>
      </trkpt>
      <trkpt lat="45.45889" lon="4.42775">
        <ele>539</ele>
        <time>2021-08-23T13:13:41Z</time>
      </trkpt>
      <trkpt lat="45.45894" lon="4.42861">
        <ele>540</ele>
        <time>2021-08-23T13:14:11Z</time>
      </trkpt>
      <trkpt lat="45.4591" lon="4.4294">
        <ele>546</ele>
        <time>2021-08-23T13:14:40Z</time>
      </trkpt>
      <trkpt lat="45.45899" lon="4.42982">
        <ele>550</ele>
        <time>2021-08-23T13:14:56Z</time>
      </trkpt>
      <trkpt lat="45.4589" lon="4.43092">
        <ele>550</ele>
        <time>2021-08-23T13:15:34Z</time>
      </trkpt>
      <trkpt lat="45.45894" lon="4.43159">
        <ele>551</ele>
        <time>2021-08-23T13:15:58Z</time>
      </trkpt>
      <trkpt lat="45.45899" lon="4.43193">
        <ele>553</ele>
        <time>2021-08-23T13:16:10Z</time>
      </trkpt>
      <trkpt lat="45.45923" lon="4.43268">
        <ele>558</ele>
        <time>2021-08-23T13:16:39Z</time>
      </trkpt>
      <trkpt lat="45.45927" lon="4.43294">
        <ele>560</ele>
        <time>2021-08-23T13:16:49Z</time>
      </trkpt>
      <trkpt lat="45.45922" lon="4.43373">
        <ele>564</ele>
        <time>2021-08-23T13:17:16Z</time>
      </trkpt>
      <trkpt lat="45.45926" lon="4.43407">
        <ele>564</ele>
        <time>2021-08-23T13:17:29Z</time>
      </trkpt>
      <trkpt lat="45.45932" lon="4.43433">
        <ele>565</ele>
        <time>2021-08-23T13:17:38Z</time>
      </trkpt>
      <trkpt lat="45.45946" lon="4.43467">
        <ele>566</ele>
        <time>2021-08-23T13:17:52Z</time>
      </trkpt>
      <trkpt lat="45.45962" lon="4.4352">
        <ele>566</ele>
        <time>2021-08-23T13:18:12Z</time>
      </trkpt>
      <trkpt lat="45.4605" lon="4.43691">
        <ele>576</ele>
        <time>2021-08-23T13:19:27Z</time>
      </trkpt>
      <trkpt lat="45.46063" lon="4.43702">
        <ele>577</ele>
        <time>2021-08-23T13:19:34Z</time>
      </trkpt>
      <trkpt lat="45.46059" lon="4.43739">
        <ele>579</ele>
        <time>2021-08-23T13:19:47Z</time>
      </trkpt>
      <trkpt lat="45.46039" lon="4.43803">
        <ele>583</ele>
        <time>2021-08-23T13:20:12Z</time>
      </trkpt>
      <trkpt lat="45.46037" lon="4.43848">
        <ele>586</ele>
        <time>2021-08-23T13:20:28Z</time>
      </trkpt>
      <trkpt lat="45.46043" lon="4.44013">
        <ele>598</ele>
        <time>2021-08-23T13:21:26Z</time>
      </trkpt>
      <trkpt lat="45.46083" lon="4.442">
        <ele>608</ele>
        <time>2021-08-23T13:22:34Z</time>
      </trkpt>
      <trkpt lat="45.46085" lon="4.44284">
        <ele>615</ele>
        <time>2021-08-23T13:23:04Z</time>
      </trkpt>
      <trkpt lat="45.46089" lon="4.44317">
        <ele>617</ele>
        <time>2021-08-23T13:23:16Z</time>
      </trkpt>
      <trkpt lat="45.46167" lon="4.44536">
        <ele>628</ele>
        <time>2021-08-23T13:24:42Z</time>
      </trkpt>
      <trkpt lat="45.46191" lon="4.44594">
        <ele>628</ele>
        <time>2021-08-23T13:25:05Z</time>
      </trkpt>
      <trkpt lat="45.46222" lon="4.4461">
        <ele>629</ele>
        <time>2021-08-23T13:25:22Z</time>
      </trkpt>
      <trkpt lat="45.46279" lon="4.44623">
        <ele>630</ele>
        <time>2021-08-23T13:25:51Z</time>
      </trkpt>
      <trkpt lat="45.46356" lon="4.44634">
        <ele>629</ele>
        <time>2021-08-23T13:26:30Z</time>
      </trkpt>
      <trkpt lat="45.4643" lon="4.44651">
        <ele>626</ele>
        <time>2021-08-23T13:27:07Z</time>
      </trkpt>
      <trkpt lat="45.46455" lon="4.4466">
        <ele>623</ele>
        <time>2021-08-23T13:27:20Z</time>
      </trkpt>
      <trkpt lat="45.46481" lon="4.44685">
        <ele>620</ele>
        <time>2021-08-23T13:27:36Z</time>
      </trkpt>
      <trkpt lat="45.46506" lon="4.44739">
        <ele>621</ele>
        <time>2021-08-23T13:27:58Z</time>
      </trkpt>
      <trkpt lat="45.46547" lon="4.44799">
        <ele>618</ele>
        <time>2021-08-23T13:28:28Z</time>
      </trkpt>
      <trkpt lat="45.46584" lon="4.44885">
        <ele>620</ele>
        <time>2021-08-23T13:29:03Z</time>
      </trkpt>
      <trkpt lat="45.46607" lon="4.44927">
        <ele>619</ele>
        <time>2021-08-23T13:29:22Z</time>
      </trkpt>
      <trkpt lat="45.46646" lon="4.44974">
        <ele>619</ele>
        <time>2021-08-23T13:29:47Z</time>
      </trkpt>
      <trkpt lat="45.46683" lon="4.45014">
        <ele>617</ele>
        <time>2021-08-23T13:30:11Z</time>
      </trkpt>
      <trkpt lat="45.46715" lon="4.45067">
        <ele>613</ele>
        <time>2021-08-23T13:30:35Z</time>
      </trkpt>
      <trkpt lat="45.46724" lon="4.45096">
        <ele>612</ele>
        <time>2021-08-23T13:30:46Z</time>
      </trkpt>
      <trkpt lat="45.46737" lon="4.45168">
        <ele>607</ele>
        <time>2021-08-23T13:31:12Z</time>
      </trkpt>
      <trkpt lat="45.46754" lon="4.45205">
        <ele>603</ele>
        <time>2021-08-23T13:31:28Z</time>
      </trkpt>
      <trkpt lat="45.46759" lon="4.45209">
        <ele>602</ele>
        <time>2021-08-23T13:31:31Z</time>
      </trkpt>
      <trkpt lat="45.46772" lon="4.45254">
        <ele>599</ele>
        <time>2021-08-23T13:31:48Z</time>
      </trkpt>
      <trkpt lat="45.4679" lon="4.45286">
        <ele>597</ele>
        <time>2021-08-23T13:32:02Z</time>
      </trkpt>
      <trkpt lat="45.46852" lon="4.45375">
        <ele>594</ele>
        <time>2021-08-23T13:32:46Z</time>
      </trkpt>
      <trkpt lat="45.46953" lon="4.45469">
        <ele>594</ele>
        <time>2021-08-23T13:33:47Z</time>
      </trkpt>
      <trkpt lat="45.46983" lon="4.45517">
        <ele>594</ele>
        <time>2021-08-23T13:34:09Z</time>
      </trkpt>
      <trkpt lat="45.47016" lon="4.45549">
        <ele>593</ele>
        <time>2021-08-23T13:34:29Z</time>
      </trkpt>
      <trkpt lat="45.47066" lon="4.45619">
        <ele>590</ele>
        <time>2021-08-23T13:35:04Z</time>
      </trkpt>
      <trkpt lat="45.47117" lon="4.45668">
        <ele>587</ele>
        <time>2021-08-23T13:35:35Z</time>
      </trkpt>
      <trkpt lat="45.4727" lon="4.4576">
        <ele>584</ele>
        <time>2021-08-23T13:36:58Z</time>
      </trkpt>
      <trkpt lat="45.47302" lon="4.45772">
        <ele>583</ele>
        <time>2021-08-23T13:37:15Z</time>
      </trkpt>
      <trkpt lat="45.47357" lon="4.45767">
        <ele>581</ele>
        <time>2021-08-23T13:37:42Z</time>
      </trkpt>
      <trkpt lat="45.4743" lon="4.45744">
        <ele>579</ele>
        <time>2021-08-23T13:38:20Z</time>
      </trkpt>
      <trkpt lat="45.4744" lon="4.45727">
        <ele>577</ele>
        <time>2021-08-23T13:38:28Z</time>
      </trkpt>
      <trkpt lat="45.47623" lon="4.4558">
        <ele>562</ele>
        <time>2021-08-23T13:40:13Z</time>
      </trkpt>
      <trkpt lat="45.47694" lon="4.455">
        <ele>552</ele>
        <time>2021-08-23T13:40:58Z</time>
      </trkpt>
      <trkpt lat="45.47719" lon="4.45497">
        <ele>548</ele>
        <time>2021-08-23T13:41:10Z</time>
      </trkpt>
      <trkpt lat="45.47743" lon="4.45481">
        <ele>543</ele>
        <time>2021-08-23T13:41:24Z</time>
      </trkpt>
      <trkpt lat="45.47766" lon="4.45439">
        <ele>537</ele>
        <time>2021-08-23T13:41:42Z</time>
      </trkpt>
      <trkpt lat="45.47824" lon="4.4539">
        <ele>526</ele>
        <time>2021-08-23T13:42:16Z</time>
      </trkpt>
      <trkpt lat="45.47846" lon="4.45385">
        <ele>523</ele>
        <time>2021-08-23T13:42:27Z</time>
      </trkpt>
      <trkpt lat="45.4786" lon="4.45393">
        <ele>521</ele>
        <time>2021-08-23T13:42:35Z</time>
      </trkpt>
      <trkpt lat="45.47873" lon="4.4535">
        <ele>519</ele>
        <time>2021-08-23T13:42:51Z</time>
      </trkpt>
      <trkpt lat="45.47879" lon="4.45305">
        <ele>518</ele>
        <time>2021-08-23T13:43:07Z</time>
      </trkpt>
      <trkpt lat="45.47927" lon="4.45252">
        <ele>513</ele>
        <time>2021-08-23T13:43:38Z</time>
      </trkpt>
      <trkpt lat="45.47965" lon="4.45235">
        <ele>511</ele>
        <time>2021-08-23T13:43:58Z</time>
      </trkpt>
      <trkpt lat="45.47976" lon="4.45251">
        <ele>511</ele>
        <time>2021-08-23T13:44:06Z</time>
      </trkpt>
      <trkpt lat="45.4798" lon="4.45261">
        <ele>510</ele>
        <time>2021-08-23T13:44:10Z</time>
      </trkpt>
      <trkpt lat="45.47987" lon="4.45294">
        <ele>509</ele>
        <time>2021-08-23T13:44:22Z</time>
      </trkpt>
      <trkpt lat="45.47997" lon="4.45298">
        <ele>508</ele>
        <time>2021-08-23T13:44:27Z</time>
      </trkpt>
      <trkpt lat="45.48011" lon="4.45278">
        <ele>509</ele>
        <time>2021-08-23T13:44:37Z</time>
      </trkpt>
      <trkpt lat="45.48017" lon="4.45265">
        <ele>509</ele>
        <time>2021-08-23T13:44:42Z</time>
      </trkpt>
      <trkpt lat="45.48022" lon="4.45237">
        <ele>510</ele>
        <time>2021-08-23T13:44:52Z</time>
      </trkpt>
      <trkpt lat="45.48044" lon="4.45191">
        <ele>510</ele>
        <time>2021-08-23T13:45:12Z</time>
      </trkpt>
      <trkpt lat="45.48048" lon="4.45176">
        <ele>510</ele>
        <time>2021-08-23T13:45:18Z</time>
      </trkpt>
      <trkpt lat="45.48109" lon="4.45162">
        <ele>511</ele>
        <time>2021-08-23T13:45:48Z</time>
      </trkpt>
      <trkpt lat="45.48131" lon="4.45155">
        <ele>511</ele>
        <time>2021-08-23T13:46:00Z</time>
      </trkpt>
      <trkpt lat="45.48139" lon="4.45148">
        <ele>511</ele>
        <time>2021-08-23T13:46:04Z</time>
      </trkpt>
      <trkpt lat="45.48147" lon="4.45137">
        <ele>511</ele>
        <time>2021-08-23T13:46:10Z</time>
      </trkpt>
      <trkpt lat="45.48163" lon="4.45077">
        <ele>511</ele>
        <time>2021-08-23T13:46:33Z</time>
      </trkpt>
      <trkpt lat="45.48172" lon="4.45058">
        <ele>511</ele>
        <time>2021-08-23T13:46:41Z</time>
      </trkpt>
      <trkpt lat="45.48227" lon="4.44993">
        <ele>514</ele>
        <time>2021-08-23T13:47:16Z</time>
      </trkpt>
      <trkpt lat="45.48249" lon="4.45078">
        <ele>517</ele>
        <time>2021-08-23T13:47:48Z</time>
      </trkpt>
      <trkpt lat="45.48276" lon="4.45234">
        <ele>516</ele>
        <time>2021-08-23T13:48:44Z</time>
      </trkpt>
      <trkpt lat="45.483" lon="4.45238">
        <ele>517</ele>
        <time>2021-08-23T13:48:57Z</time>
      </trkpt>
      <trkpt lat="45.48387" lon="4.45239">
        <ele>523</ele>
        <time>2021-08-23T13:49:40Z</time>
      </trkpt>
      <trkpt lat="45.48434" lon="4.45264">
        <ele>525</ele>
        <time>2021-08-23T13:50:05Z</time>
      </trkpt>
      <trkpt lat="45.48449" lon="4.45263">
        <ele>525</ele>
        <time>2021-08-23T13:50:13Z</time>
      </trkpt>
      <trkpt lat="45.4852" lon="4.4522">
        <ele>530</ele>
        <time>2021-08-23T13:50:51Z</time>
      </trkpt>
      <trkpt lat="45.48551" lon="4.45326">
        <ele>526</ele>
        <time>2021-08-23T13:51:32Z</time>
      </trkpt>
      <trkpt lat="45.48537" lon="4.4536">
        <ele>520</ele>
        <time>2021-08-23T13:51:45Z</time>
      </trkpt>
      <trkpt lat="45.48537" lon="4.45366">
        <ele>519</ele>
        <time>2021-08-23T13:51:48Z</time>
      </trkpt>
      <trkpt lat="45.4854" lon="4.45371">
        <ele>519</ele>
        <time>2021-08-23T13:51:50Z</time>
      </trkpt>
      <trkpt lat="45.48556" lon="4.45374">
        <ele>518</ele>
        <time>2021-08-23T13:51:58Z</time>
      </trkpt>
      <trkpt lat="45.48576" lon="4.45367">
        <ele>520</ele>
        <time>2021-08-23T13:52:08Z</time>
      </trkpt>
      <trkpt lat="45.48595" lon="4.45367">
        <ele>519</ele>
        <time>2021-08-23T13:52:18Z</time>
      </trkpt>
      <trkpt lat="45.48645" lon="4.45377">
        <ele>515</ele>
        <time>2021-08-23T13:52:43Z</time>
      </trkpt>
      <trkpt lat="45.48682" lon="4.45388">
        <ele>510</ele>
        <time>2021-08-23T13:53:02Z</time>
      </trkpt>
      <trkpt lat="45.48707" lon="4.454">
        <ele>506</ele>
        <time>2021-08-23T13:53:15Z</time>
      </trkpt>
      <trkpt lat="45.48754" lon="4.45443">
        <ele>497</ele>
        <time>2021-08-23T13:53:43Z</time>
      </trkpt>
      <trkpt lat="45.48764" lon="4.45472">
        <ele>492</ele>
        <time>2021-08-23T13:53:54Z</time>
      </trkpt>
      <trkpt lat="45.48787" lon="4.45515">
        <ele>487</ele>
        <time>2021-08-23T13:54:13Z</time>
      </trkpt>
      <trkpt lat="45.48775" lon="4.4552">
        <ele>485</ele>
        <time>2021-08-23T13:54:20Z</time>
      </trkpt>
      <trkpt lat="45.48759" lon="4.45518">
        <ele>484</ele>
        <time>2021-08-23T13:54:28Z</time>
      </trkpt>
      <trkpt lat="45.48757" lon="4.45535">
        <ele>481</ele>
        <time>2021-08-23T13:54:34Z</time>
      </trkpt>
      <trkpt lat="45.4876" lon="4.45565">
        <ele>477</ele>
        <time>2021-08-23T13:54:44Z</time>
      </trkpt>
      <trkpt lat="45.48773" lon="4.45613">
        <ele>472</ele>
        <time>2021-08-23T13:55:02Z</time>
      </trkpt>
      <trkpt lat="45.48786" lon="4.45634">
        <ele>471</ele>
        <time>2021-08-23T13:55:12Z</time>
      </trkpt>
      <trkpt lat="45.48823" lon="4.45677">
        <ele>472</ele>
        <time>2021-08-23T13:55:36Z</time>
      </trkpt>
      <trkpt lat="45.48967" lon="4.45767">
        <ele>487</ele>
        <time>2021-08-23T13:56:55Z</time>
      </trkpt>
      <trkpt lat="45.48982" lon="4.45782">
        <ele>487</ele>
        <time>2021-08-23T13:57:04Z</time>
      </trkpt>
      <trkpt lat="45.49029" lon="4.45858">
        <ele>484</ele>
        <time>2021-08-23T13:57:40Z</time>
      </trkpt>
      <trkpt lat="45.49039" lon="4.45891">
        <ele>482</ele>
        <time>2021-08-23T13:57:52Z</time>
      </trkpt>
      <trkpt lat="45.49048" lon="4.45989">
        <ele>480</ele>
        <time>2021-08-23T13:58:27Z</time>
      </trkpt>
      <trkpt lat="45.49058" lon="4.46002">
        <ele>478</ele>
        <time>2021-08-23T13:58:34Z</time>
      </trkpt>
      <trkpt lat="45.49079" lon="4.46011">
        <ele>475</ele>
        <time>2021-08-23T13:58:45Z</time>
      </trkpt>
      <trkpt lat="45.49138" lon="4.46017">
        <ele>476</ele>
        <time>2021-08-23T13:59:14Z</time>
      </trkpt>
      <trkpt lat="45.49158" lon="4.46023">
        <ele>477</ele>
        <time>2021-08-23T13:59:24Z</time>
      </trkpt>
      <trkpt lat="45.49167" lon="4.46019">
        <ele>476</ele>
        <time>2021-08-23T13:59:29Z</time>
      </trkpt>
      <trkpt lat="45.49171" lon="4.46046">
        <ele>479</ele>
        <time>2021-08-23T13:59:39Z</time>
      </trkpt>
      <trkpt lat="45.49178" lon="4.46066">
        <ele>481</ele>
        <time>2021-08-23T13:59:47Z</time>
      </trkpt>
      <trkpt lat="45.49198" lon="4.46087">
        <ele>484</ele>
        <time>2021-08-23T13:59:59Z</time>
      </trkpt>
      <trkpt lat="45.49222" lon="4.46094">
        <ele>487</ele>
        <time>2021-08-23T14:00:11Z</time>
      </trkpt>
      <trkpt lat="45.4924" lon="4.46108">
        <ele>489</ele>
        <time>2021-08-23T14:00:22Z</time>
      </trkpt>
      <trkpt lat="45.4925" lon="4.4613">
        <ele>490</ele>
        <time>2021-08-23T14:00:31Z</time>
      </trkpt>
      <trkpt lat="45.49271" lon="4.46151">
        <ele>497</ele>
        <time>2021-08-23T14:00:44Z</time>
      </trkpt>
      <trkpt lat="45.49277" lon="4.46168">
        <ele>499</ele>
        <time>2021-08-23T14:00:50Z</time>
      </trkpt>
      <trkpt lat="45.49289" lon="4.46185">
        <ele>504</ele>
        <time>2021-08-23T14:00:59Z</time>
      </trkpt>
      <trkpt lat="45.49304" lon="4.46188">
        <ele>508</ele>
        <time>2021-08-23T14:01:06Z</time>
      </trkpt>
      <trkpt lat="45.49309" lon="4.46175">
        <ele>508</ele>
        <time>2021-08-23T14:01:12Z</time>
      </trkpt>
      <trkpt lat="45.49306" lon="4.46122">
        <ele>505</ele>
        <time>2021-08-23T14:01:30Z</time>
      </trkpt>
      <trkpt lat="45.49309" lon="4.46102">
        <ele>505</ele>
        <time>2021-08-23T14:01:37Z</time>
      </trkpt>
      <trkpt lat="45.49319" lon="4.46088">
        <ele>507</ele>
        <time>2021-08-23T14:01:44Z</time>
      </trkpt>
      <trkpt lat="45.49344" lon="4.46061">
        <ele>512</ele>
        <time>2021-08-23T14:02:00Z</time>
      </trkpt>
      <trkpt lat="45.49388" lon="4.46038">
        <ele>521</ele>
        <time>2021-08-23T14:02:24Z</time>
      </trkpt>
      <trkpt lat="45.4941" lon="4.46033">
        <ele>526</ele>
        <time>2021-08-23T14:02:35Z</time>
      </trkpt>
      <trkpt lat="45.49423" lon="4.46033">
        <ele>528</ele>
        <time>2021-08-23T14:02:41Z</time>
      </trkpt>
      <trkpt lat="45.49438" lon="4.46039">
        <ele>529</ele>
        <time>2021-08-23T14:02:49Z</time>
      </trkpt>
      <trkpt lat="45.49441" lon="4.46049">
        <ele>530</ele>
        <time>2021-08-23T14:02:53Z</time>
      </trkpt>
      <trkpt lat="45.49425" lon="4.46094">
        <ele>534</ele>
        <time>2021-08-23T14:03:10Z</time>
      </trkpt>
      <trkpt lat="45.4942" lon="4.46126">
        <ele>536</ele>
        <time>2021-08-23T14:03:22Z</time>
      </trkpt>
      <trkpt lat="45.49411" lon="4.4615">
        <ele>536</ele>
        <time>2021-08-23T14:03:32Z</time>
      </trkpt>
      <trkpt lat="45.49405" lon="4.46177">
        <ele>536</ele>
        <time>2021-08-23T14:03:41Z</time>
      </trkpt>
      <trkpt lat="45.49405" lon="4.46211">
        <ele>538</ele>
        <time>2021-08-23T14:03:53Z</time>
      </trkpt>
      <trkpt lat="45.49414" lon="4.46251">
        <ele>543</ele>
        <time>2021-08-23T14:04:08Z</time>
      </trkpt>
      <trkpt lat="45.49422" lon="4.46272">
        <ele>545</ele>
        <time>2021-08-23T14:04:17Z</time>
      </trkpt>
      <trkpt lat="45.49481" lon="4.46394">
        <ele>561</ele>
        <time>2021-08-23T14:05:09Z</time>
      </trkpt>
      <trkpt lat="45.49476" lon="4.46431">
        <ele>563</ele>
        <time>2021-08-23T14:05:22Z</time>
      </trkpt>
      <trkpt lat="45.49488" lon="4.465">
        <ele>573</ele>
        <time>2021-08-23T14:05:47Z</time>
      </trkpt>
      <trkpt lat="45.49504" lon="4.46518">
        <ele>578</ele>
        <time>2021-08-23T14:05:57Z</time>
      </trkpt>
      <trkpt lat="45.49532" lon="4.46539">
        <ele>582</ele>
        <time>2021-08-23T14:06:13Z</time>
      </trkpt>
      <trkpt lat="45.49551" lon="4.46544">
        <ele>583</ele>
        <time>2021-08-23T14:06:22Z</time>
      </trkpt>
      <trkpt lat="45.49587" lon="4.46546">
        <ele>586</ele>
        <time>2021-08-23T14:06:40Z</time>
      </trkpt>
      <trkpt lat="45.49612" lon="4.46551">
        <ele>589</ele>
        <time>2021-08-23T14:06:53Z</time>
      </trkpt>
      <trkpt lat="45.49642" lon="4.4657">
        <ele>593</ele>
        <time>2021-08-23T14:07:09Z</time>
      </trkpt>
      <trkpt lat="45.49648" lon="4.46531">
        <ele>590</ele>
        <time>2021-08-23T14:07:23Z</time>
      </trkpt>
      <trkpt lat="45.49653" lon="4.46525">
        <ele>590</ele>
        <time>2021-08-23T14:07:27Z</time>
      </trkpt>
      <trkpt lat="45.49662" lon="4.46521">
        <ele>590</ele>
        <time>2021-08-23T14:07:31Z</time>
      </trkpt>
      <trkpt lat="45.49683" lon="4.4653">
        <ele>592</ele>
        <time>2021-08-23T14:07:42Z</time>
      </trkpt>
      <trkpt lat="45.49817" lon="4.4653">
        <ele>595</ele>
        <time>2021-08-23T14:08:49Z</time>
      </trkpt>
      <trkpt lat="45.49841" lon="4.46527">
        <ele>594</ele>
        <time>2021-08-23T14:09:02Z</time>
      </trkpt>
      <trkpt lat="45.4986" lon="4.46519">
        <ele>593</ele>
        <time>2021-08-23T14:09:11Z</time>
      </trkpt>
      <trkpt lat="45.49884" lon="4.46502">
        <ele>591</ele>
        <time>2021-08-23T14:09:25Z</time>
      </trkpt>
      <trkpt lat="45.499" lon="4.46494">
        <ele>590</ele>
        <time>2021-08-23T14:09:33Z</time>
      </trkpt>
      <trkpt lat="45.49904" lon="4.46498">
        <ele>590</ele>
        <time>2021-08-23T14:09:36Z</time>
      </trkpt>
      <trkpt lat="45.49918" lon="4.4656">
        <ele>590</ele>
        <time>2021-08-23T14:09:59Z</time>
      </trkpt>
      <trkpt lat="45.49922" lon="4.46561">
        <ele>590</ele>
        <time>2021-08-23T14:10:01Z</time>
      </trkpt>
      <trkpt lat="45.49937" lon="4.46557">
        <ele>586</ele>
        <time>2021-08-23T14:10:08Z</time>
      </trkpt>
      <trkpt lat="45.49957" lon="4.46559">
        <ele>581</ele>
        <time>2021-08-23T14:10:18Z</time>
      </trkpt>
      <trkpt lat="45.49966" lon="4.46565">
        <ele>580</ele>
        <time>2021-08-23T14:10:23Z</time>
      </trkpt>
      <trkpt lat="45.50002" lon="4.46617">
        <ele>580</ele>
        <time>2021-08-23T14:10:49Z</time>
      </trkpt>
      <trkpt lat="45.5001" lon="4.46616">
        <ele>580</ele>
        <time>2021-08-23T14:10:53Z</time>
      </trkpt>
      <trkpt lat="45.50026" lon="4.46591">
        <ele>575</ele>
        <time>2021-08-23T14:11:05Z</time>
      </trkpt>
      <trkpt lat="45.50052" lon="4.46569">
        <ele>571</ele>
        <time>2021-08-23T14:11:20Z</time>
      </trkpt>
      <trkpt lat="45.50061" lon="4.46566">
        <ele>570</ele>
        <time>2021-08-23T14:11:25Z</time>
      </trkpt>
      <trkpt lat="45.5007" lon="4.46568">
        <ele>570</ele>
        <time>2021-08-23T14:11:29Z</time>
      </trkpt>
      <trkpt lat="45.50084" lon="4.46584">
        <ele>572</ele>
        <time>2021-08-23T14:11:38Z</time>
      </trkpt>
      <trkpt lat="45.501" lon="4.46629">
        <ele>580</ele>
        <time>2021-08-23T14:11:56Z</time>
      </trkpt>
      <trkpt lat="45.50155" lon="4.46665">
        <ele>584</ele>
        <time>2021-08-23T14:12:26Z</time>
      </trkpt>
      <trkpt lat="45.50234" lon="4.46706">
        <ele>593</ele>
        <time>2021-08-23T14:13:08Z</time>
      </trkpt>
      <trkpt lat="45.50263" lon="4.46677">
        <ele>586</ele>
        <time>2021-08-23T14:13:26Z</time>
      </trkpt>
      <trkpt lat="45.5033" lon="4.46691">
        <ele>594</ele>
        <time>2021-08-23T14:14:00Z</time>
      </trkpt>
      <trkpt lat="45.50394" lon="4.46658">
        <ele>582</ele>
        <time>2021-08-23T14:14:34Z</time>
      </trkpt>
      <trkpt lat="45.50438" lon="4.46612">
        <ele>576</ele>
        <time>2021-08-23T14:15:01Z</time>
      </trkpt>
      <trkpt lat="45.50442" lon="4.46596">
        <ele>574</ele>
        <time>2021-08-23T14:15:07Z</time>
      </trkpt>
      <trkpt lat="45.5048" lon="4.46542">
        <ele>572</ele>
        <time>2021-08-23T14:15:34Z</time>
      </trkpt>
      <trkpt lat="45.50522" lon="4.46518">
        <ele>570</ele>
        <time>2021-08-23T14:15:57Z</time>
      </trkpt>
      <trkpt lat="45.50559" lon="4.4651">
        <ele>571</ele>
        <time>2021-08-23T14:16:15Z</time>
      </trkpt>
      <trkpt lat="45.50619" lon="4.46504">
        <ele>572</ele>
        <time>2021-08-23T14:16:45Z</time>
      </trkpt>
      <trkpt lat="45.50628" lon="4.46496">
        <ele>572</ele>
        <time>2021-08-23T14:16:51Z</time>
      </trkpt>
      <trkpt lat="45.50636" lon="4.46484">
        <ele>573</ele>
        <time>2021-08-23T14:16:56Z</time>
      </trkpt>
      <trkpt lat="45.50648" lon="4.46479">
        <ele>574</ele>
        <time>2021-08-23T14:17:03Z</time>
      </trkpt>
      <trkpt lat="45.50652" lon="4.46475">
        <ele>575</ele>
        <time>2021-08-23T14:17:05Z</time>
      </trkpt>
      <trkpt lat="45.50651" lon="4.46468">
        <ele>576</ele>
        <time>2021-08-23T14:17:08Z</time>
      </trkpt>
      <trkpt lat="45.50622" lon="4.46452">
        <ele>576</ele>
        <time>2021-08-23T14:17:23Z</time>
      </trkpt>
      <trkpt lat="45.50598" lon="4.46424">
        <ele>577</ele>
        <time>2021-08-23T14:17:39Z</time>
      </trkpt>
      <trkpt lat="45.50514" lon="4.46388">
        <ele>583</ele>
        <time>2021-08-23T14:18:23Z</time>
      </trkpt>
      <trkpt lat="45.50476" lon="4.46357">
        <ele>591</ele>
        <time>2021-08-23T14:18:45Z</time>
      </trkpt>
      <trkpt lat="45.50444" lon="4.46325">
        <ele>599</ele>
        <time>2021-08-23T14:19:04Z</time>
      </trkpt>
      <trkpt lat="45.5045" lon="4.4632">
        <ele>600</ele>
        <time>2021-08-23T14:19:08Z</time>
      </trkpt>
      <trkpt lat="45.50485" lon="4.46308">
        <ele>605</ele>
        <time>2021-08-23T14:19:26Z</time>
      </trkpt>
      <trkpt lat="45.50521" lon="4.46302">
        <ele>609</ele>
        <time>2021-08-23T14:19:44Z</time>
      </trkpt>
      <trkpt lat="45.50549" lon="4.46277">
        <ele>618</ele>
        <time>2021-08-23T14:20:00Z</time>
      </trkpt>
      <trkpt lat="45.50563" lon="4.46272">
        <ele>621</ele>
        <time>2021-08-23T14:20:08Z</time>
      </trkpt>
      <trkpt lat="45.50595" lon="4.46249">
        <ele>630</ele>
        <time>2021-08-23T14:20:25Z</time>
      </trkpt>
      <trkpt lat="45.50606" lon="4.46238">
        <ele>634</ele>
        <time>2021-08-23T14:20:32Z</time>
      </trkpt>
      <trkpt lat="45.50659" lon="4.46201">
        <ele>645</ele>
        <time>2021-08-23T14:21:02Z</time>
      </trkpt>
      <trkpt lat="45.50679" lon="4.46173">
        <ele>651</ele>
        <time>2021-08-23T14:21:16Z</time>
      </trkpt>
      <trkpt lat="45.50693" lon="4.46143">
        <ele>655</ele>
        <time>2021-08-23T14:21:28Z</time>
      </trkpt>
      <trkpt lat="45.50716" lon="4.46058">
        <ele>665</ele>
        <time>2021-08-23T14:22:00Z</time>
      </trkpt>
      <trkpt lat="45.50729" lon="4.46038">
        <ele>665</ele>
        <time>2021-08-23T14:22:10Z</time>
      </trkpt>
      <trkpt lat="45.50738" lon="4.46031">
        <ele>665</ele>
        <time>2021-08-23T14:22:15Z</time>
      </trkpt>
      <trkpt lat="45.50775" lon="4.46029">
        <ele>665</ele>
        <time>2021-08-23T14:22:34Z</time>
      </trkpt>
      <trkpt lat="45.50813" lon="4.46041">
        <ele>666</ele>
        <time>2021-08-23T14:22:53Z</time>
      </trkpt>
      <trkpt lat="45.50841" lon="4.4611">
        <ele>665</ele>
        <time>2021-08-23T14:23:21Z</time>
      </trkpt>
      <trkpt lat="45.50862" lon="4.46151">
        <ele>665</ele>
        <time>2021-08-23T14:23:39Z</time>
      </trkpt>
      <trkpt lat="45.50891" lon="4.46185">
        <ele>668</ele>
        <time>2021-08-23T14:23:58Z</time>
      </trkpt>
      <trkpt lat="45.50924" lon="4.46215">
        <ele>672</ele>
        <time>2021-08-23T14:24:17Z</time>
      </trkpt>
      <trkpt lat="45.50971" lon="4.46241">
        <ele>676</ele>
        <time>2021-08-23T14:24:42Z</time>
      </trkpt>
      <trkpt lat="45.51018" lon="4.46276">
        <ele>674</ele>
        <time>2021-08-23T14:25:09Z</time>
      </trkpt>
      <trkpt lat="45.51049" lon="4.46291">
        <ele>674</ele>
        <time>2021-08-23T14:25:25Z</time>
      </trkpt>
      <trkpt lat="45.51079" lon="4.4631">
        <ele>674</ele>
        <time>2021-08-23T14:25:42Z</time>
      </trkpt>
      <trkpt lat="45.51129" lon="4.46315">
        <ele>672</ele>
        <time>2021-08-23T14:26:07Z</time>
      </trkpt>
      <trkpt lat="45.51147" lon="4.46322">
        <ele>671</ele>
        <time>2021-08-23T14:26:16Z</time>
      </trkpt>
      <trkpt lat="45.5117" lon="4.46327">
        <ele>670</ele>
        <time>2021-08-23T14:26:28Z</time>
      </trkpt>
      <trkpt lat="45.51236" lon="4.46355">
        <ele>660</ele>
        <time>2021-08-23T14:27:02Z</time>
      </trkpt>
      <trkpt lat="45.51251" lon="4.46375">
        <ele>657</ele>
        <time>2021-08-23T14:27:12Z</time>
      </trkpt>
      <trkpt lat="45.51355" lon="4.4654">
        <ele>655</ele>
        <time>2021-08-23T14:28:30Z</time>
      </trkpt>
      <trkpt lat="45.51367" lon="4.46543">
        <ele>655</ele>
        <time>2021-08-23T14:28:36Z</time>
      </trkpt>
      <trkpt lat="45.51425" lon="4.46708">
        <ele>657</ele>
        <time>2021-08-23T14:29:41Z</time>
      </trkpt>
      <trkpt lat="45.5145" lon="4.46764">
        <ele>658</ele>
        <time>2021-08-23T14:30:04Z</time>
      </trkpt>
      <trkpt lat="45.51552" lon="4.46933">
        <ele>662</ele>
        <time>2021-08-23T14:31:23Z</time>
      </trkpt>
      <trkpt lat="45.51593" lon="4.46985">
        <ele>664</ele>
        <time>2021-08-23T14:31:50Z</time>
      </trkpt>
      <trkpt lat="45.5162" lon="4.47029">
        <ele>665</ele>
        <time>2021-08-23T14:32:11Z</time>
      </trkpt>
      <trkpt lat="45.51679" lon="4.47105">
        <ele>670</ele>
        <time>2021-08-23T14:32:50Z</time>
      </trkpt>
      <trkpt lat="45.51714" lon="4.47142">
        <ele>673</ele>
        <time>2021-08-23T14:33:12Z</time>
      </trkpt>
      <trkpt lat="45.51722" lon="4.47147">
        <ele>673</ele>
        <time>2021-08-23T14:33:17Z</time>
      </trkpt>
      <trkpt lat="45.51752" lon="4.47177">
        <ele>676</ele>
        <time>2021-08-23T14:33:35Z</time>
      </trkpt>
      <trkpt lat="45.51866" lon="4.47336">
        <ele>684</ele>
        <time>2021-08-23T14:34:55Z</time>
      </trkpt>
      <trkpt lat="45.51965" lon="4.47464">
        <ele>686</ele>
        <time>2021-08-23T14:36:01Z</time>
      </trkpt>
      <trkpt lat="45.52026" lon="4.47556">
        <ele>691</ele>
        <time>2021-08-23T14:36:46Z</time>
      </trkpt>
      <trkpt lat="45.52048" lon="4.47585">
        <ele>692</ele>
        <time>2021-08-23T14:37:01Z</time>
      </trkpt>
      <trkpt lat="45.52117" lon="4.47719">
        <ele>703</ele>
        <time>2021-08-23T14:37:59Z</time>
      </trkpt>
      <trkpt lat="45.52149" lon="4.47809">
        <ele>708</ele>
        <time>2021-08-23T14:38:35Z</time>
      </trkpt>
      <trkpt lat="45.52164" lon="4.47834">
        <ele>711</ele>
        <time>2021-08-23T14:38:46Z</time>
      </trkpt>
      <trkpt lat="45.52195" lon="4.47848">
        <ele>714</ele>
        <time>2021-08-23T14:39:02Z</time>
      </trkpt>
      <trkpt lat="45.52256" lon="4.47862">
        <ele>720</ele>
        <time>2021-08-23T14:39:33Z</time>
      </trkpt>
      <trkpt lat="45.5228" lon="4.47861">
        <ele>722</ele>
        <time>2021-08-23T14:39:45Z</time>
      </trkpt>
      <trkpt lat="45.52304" lon="4.47847">
        <ele>723</ele>
        <time>2021-08-23T14:39:58Z</time>
      </trkpt>
      <trkpt lat="45.52339" lon="4.47805">
        <ele>723</ele>
        <time>2021-08-23T14:40:21Z</time>
      </trkpt>
      <trkpt lat="45.52368" lon="4.47776">
        <ele>724</ele>
        <time>2021-08-23T14:40:39Z</time>
      </trkpt>
      <trkpt lat="45.52384" lon="4.47774">
        <ele>725</ele>
        <time>2021-08-23T14:40:47Z</time>
      </trkpt>
      <trkpt lat="45.52393" lon="4.47698">
        <ele>725</ele>
        <time>2021-08-23T14:41:14Z</time>
      </trkpt>
      <trkpt lat="45.52473" lon="4.47715">
        <ele>725</ele>
        <time>2021-08-23T14:41:54Z</time>
      </trkpt>
      <trkpt lat="45.52547" lon="4.47737">
        <ele>716</ele>
        <time>2021-08-23T14:42:32Z</time>
      </trkpt>
      <trkpt lat="45.52578" lon="4.47741">
        <ele>711</ele>
        <time>2021-08-23T14:42:48Z</time>
      </trkpt>
      <trkpt lat="45.52598" lon="4.4775">
        <ele>709</ele>
        <time>2021-08-23T14:42:58Z</time>
      </trkpt>
      <trkpt lat="45.52735" lon="4.47931">
        <ele>691</ele>
        <time>2021-08-23T14:44:32Z</time>
      </trkpt>
      <trkpt lat="45.52726" lon="4.47959">
        <ele>692</ele>
        <time>2021-08-23T14:44:43Z</time>
      </trkpt>
      <trkpt lat="45.52727" lon="4.47986">
        <ele>691</ele>
        <time>2021-08-23T14:44:52Z</time>
      </trkpt>
      <trkpt lat="45.52738" lon="4.48028">
        <ele>689</ele>
        <time>2021-08-23T14:45:08Z</time>
      </trkpt>
      <trkpt lat="45.52749" lon="4.48093">
        <ele>689</ele>
        <time>2021-08-23T14:45:31Z</time>
      </trkpt>
      <trkpt lat="45.52753" lon="4.48102">
        <ele>690</ele>
        <time>2021-08-23T14:45:35Z</time>
      </trkpt>
      <trkpt lat="45.52778" lon="4.48137">
        <ele>695</ele>
        <time>2021-08-23T14:45:52Z</time>
      </trkpt>
      <trkpt lat="45.52819" lon="4.48179">
        <ele>703</ele>
        <time>2021-08-23T14:46:18Z</time>
      </trkpt>
      <trkpt lat="45.52855" lon="4.48102">
        <ele>704</ele>
        <time>2021-08-23T14:46:50Z</time>
      </trkpt>
      <trkpt lat="45.52866" lon="4.48085">
        <ele>704</ele>
        <time>2021-08-23T14:46:58Z</time>
      </trkpt>
      <trkpt lat="45.52875" lon="4.4812">
        <ele>708</ele>
        <time>2021-08-23T14:47:11Z</time>
      </trkpt>
      <trkpt lat="45.529" lon="4.48166">
        <ele>716</ele>
        <time>2021-08-23T14:47:32Z</time>
      </trkpt>
      <trkpt lat="45.52924" lon="4.48218">
        <ele>724</ele>
        <time>2021-08-23T14:47:54Z</time>
      </trkpt>
      <trkpt lat="45.52959" lon="4.48329">
        <ele>733</ele>
        <time>2021-08-23T14:48:36Z</time>
      </trkpt>
      <trkpt lat="45.53009" lon="4.48424">
        <ele>742</ele>
        <time>2021-08-23T14:49:18Z</time>
      </trkpt>
      <trkpt lat="45.5303" lon="4.48453">
        <ele>744</ele>
        <time>2021-08-23T14:49:33Z</time>
      </trkpt>
      <trkpt lat="45.5305" lon="4.48475">
        <ele>747</ele>
        <time>2021-08-23T14:49:45Z</time>
      </trkpt>
      <trkpt lat="45.53172" lon="4.48547">
        <ele>761</ele>
        <time>2021-08-23T14:50:51Z</time>
      </trkpt>
      <trkpt lat="45.53232" lon="4.48573">
        <ele>766</ele>
        <time>2021-08-23T14:51:23Z</time>
      </trkpt>
      <trkpt lat="45.53272" lon="4.48585">
        <ele>766</ele>
        <time>2021-08-23T14:51:43Z</time>
      </trkpt>
      <trkpt lat="45.5331" lon="4.48577">
        <ele>766</ele>
        <time>2021-08-23T14:52:02Z</time>
      </trkpt>
      <trkpt lat="45.53384" lon="4.48604">
        <ele>760</ele>
        <time>2021-08-23T14:52:41Z</time>
      </trkpt>
      <trkpt lat="45.53428" lon="4.48614">
        <ele>757</ele>
        <time>2021-08-23T14:53:03Z</time>
      </trkpt>
      <trkpt lat="45.53433" lon="4.48619">
        <ele>756</ele>
        <time>2021-08-23T14:53:06Z</time>
      </trkpt>
      <trkpt lat="45.53441" lon="4.48613">
        <ele>756</ele>
        <time>2021-08-23T14:53:10Z</time>
      </trkpt>
      <trkpt lat="45.53451" lon="4.4861">
        <ele>755</ele>
        <time>2021-08-23T14:53:15Z</time>
      </trkpt>
      <trkpt lat="45.53479" lon="4.48612">
        <ele>752</ele>
        <time>2021-08-23T14:53:30Z</time>
      </trkpt>
      <trkpt lat="45.53492" lon="4.48621">
        <ele>751</ele>
        <time>2021-08-23T14:53:37Z</time>
      </trkpt>
      <trkpt lat="45.535" lon="4.4864">
        <ele>752</ele>
        <time>2021-08-23T14:53:45Z</time>
      </trkpt>
      <trkpt lat="45.53531" lon="4.4865">
        <ele>750</ele>
        <time>2021-08-23T14:54:00Z</time>
      </trkpt>
      <trkpt lat="45.53548" lon="4.48659">
        <ele>749</ele>
        <time>2021-08-23T14:54:09Z</time>
      </trkpt>
      <trkpt lat="45.53585" lon="4.48673">
        <ele>747</ele>
        <time>2021-08-23T14:54:29Z</time>
      </trkpt>
      <trkpt lat="45.5359" lon="4.48669">
        <ele>747</ele>
        <time>2021-08-23T14:54:32Z</time>
      </trkpt>
      <trkpt lat="45.53602" lon="4.48667">
        <ele>745</ele>
        <time>2021-08-23T14:54:38Z</time>
      </trkpt>
      <trkpt lat="45.53651" lon="4.4867">
        <ele>742</ele>
        <time>2021-08-23T14:55:02Z</time>
      </trkpt>
      <trkpt lat="45.53664" lon="4.48667">
        <ele>740</ele>
        <time>2021-08-23T14:55:09Z</time>
      </trkpt>
      <trkpt lat="45.53674" lon="4.48657">
        <ele>738</ele>
        <time>2021-08-23T14:55:15Z</time>
      </trkpt>
      <trkpt lat="45.53718" lon="4.48665">
        <ele>734</ele>
        <time>2021-08-23T14:55:37Z</time>
      </trkpt>
      <trkpt lat="45.53761" lon="4.48692">
        <ele>734</ele>
        <time>2021-08-23T14:56:01Z</time>
      </trkpt>
      <trkpt lat="45.53785" lon="4.4869">
        <ele>734</ele>
        <time>2021-08-23T14:56:13Z</time>
      </trkpt>
      <trkpt lat="45.53818" lon="4.48679">
        <ele>733</ele>
        <time>2021-08-23T14:56:30Z</time>
      </trkpt>
      <trkpt lat="45.53859" lon="4.48672">
        <ele>731</ele>
        <time>2021-08-23T14:56:50Z</time>
      </trkpt>
      <trkpt lat="45.53885" lon="4.48677">
        <ele>732</ele>
        <time>2021-08-23T14:57:03Z</time>
      </trkpt>
      <trkpt lat="45.53907" lon="4.48687">
        <ele>733</ele>
        <time>2021-08-23T14:57:15Z</time>
      </trkpt>
      <trkpt lat="45.53916" lon="4.48694">
        <ele>733</ele>
        <time>2021-08-23T14:57:20Z</time>
      </trkpt>
      <trkpt lat="45.53959" lon="4.48716">
        <ele>737</ele>
        <time>2021-08-23T14:57:43Z</time>
      </trkpt>
      <trkpt lat="45.53991" lon="4.48743">
        <ele>737</ele>
        <time>2021-08-23T14:58:01Z</time>
      </trkpt>
      <trkpt lat="45.54034" lon="4.48801">
        <ele>742</ele>
        <time>2021-08-23T14:58:31Z</time>
      </trkpt>
      <trkpt lat="45.5405" lon="4.48816">
        <ele>742</ele>
        <time>2021-08-23T14:58:41Z</time>
      </trkpt>
      <trkpt lat="45.54129" lon="4.48867">
        <ele>749</ele>
        <time>2021-08-23T14:59:24Z</time>
      </trkpt>
      <trkpt lat="45.54146" lon="4.48885">
        <ele>750</ele>
        <time>2021-08-23T14:59:35Z</time>
      </trkpt>
      <trkpt lat="45.54166" lon="4.48917">
        <ele>750</ele>
        <time>2021-08-23T14:59:50Z</time>
      </trkpt>
      <trkpt lat="45.54179" lon="4.48933">
        <ele>751</ele>
        <time>2021-08-23T14:59:58Z</time>
      </trkpt>
      <trkpt lat="45.5419" lon="4.48937">
        <ele>752</ele>
        <time>2021-08-23T15:00:04Z</time>
      </trkpt>
      <trkpt lat="45.54189" lon="4.48978">
        <ele>751</ele>
        <time>2021-08-23T15:00:18Z</time>
      </trkpt>
      <trkpt lat="45.5421" lon="4.49017">
        <ele>751</ele>
        <time>2021-08-23T15:00:36Z</time>
      </trkpt>
      <trkpt lat="45.54206" lon="4.4904">
        <ele>750</ele>
        <time>2021-08-23T15:00:44Z</time>
      </trkpt>
      <trkpt lat="45.54246" lon="4.48981">
        <ele>755</ele>
        <time>2021-08-23T15:01:13Z</time>
      </trkpt>
      <trkpt lat="45.54243" lon="4.48979">
        <ele>755</ele>
        <time>2021-08-23T15:01:14Z</time>
      </trkpt>
      <trkpt lat="45.54248" lon="4.48973">
        <ele>756</ele>
        <time>2021-08-23T15:01:18Z</time>
      </trkpt>
      <trkpt lat="45.54244" lon="4.48972">
        <ele>756</ele>
        <time>2021-08-23T15:01:20Z</time>
      </trkpt>
      <trkpt lat="45.54253" lon="4.48955">
        <ele>759</ele>
        <time>2021-08-23T15:01:27Z</time>
      </trkpt>
      <trkpt lat="45.54223" lon="4.48913">
        <ele>758</ele>
        <time>2021-08-23T15:01:48Z</time>
      </trkpt>
      <trkpt lat="45.54263" lon="4.4886">
        <ele>768</ele>
        <time>2021-08-23T15:02:15Z</time>
      </trkpt>
      <trkpt lat="45.54331" lon="4.48777">
        <ele>784</ele>
        <time>2021-08-23T15:03:00Z</time>
      </trkpt>
      <trkpt lat="45.5437" lon="4.48878">
        <ele>778</ele>
        <time>2021-08-23T15:03:41Z</time>
      </trkpt>
      <trkpt lat="45.54402" lon="4.48909">
        <ele>775</ele>
        <time>2021-08-23T15:04:00Z</time>
      </trkpt>
      <trkpt lat="45.54421" lon="4.48931">
        <ele>774</ele>
        <time>2021-08-23T15:04:12Z</time>
      </trkpt>
      <trkpt lat="45.54437" lon="4.4896">
        <ele>773</ele>
        <time>2021-08-23T15:04:25Z</time>
      </trkpt>
      <trkpt lat="45.54439" lon="4.49015">
        <ele>768</ele>
        <time>2021-08-23T15:04:44Z</time>
      </trkpt>
      <trkpt lat="45.54435" lon="4.49065">
        <ele>764</ele>
        <time>2021-08-23T15:05:02Z</time>
      </trkpt>
      <trkpt lat="45.54441" lon="4.49122">
        <ele>761</ele>
        <time>2021-08-23T15:05:22Z</time>
      </trkpt>
      <trkpt lat="45.54455" lon="4.49164">
        <ele>759</ele>
        <time>2021-08-23T15:05:39Z</time>
      </trkpt>
      <trkpt lat="45.54478" lon="4.49218">
        <ele>760</ele>
        <time>2021-08-23T15:06:01Z</time>
      </trkpt>
      <trkpt lat="45.54483" lon="4.49243">
        <ele>760</ele>
        <time>2021-08-23T15:06:10Z</time>
      </trkpt>
      <trkpt lat="45.54481" lon="4.49397">
        <ele>759</ele>
        <time>2021-08-23T15:07:04Z</time>
      </trkpt>
      <trkpt lat="45.54484" lon="4.49438">
        <ele>759</ele>
        <time>2021-08-23T15:07:18Z</time>
      </trkpt>
      <trkpt lat="45.54483" lon="4.49485">
        <ele>759</ele>
        <time>2021-08-23T15:07:35Z</time>
      </trkpt>
      <trkpt lat="45.54477" lon="4.49509">
        <ele>759</ele>
        <time>2021-08-23T15:07:44Z</time>
      </trkpt>
      <trkpt lat="45.54429" lon="4.49609">
        <ele>765</ele>
        <time>2021-08-23T15:08:26Z</time>
      </trkpt>
      <trkpt lat="45.54396" lon="4.4974">
        <ele>770</ele>
        <time>2021-08-23T15:09:15Z</time>
      </trkpt>
      <trkpt lat="45.54438" lon="4.49845">
        <ele>773</ele>
        <time>2021-08-23T15:09:57Z</time>
      </trkpt>
      <trkpt lat="45.54465" lon="4.49965">
        <ele>773</ele>
        <time>2021-08-23T15:10:41Z</time>
      </trkpt>
      <trkpt lat="45.54497" lon="4.50066">
        <ele>775</ele>
        <time>2021-08-23T15:11:20Z</time>
      </trkpt>
      <trkpt lat="45.54519" lon="4.50168">
        <ele>770</ele>
        <time>2021-08-23T15:11:58Z</time>
      </trkpt>
      <trkpt lat="45.54583" lon="4.50324">
        <ele>772</ele>
        <time>2021-08-23T15:13:01Z</time>
      </trkpt>
      <trkpt lat="45.54614" lon="4.50425">
        <ele>772</ele>
        <time>2021-08-23T15:13:40Z</time>
      </trkpt>
      <trkpt lat="45.54624" lon="4.50447">
        <ele>770</ele>
        <time>2021-08-23T15:13:49Z</time>
      </trkpt>
      <trkpt lat="45.54648" lon="4.50484">
        <ele>768</ele>
        <time>2021-08-23T15:14:07Z</time>
      </trkpt>
      <trkpt lat="45.54729" lon="4.50482">
        <ele>775</ele>
        <time>2021-08-23T15:14:47Z</time>
      </trkpt>
      <trkpt lat="45.54794" lon="4.50502">
        <ele>773</ele>
        <time>2021-08-23T15:15:20Z</time>
      </trkpt>
      <trkpt lat="45.5484" lon="4.50502">
        <ele>776</ele>
        <time>2021-08-23T15:15:43Z</time>
      </trkpt>
      <trkpt lat="45.54904" lon="4.50636">
        <ele>767</ele>
        <time>2021-08-23T15:16:40Z</time>
      </trkpt>
      <trkpt lat="45.54937" lon="4.50647">
        <ele>769</ele>
        <time>2021-08-23T15:16:57Z</time>
      </trkpt>
      <trkpt lat="45.54981" lon="4.50644">
        <ele>772</ele>
        <time>2021-08-23T15:17:19Z</time>
      </trkpt>
      <trkpt lat="45.55015" lon="4.50637">
        <ele>775</ele>
        <time>2021-08-23T15:17:36Z</time>
      </trkpt>
      <trkpt lat="45.55017" lon="4.5063">
        <ele>776</ele>
        <time>2021-08-23T15:17:39Z</time>
      </trkpt>
      <trkpt lat="45.55068" lon="4.50662">
        <ele>767</ele>
        <time>2021-08-23T15:18:07Z</time>
      </trkpt>
      <trkpt lat="45.55105" lon="4.50702">
        <ele>764</ele>
        <time>2021-08-23T15:18:30Z</time>
      </trkpt>
      <trkpt lat="45.55204" lon="4.50699">
        <ele>762</ele>
        <time>2021-08-23T15:19:20Z</time>
      </trkpt>
      <trkpt lat="45.55156" lon="4.50655">
        <ele>771</ele>
        <time>2021-08-23T15:19:48Z</time>
      </trkpt>
      <trkpt lat="45.55142" lon="4.50637">
        <ele>773</ele>
        <time>2021-08-23T15:19:58Z</time>
      </trkpt>
      <trkpt lat="45.5514" lon="4.50622">
        <ele>775</ele>
        <time>2021-08-23T15:20:03Z</time>
      </trkpt>
      <trkpt lat="45.55146" lon="4.5058">
        <ele>780</ele>
        <time>2021-08-23T15:20:18Z</time>
      </trkpt>
      <trkpt lat="45.55171" lon="4.50528">
        <ele>790</ele>
        <time>2021-08-23T15:20:40Z</time>
      </trkpt>
      <trkpt lat="45.55226" lon="4.50338">
        <ele>806</ele>
        <time>2021-08-23T15:21:52Z</time>
      </trkpt>
      <trkpt lat="45.55233" lon="4.503">
        <ele>808</ele>
        <time>2021-08-23T15:22:06Z</time>
      </trkpt>
      <trkpt lat="45.5524" lon="4.50288">
        <ele>808</ele>
        <time>2021-08-23T15:22:12Z</time>
      </trkpt>
      <trkpt lat="45.55251" lon="4.50219">
        <ele>812</ele>
        <time>2021-08-23T15:22:36Z</time>
      </trkpt>
      <trkpt lat="45.55231" lon="4.50115">
        <ele>816</ele>
        <time>2021-08-23T15:23:14Z</time>
      </trkpt>
      <trkpt lat="45.55252" lon="4.50086">
        <ele>817</ele>
        <time>2021-08-23T15:23:29Z</time>
      </trkpt>
      <trkpt lat="45.55281" lon="4.50057">
        <ele>818</ele>
        <time>2021-08-23T15:23:46Z</time>
      </trkpt>
      <trkpt lat="45.55297" lon="4.5002">
        <ele>821</ele>
        <time>2021-08-23T15:24:02Z</time>
      </trkpt>
      <trkpt lat="45.5532" lon="4.49956">
        <ele>827</ele>
        <time>2021-08-23T15:24:27Z</time>
      </trkpt>
      <trkpt lat="45.55349" lon="4.49913">
        <ele>831</ele>
        <time>2021-08-23T15:24:48Z</time>
      </trkpt>
      <trkpt lat="45.55366" lon="4.4995">
        <ele>826</ele>
        <time>2021-08-23T15:25:03Z</time>
      </trkpt>
      <trkpt lat="45.55377" lon="4.49957">
        <ele>825</ele>
        <time>2021-08-23T15:25:09Z</time>
      </trkpt>
      <trkpt lat="45.55466" lon="4.49979">
        <ele>814</ele>
        <time>2021-08-23T15:25:55Z</time>
      </trkpt>
      <trkpt lat="45.55548" lon="4.49988">
        <ele>808</ele>
        <time>2021-08-23T15:26:36Z</time>
      </trkpt>
      <trkpt lat="45.55566" lon="4.49995">
        <ele>805</ele>
        <time>2021-08-23T15:26:45Z</time>
      </trkpt>
      <trkpt lat="45.55604" lon="4.50017">
        <ele>801</ele>
        <time>2021-08-23T15:27:06Z</time>
      </trkpt>
      <trkpt lat="45.55604" lon="4.50022">
        <ele>800</ele>
        <time>2021-08-23T15:27:07Z</time>
      </trkpt>
      <trkpt lat="45.55601" lon="4.50025">
        <ele>798</ele>
        <time>2021-08-23T15:27:09Z</time>
      </trkpt>
      <trkpt lat="45.55631" lon="4.50071">
        <ele>790</ele>
        <time>2021-08-23T15:27:31Z</time>
      </trkpt>
      <trkpt lat="45.55681" lon="4.50156">
        <ele>768</ele>
        <time>2021-08-23T15:28:10Z</time>
      </trkpt>
      <trkpt lat="45.55695" lon="4.502">
        <ele>758</ele>
        <time>2021-08-23T15:28:27Z</time>
      </trkpt>
      <trkpt lat="45.55714" lon="4.50222">
        <ele>753</ele>
        <time>2021-08-23T15:28:39Z</time>
      </trkpt>
      <trkpt lat="45.55719" lon="4.50242">
        <ele>748</ele>
        <time>2021-08-23T15:28:47Z</time>
      </trkpt>
      <trkpt lat="45.55726" lon="4.50251">
        <ele>746</ele>
        <time>2021-08-23T15:28:51Z</time>
      </trkpt>
      <trkpt lat="45.55742" lon="4.50256">
        <ele>744</ele>
        <time>2021-08-23T15:29:00Z</time>
      </trkpt>
      <trkpt lat="45.55766" lon="4.50257">
        <ele>747</ele>
        <time>2021-08-23T15:29:12Z</time>
      </trkpt>
      <trkpt lat="45.5578" lon="4.50275">
        <ele>744</ele>
        <time>2021-08-23T15:29:21Z</time>
      </trkpt>
      <trkpt lat="45.55795" lon="4.50311">
        <ele>737</ele>
        <time>2021-08-23T15:29:36Z</time>
      </trkpt>
      <trkpt lat="45.55856" lon="4.50435">
        <ele>709</ele>
        <time>2021-08-23T15:30:29Z</time>
      </trkpt>
      <trkpt lat="45.5587" lon="4.5045">
        <ele>707</ele>
        <time>2021-08-23T15:30:38Z</time>
      </trkpt>
      <trkpt lat="45.5591" lon="4.50404">
        <ele>719</ele>
        <time>2021-08-23T15:31:03Z</time>
      </trkpt>
      <trkpt lat="45.55994" lon="4.50279">
        <ele>738</ele>
        <time>2021-08-23T15:32:04Z</time>
      </trkpt>
      <trkpt lat="45.56032" lon="4.50189">
        <ele>753</ele>
        <time>2021-08-23T15:32:41Z</time>
      </trkpt>
      <trkpt lat="45.56047" lon="4.50162">
        <ele>757</ele>
        <time>2021-08-23T15:32:53Z</time>
      </trkpt>
      <trkpt lat="45.5606" lon="4.50105">
        <ele>769</ele>
        <time>2021-08-23T15:33:14Z</time>
      </trkpt>
      <trkpt lat="45.56063" lon="4.50051">
        <ele>782</ele>
        <time>2021-08-23T15:33:33Z</time>
      </trkpt>
      <trkpt lat="45.56083" lon="4.50014">
        <ele>785</ele>
        <time>2021-08-23T15:33:49Z</time>
      </trkpt>
      <trkpt lat="45.56089" lon="4.49983">
        <ele>792</ele>
        <time>2021-08-23T15:34:00Z</time>
      </trkpt>
      <trkpt lat="45.56109" lon="4.49973">
        <ele>787</ele>
        <time>2021-08-23T15:34:11Z</time>
      </trkpt>
      <trkpt lat="45.56137" lon="4.49969">
        <ele>777</ele>
        <time>2021-08-23T15:34:25Z</time>
      </trkpt>
      <trkpt lat="45.56189" lon="4.49936">
        <ele>770</ele>
        <time>2021-08-23T15:34:54Z</time>
      </trkpt>
      <trkpt lat="45.56215" lon="4.49932">
        <ele>768</ele>
        <time>2021-08-23T15:35:07Z</time>
      </trkpt>
      <trkpt lat="45.56285" lon="4.49955">
        <ele>764</ele>
        <time>2021-08-23T15:35:43Z</time>
      </trkpt>
      <trkpt lat="45.56344" lon="4.50002">
        <ele>761</ele>
        <time>2021-08-23T15:36:16Z</time>
      </trkpt>
      <trkpt lat="45.56359" lon="4.50007">
        <ele>765</ele>
        <time>2021-08-23T15:36:24Z</time>
      </trkpt>
      <trkpt lat="45.56381" lon="4.50025">
        <ele>767</ele>
        <time>2021-08-23T15:36:37Z</time>
      </trkpt>
      <trkpt lat="45.56421" lon="4.50068">
        <ele>768</ele>
        <time>2021-08-23T15:37:02Z</time>
      </trkpt>
      <trkpt lat="45.5643" lon="4.50073">
        <ele>769</ele>
        <time>2021-08-23T15:37:07Z</time>
      </trkpt>
      <trkpt lat="45.56488" lon="4.50075">
        <ele>784</ele>
        <time>2021-08-23T15:37:36Z</time>
      </trkpt>
      <trkpt lat="45.56599" lon="4.50109">
        <ele>799</ele>
        <time>2021-08-23T15:38:33Z</time>
      </trkpt>
      <trkpt lat="45.5668" lon="4.50111">
        <ele>814</ele>
        <time>2021-08-23T15:39:13Z</time>
      </trkpt>
      <trkpt lat="45.56705" lon="4.50103">
        <ele>819</ele>
        <time>2021-08-23T15:39:26Z</time>
      </trkpt>
      <trkpt lat="45.5676" lon="4.50063">
        <ele>825</ele>
        <time>2021-08-23T15:39:57Z</time>
      </trkpt>
      <trkpt lat="45.56771" lon="4.50068">
        <ele>825</ele>
        <time>2021-08-23T15:40:03Z</time>
      </trkpt>
      <trkpt lat="45.56815" lon="4.50138">
        <ele>827</ele>
        <time>2021-08-23T15:40:36Z</time>
      </trkpt>
      <trkpt lat="45.56859" lon="4.5022">
        <ele>836</ele>
        <time>2021-08-23T15:41:12Z</time>
      </trkpt>
      <trkpt lat="45.5687" lon="4.5026">
        <ele>841</ele>
        <time>2021-08-23T15:41:27Z</time>
      </trkpt>
      <trkpt lat="45.56873" lon="4.5028">
        <ele>842</ele>
        <time>2021-08-23T15:41:34Z</time>
      </trkpt>
      <trkpt lat="45.56872" lon="4.50341">
        <ele>846</ele>
        <time>2021-08-23T15:41:55Z</time>
      </trkpt>
      <trkpt lat="45.56889" lon="4.50495">
        <ele>866</ele>
        <time>2021-08-23T15:42:50Z</time>
      </trkpt>
      <trkpt lat="45.56913" lon="4.50595">
        <ele>875</ele>
        <time>2021-08-23T15:43:27Z</time>
      </trkpt>
      <trkpt lat="45.56925" lon="4.50658">
        <ele>879</ele>
        <time>2021-08-23T15:43:50Z</time>
      </trkpt>
      <trkpt lat="45.56928" lon="4.50762">
        <ele>875</ele>
        <time>2021-08-23T15:44:26Z</time>
      </trkpt>
      <trkpt lat="45.56936" lon="4.50791">
        <ele>872</ele>
        <time>2021-08-23T15:44:37Z</time>
      </trkpt>
      <trkpt lat="45.56946" lon="4.50816">
        <ele>870</ele>
        <time>2021-08-23T15:44:47Z</time>
      </trkpt>
      <trkpt lat="45.56967" lon="4.50893">
        <ele>865</ele>
        <time>2021-08-23T15:45:16Z</time>
      </trkpt>
      <trkpt lat="45.56986" lon="4.5106">
        <ele>864</ele>
        <time>2021-08-23T15:46:16Z</time>
      </trkpt>
      <trkpt lat="45.5702" lon="4.51199">
        <ele>868</ele>
        <time>2021-08-23T15:47:07Z</time>
      </trkpt>
      <trkpt lat="45.57025" lon="4.51229">
        <ele>868</ele>
        <time>2021-08-23T15:47:18Z</time>
      </trkpt>
      <trkpt lat="45.57028" lon="4.5126">
        <ele>868</ele>
        <time>2021-08-23T15:47:29Z</time>
      </trkpt>
      <trkpt lat="45.57027" lon="4.51323">
        <ele>865</ele>
        <time>2021-08-23T15:47:51Z</time>
      </trkpt>
      <trkpt lat="45.57021" lon="4.51367">
        <ele>864</ele>
        <time>2021-08-23T15:48:07Z</time>
      </trkpt>
      <trkpt lat="45.57019" lon="4.51409">
        <ele>862</ele>
        <time>2021-08-23T15:48:21Z</time>
      </trkpt>
      <trkpt lat="45.56998" lon="4.5144">
        <ele>862</ele>
        <time>2021-08-23T15:48:37Z</time>
      </trkpt>
      <trkpt lat="45.56982" lon="4.51644">
        <ele>860</ele>
        <time>2021-08-23T15:49:48Z</time>
      </trkpt>
      <trkpt lat="45.56981" lon="4.51714">
        <ele>863</ele>
        <time>2021-08-23T15:50:13Z</time>
      </trkpt>
      <trkpt lat="45.56987" lon="4.51814">
        <ele>873</ele>
        <time>2021-08-23T15:50:48Z</time>
      </trkpt>
      <trkpt lat="45.56998" lon="4.51848">
        <ele>879</ele>
        <time>2021-08-23T15:51:01Z</time>
      </trkpt>
      <trkpt lat="45.57006" lon="4.51888">
        <ele>883</ele>
        <time>2021-08-23T15:51:16Z</time>
      </trkpt>
      <trkpt lat="45.57004" lon="4.51926">
        <ele>885</ele>
        <time>2021-08-23T15:51:29Z</time>
      </trkpt>
      <trkpt lat="45.56985" lon="4.5199">
        <ele>885</ele>
        <time>2021-08-23T15:51:54Z</time>
      </trkpt>
      <trkpt lat="45.56986" lon="4.52045">
        <ele>884</ele>
        <time>2021-08-23T15:52:13Z</time>
      </trkpt>
      <trkpt lat="45.56979" lon="4.52084">
        <ele>881</ele>
        <time>2021-08-23T15:52:27Z</time>
      </trkpt>
      <trkpt lat="45.56981" lon="4.52114">
        <ele>882</ele>
        <time>2021-08-23T15:52:38Z</time>
      </trkpt>
      <trkpt lat="45.57001" lon="4.52194">
        <ele>886</ele>
        <time>2021-08-23T15:53:07Z</time>
      </trkpt>
      <trkpt lat="45.56996" lon="4.52262">
        <ele>885</ele>
        <time>2021-08-23T15:53:31Z</time>
      </trkpt>
      <trkpt lat="45.57021" lon="4.52376">
        <ele>875</ele>
        <time>2021-08-23T15:54:13Z</time>
      </trkpt>
      <trkpt lat="45.5706" lon="4.5244">
        <ele>869</ele>
        <time>2021-08-23T15:54:43Z</time>
      </trkpt>
      <trkpt lat="45.57076" lon="4.52498">
        <ele>868</ele>
        <time>2021-08-23T15:55:05Z</time>
      </trkpt>
      <trkpt lat="45.57116" lon="4.52543">
        <ele>869</ele>
        <time>2021-08-23T15:55:30Z</time>
      </trkpt>
      <trkpt lat="45.57126" lon="4.52571">
        <ele>870</ele>
        <time>2021-08-23T15:55:41Z</time>
      </trkpt>
      <trkpt lat="45.57162" lon="4.52629">
        <ele>873</ele>
        <time>2021-08-23T15:56:08Z</time>
      </trkpt>
      <trkpt lat="45.5719" lon="4.52758">
        <ele>870</ele>
        <time>2021-08-23T15:56:56Z</time>
      </trkpt>
      <trkpt lat="45.57215" lon="4.52828">
        <ele>869</ele>
        <time>2021-08-23T15:57:23Z</time>
      </trkpt>
      <trkpt lat="45.57246" lon="4.52874">
        <ele>874</ele>
        <time>2021-08-23T15:57:45Z</time>
      </trkpt>
      <trkpt lat="45.57262" lon="4.52879">
        <ele>875</ele>
        <time>2021-08-23T15:57:54Z</time>
      </trkpt>
      <trkpt lat="45.57273" lon="4.52916">
        <ele>874</ele>
        <time>2021-08-23T15:58:08Z</time>
      </trkpt>
      <trkpt lat="45.57279" lon="4.5295">
        <ele>872</ele>
        <time>2021-08-23T15:58:20Z</time>
      </trkpt>
      <trkpt lat="45.5729" lon="4.5308">
        <ele>870</ele>
        <time>2021-08-23T15:59:06Z</time>
      </trkpt>
      <trkpt lat="45.57287" lon="4.53239">
        <ele>871</ele>
        <time>2021-08-23T16:00:02Z</time>
      </trkpt>
      <trkpt lat="45.57282" lon="4.53283">
        <ele>871</ele>
        <time>2021-08-23T16:00:17Z</time>
      </trkpt>
      <trkpt lat="45.57269" lon="4.53354">
        <ele>870</ele>
        <time>2021-08-23T16:00:43Z</time>
      </trkpt>
      <trkpt lat="45.57273" lon="4.53395">
        <ele>869</ele>
        <time>2021-08-23T16:00:57Z</time>
      </trkpt>
      <trkpt lat="45.57284" lon="4.5345">
        <ele>868</ele>
        <time>2021-08-23T16:01:18Z</time>
      </trkpt>
      <trkpt lat="45.57296" lon="4.53481">
        <ele>867</ele>
        <time>2021-08-23T16:01:30Z</time>
      </trkpt>
      <trkpt lat="45.57306" lon="4.53495">
        <ele>867</ele>
        <time>2021-08-23T16:01:37Z</time>
      </trkpt>
      <trkpt lat="45.57326" lon="4.53556">
        <ele>866</ele>
        <time>2021-08-23T16:02:01Z</time>
      </trkpt>
      <trkpt lat="45.57327" lon="4.53582">
        <ele>866</ele>
        <time>2021-08-23T16:02:10Z</time>
      </trkpt>
      <trkpt lat="45.57321" lon="4.53617">
        <ele>865</ele>
        <time>2021-08-23T16:02:22Z</time>
      </trkpt>
      <trkpt lat="45.57314" lon="4.53638">
        <ele>864</ele>
        <time>2021-08-23T16:02:30Z</time>
      </trkpt>
      <trkpt lat="45.57286" lon="4.53697">
        <ele>861</ele>
        <time>2021-08-23T16:02:55Z</time>
      </trkpt>
      <trkpt lat="45.57273" lon="4.5373">
        <ele>859</ele>
        <time>2021-08-23T16:03:09Z</time>
      </trkpt>
      <trkpt lat="45.57268" lon="4.53767">
        <ele>857</ele>
        <time>2021-08-23T16:03:22Z</time>
      </trkpt>
      <trkpt lat="45.57269" lon="4.53809">
        <ele>857</ele>
        <time>2021-08-23T16:03:37Z</time>
      </trkpt>
      <trkpt lat="45.57266" lon="4.53853">
        <ele>856</ele>
        <time>2021-08-23T16:03:52Z</time>
      </trkpt>
      <trkpt lat="45.57262" lon="4.5387">
        <ele>855</ele>
        <time>2021-08-23T16:03:58Z</time>
      </trkpt>
      <trkpt lat="45.57253" lon="4.53885">
        <ele>853</ele>
        <time>2021-08-23T16:04:05Z</time>
      </trkpt>
      <trkpt lat="45.57242" lon="4.53886">
        <ele>850</ele>
        <time>2021-08-23T16:04:11Z</time>
      </trkpt>
      <trkpt lat="45.57203" lon="4.53954">
        <ele>839</ele>
        <time>2021-08-23T16:04:42Z</time>
      </trkpt>
      <trkpt lat="45.57175" lon="4.54026">
        <ele>831</ele>
        <time>2021-08-23T16:05:10Z</time>
      </trkpt>
      <trkpt lat="45.57164" lon="4.54077">
        <ele>828</ele>
        <time>2021-08-23T16:05:29Z</time>
      </trkpt>
      <trkpt lat="45.5715" lon="4.54105">
        <ele>823</ele>
        <time>2021-08-23T16:05:41Z</time>
      </trkpt>
      <trkpt lat="45.57138" lon="4.5415">
        <ele>820</ele>
        <time>2021-08-23T16:05:58Z</time>
      </trkpt>
      <trkpt lat="45.57104" lon="4.54299">
        <ele>805</ele>
        <time>2021-08-23T16:06:53Z</time>
      </trkpt>
      <trkpt lat="45.57104" lon="4.54342">
        <ele>804</ele>
        <time>2021-08-23T16:07:08Z</time>
      </trkpt>
      <trkpt lat="45.57084" lon="4.54421">
        <ele>791</ele>
        <time>2021-08-23T16:07:37Z</time>
      </trkpt>
      <trkpt lat="45.57078" lon="4.54466">
        <ele>785</ele>
        <time>2021-08-23T16:07:53Z</time>
      </trkpt>
      <trkpt lat="45.57075" lon="4.54536">
        <ele>778</ele>
        <time>2021-08-23T16:08:18Z</time>
      </trkpt>
      <trkpt lat="45.57064" lon="4.54587">
        <ele>771</ele>
        <time>2021-08-23T16:08:37Z</time>
      </trkpt>
      <trkpt lat="45.57149" lon="4.54551">
        <ele>783</ele>
        <time>2021-08-23T16:09:21Z</time>
      </trkpt>
      <trkpt lat="45.57196" lon="4.54544">
        <ele>792</ele>
        <time>2021-08-23T16:09:45Z</time>
      </trkpt>
      <trkpt lat="45.57219" lon="4.54558">
        <ele>793</ele>
        <time>2021-08-23T16:09:57Z</time>
      </trkpt>
      <trkpt lat="45.57279" lon="4.54636">
        <ele>790</ele>
        <time>2021-08-23T16:10:38Z</time>
      </trkpt>
      <trkpt lat="45.57331" lon="4.54666">
        <ele>800</ele>
        <time>2021-08-23T16:11:06Z</time>
      </trkpt>
      <trkpt lat="45.57396" lon="4.54698">
        <ele>808</ele>
        <time>2021-08-23T16:11:40Z</time>
      </trkpt>
      <trkpt lat="45.57452" lon="4.54748">
        <ele>809</ele>
        <time>2021-08-23T16:12:13Z</time>
      </trkpt>
      <trkpt lat="45.57506" lon="4.54822">
        <ele>806</ele>
        <time>2021-08-23T16:12:51Z</time>
      </trkpt>
      <trkpt lat="45.57574" lon="4.54899">
        <ele>810</ele>
        <time>2021-08-23T16:13:34Z</time>
      </trkpt>
      <trkpt lat="45.57651" lon="4.54971">
        <ele>812</ele>
        <time>2021-08-23T16:14:20Z</time>
      </trkpt>
      <trkpt lat="45.57667" lon="4.54992">
        <ele>812</ele>
        <time>2021-08-23T16:14:31Z</time>
      </trkpt>
      <trkpt lat="45.57745" lon="4.55115">
        <ele>814</ele>
        <time>2021-08-23T16:15:29Z</time>
      </trkpt>
      <trkpt lat="45.57761" lon="4.55132">
        <ele>814</ele>
        <time>2021-08-23T16:15:39Z</time>
      </trkpt>
      <trkpt lat="45.57775" lon="4.55138">
        <ele>815</ele>
        <time>2021-08-23T16:15:47Z</time>
      </trkpt>
      <trkpt lat="45.57818" lon="4.55138">
        <ele>818</ele>
        <time>2021-08-23T16:16:08Z</time>
      </trkpt>
      <trkpt lat="45.57855" lon="4.55135">
        <ele>818</ele>
        <time>2021-08-23T16:16:27Z</time>
      </trkpt>
      <trkpt lat="45.57853" lon="4.55199">
        <ele>815</ele>
        <time>2021-08-23T16:16:49Z</time>
      </trkpt>
      <trkpt lat="45.57846" lon="4.55248">
        <ele>813</ele>
        <time>2021-08-23T16:17:07Z</time>
      </trkpt>
      <trkpt lat="45.57823" lon="4.553">
        <ele>810</ele>
        <time>2021-08-23T16:17:28Z</time>
      </trkpt>
      <trkpt lat="45.57818" lon="4.55341">
        <ele>806</ele>
        <time>2021-08-23T16:17:43Z</time>
      </trkpt>
      <trkpt lat="45.57823" lon="4.55399">
        <ele>801</ele>
        <time>2021-08-23T16:18:03Z</time>
      </trkpt>
      <trkpt lat="45.57818" lon="4.5551">
        <ele>791</ele>
        <time>2021-08-23T16:18:42Z</time>
      </trkpt>
      <trkpt lat="45.57829" lon="4.5557">
        <ele>786</ele>
        <time>2021-08-23T16:19:04Z</time>
      </trkpt>
      <trkpt lat="45.57827" lon="4.55578">
        <ele>784</ele>
        <time>2021-08-23T16:19:07Z</time>
      </trkpt>
      <trkpt lat="45.57835" lon="4.55598">
        <ele>784</ele>
        <time>2021-08-23T16:19:15Z</time>
      </trkpt>
      <trkpt lat="45.57839" lon="4.55633">
        <ele>782</ele>
        <time>2021-08-23T16:19:27Z</time>
      </trkpt>
      <trkpt lat="45.57842" lon="4.55721">
        <ele>778</ele>
        <time>2021-08-23T16:19:58Z</time>
      </trkpt>
      <trkpt lat="45.5784" lon="4.55755">
        <ele>776</ele>
        <time>2021-08-23T16:20:10Z</time>
      </trkpt>
      <trkpt lat="45.57842" lon="4.55798">
        <ele>777</ele>
        <time>2021-08-23T16:20:25Z</time>
      </trkpt>
      <trkpt lat="45.57836" lon="4.5584">
        <ele>774</ele>
        <time>2021-08-23T16:20:40Z</time>
      </trkpt>
      <trkpt lat="45.57826" lon="4.55967">
        <ele>760</ele>
        <time>2021-08-23T16:21:25Z</time>
      </trkpt>
      <trkpt lat="45.57818" lon="4.56034">
        <ele>755</ele>
        <time>2021-08-23T16:21:49Z</time>
      </trkpt>
      <trkpt lat="45.57824" lon="4.5608">
        <ele>758</ele>
        <time>2021-08-23T16:22:05Z</time>
      </trkpt>
      <trkpt lat="45.57836" lon="4.56109">
        <ele>762</ele>
        <time>2021-08-23T16:22:17Z</time>
      </trkpt>
      <trkpt lat="45.57833" lon="4.5617">
        <ele>757</ele>
        <time>2021-08-23T16:22:38Z</time>
      </trkpt>
      <trkpt lat="45.57839" lon="4.56272">
        <ele>756</ele>
        <time>2021-08-23T16:23:14Z</time>
      </trkpt>
      <trkpt lat="45.57833" lon="4.5638">
        <ele>753</ele>
        <time>2021-08-23T16:23:52Z</time>
      </trkpt>
      <trkpt lat="45.57841" lon="4.56436">
        <ele>753</ele>
        <time>2021-08-23T16:24:12Z</time>
      </trkpt>
      <trkpt lat="45.57854" lon="4.56498">
        <ele>751</ele>
        <time>2021-08-23T16:24:35Z</time>
      </trkpt>
      <trkpt lat="45.57873" lon="4.56547">
        <ele>752</ele>
        <time>2021-08-23T16:24:55Z</time>
      </trkpt>
      <trkpt lat="45.57907" lon="4.56594">
        <ele>756</ele>
        <time>2021-08-23T16:25:18Z</time>
      </trkpt>
      <trkpt lat="45.57969" lon="4.56666">
        <ele>748</ele>
        <time>2021-08-23T16:25:58Z</time>
      </trkpt>
      <trkpt lat="45.57982" lon="4.56687">
        <ele>744</ele>
        <time>2021-08-23T16:26:08Z</time>
      </trkpt>
      <trkpt lat="45.57951" lon="4.56685">
        <ele>739</ele>
        <time>2021-08-23T16:26:24Z</time>
      </trkpt>
      <trkpt lat="45.58065" lon="4.56784">
        <ele>726</ele>
        <time>2021-08-23T16:27:30Z</time>
      </trkpt>
      <trkpt lat="45.58092" lon="4.56794">
        <ele>728</ele>
        <time>2021-08-23T16:27:44Z</time>
      </trkpt>
      <trkpt lat="45.58207" lon="4.56986">
        <ele>723</ele>
        <time>2021-08-23T16:29:13Z</time>
      </trkpt>
      <trkpt lat="45.58234" lon="4.57019">
        <ele>726</ele>
        <time>2021-08-23T16:29:31Z</time>
      </trkpt>
      <trkpt lat="45.58244" lon="4.57026">
        <ele>728</ele>
        <time>2021-08-23T16:29:36Z</time>
      </trkpt>
      <trkpt lat="45.58255" lon="4.57039">
        <ele>729</ele>
        <time>2021-08-23T16:29:43Z</time>
      </trkpt>
      <trkpt lat="45.58296" lon="4.57089">
        <ele>728</ele>
        <time>2021-08-23T16:30:10Z</time>
      </trkpt>
      <trkpt lat="45.58326" lon="4.57131">
        <ele>722</ele>
        <time>2021-08-23T16:30:31Z</time>
      </trkpt>
      <trkpt lat="45.58349" lon="4.57149">
        <ele>723</ele>
        <time>2021-08-23T16:30:44Z</time>
      </trkpt>
      <trkpt lat="45.58374" lon="4.57155">
        <ele>731</ele>
        <time>2021-08-23T16:30:57Z</time>
      </trkpt>
      <trkpt lat="45.58436" lon="4.57199">
        <ele>744</ele>
        <time>2021-08-23T16:31:32Z</time>
      </trkpt>
      <trkpt lat="45.58485" lon="4.57253">
        <ele>751</ele>
        <time>2021-08-23T16:32:03Z</time>
      </trkpt>
      <trkpt lat="45.58553" lon="4.57294">
        <ele>767</ele>
        <time>2021-08-23T16:32:40Z</time>
      </trkpt>
      <trkpt lat="45.58573" lon="4.57322">
        <ele>770</ele>
        <time>2021-08-23T16:32:54Z</time>
      </trkpt>
      <trkpt lat="45.58591" lon="4.57366">
        <ele>773</ele>
        <time>2021-08-23T16:33:11Z</time>
      </trkpt>
      <trkpt lat="45.58623" lon="4.57476">
        <ele>778</ele>
        <time>2021-08-23T16:33:53Z</time>
      </trkpt>
      <trkpt lat="45.58647" lon="4.57509">
        <ele>786</ele>
        <time>2021-08-23T16:34:10Z</time>
      </trkpt>
      <trkpt lat="45.58677" lon="4.57542">
        <ele>792</ele>
        <time>2021-08-23T16:34:29Z</time>
      </trkpt>
      <trkpt lat="45.58686" lon="4.57548">
        <ele>792</ele>
        <time>2021-08-23T16:34:34Z</time>
      </trkpt>
      <trkpt lat="45.58698" lon="4.57552">
        <ele>792</ele>
        <time>2021-08-23T16:34:40Z</time>
      </trkpt>
      <trkpt lat="45.58718" lon="4.57539">
        <ele>793</ele>
        <time>2021-08-23T16:34:51Z</time>
      </trkpt>
      <trkpt lat="45.58731" lon="4.57525">
        <ele>794</ele>
        <time>2021-08-23T16:34:59Z</time>
      </trkpt>
      <trkpt lat="45.58719" lon="4.57524">
        <ele>794</ele>
        <time>2021-08-23T16:35:05Z</time>
      </trkpt>
      <trkpt lat="45.58716" lon="4.57516">
        <ele>795</ele>
        <time>2021-08-23T16:35:08Z</time>
      </trkpt>
      <trkpt lat="45.5871" lon="4.57461">
        <ele>798</ele>
        <time>2021-08-23T16:35:28Z</time>
      </trkpt>
      <trkpt lat="45.58711" lon="4.57448">
        <ele>799</ele>
        <time>2021-08-23T16:35:32Z</time>
      </trkpt>
      <trkpt lat="45.58714" lon="4.57436">
        <ele>800</ele>
        <time>2021-08-23T16:35:37Z</time>
      </trkpt>
      <trkpt lat="45.58724" lon="4.57418">
        <ele>801</ele>
        <time>2021-08-23T16:35:45Z</time>
      </trkpt>
      <trkpt lat="45.58733" lon="4.57349">
        <ele>807</ele>
        <time>2021-08-23T16:36:09Z</time>
      </trkpt>
      <trkpt lat="45.58743" lon="4.57323">
        <ele>810</ele>
        <time>2021-08-23T16:36:20Z</time>
      </trkpt>
      <trkpt lat="45.58752" lon="4.57308">
        <ele>811</ele>
        <time>2021-08-23T16:36:27Z</time>
      </trkpt>
      <trkpt lat="45.58784" lon="4.57276">
        <ele>809</ele>
        <time>2021-08-23T16:36:46Z</time>
      </trkpt>
      <trkpt lat="45.58833" lon="4.57262">
        <ele>805</ele>
        <time>2021-08-23T16:37:11Z</time>
      </trkpt>
      <trkpt lat="45.58875" lon="4.57274">
        <ele>799</ele>
        <time>2021-08-23T16:37:33Z</time>
      </trkpt>
      <trkpt lat="45.58898" lon="4.5727">
        <ele>796</ele>
        <time>2021-08-23T16:37:44Z</time>
      </trkpt>
      <trkpt lat="45.58954" lon="4.57279">
        <ele>788</ele>
        <time>2021-08-23T16:38:13Z</time>
      </trkpt>
      <trkpt lat="45.59003" lon="4.57247">
        <ele>780</ele>
        <time>2021-08-23T16:38:40Z</time>
      </trkpt>
      <trkpt lat="45.59029" lon="4.57234">
        <ele>776</ele>
        <time>2021-08-23T16:38:53Z</time>
      </trkpt>
      <trkpt lat="45.59059" lon="4.57214">
        <ele>772</ele>
        <time>2021-08-23T16:39:10Z</time>
      </trkpt>
      <trkpt lat="45.5908" lon="4.57203">
        <ele>769</ele>
        <time>2021-08-23T16:39:21Z</time>
      </trkpt>
      <trkpt lat="45.59122" lon="4.57167">
        <ele>761</ele>
        <time>2021-08-23T16:39:46Z</time>
      </trkpt>
      <trkpt lat="45.59137" lon="4.57163">
        <ele>758</ele>
        <time>2021-08-23T16:39:53Z</time>
      </trkpt>
      <trkpt lat="45.59148" lon="4.57168">
        <ele>756</ele>
        <time>2021-08-23T16:39:59Z</time>
      </trkpt>
      <trkpt lat="45.59162" lon="4.57185">
        <ele>754</ele>
        <time>2021-08-23T16:40:08Z</time>
      </trkpt>
      <trkpt lat="45.59172" lon="4.57206">
        <ele>755</ele>
        <time>2021-08-23T16:40:17Z</time>
      </trkpt>
      <trkpt lat="45.59183" lon="4.57208">
        <ele>754</ele>
        <time>2021-08-23T16:40:23Z</time>
      </trkpt>
      <trkpt lat="45.59269" lon="4.57165">
        <ele>744</ele>
        <time>2021-08-23T16:41:08Z</time>
      </trkpt>
      <trkpt lat="45.59276" lon="4.57162">
        <ele>742</ele>
        <time>2021-08-23T16:41:12Z</time>
      </trkpt>
      <trkpt lat="45.59284" lon="4.57163">
        <ele>741</ele>
        <time>2021-08-23T16:41:16Z</time>
      </trkpt>
      <trkpt lat="45.593" lon="4.57155">
        <ele>738</ele>
        <time>2021-08-23T16:41:24Z</time>
      </trkpt>
      <trkpt lat="45.59313" lon="4.57125">
        <ele>736</ele>
        <time>2021-08-23T16:41:37Z</time>
      </trkpt>
      <trkpt lat="45.59327" lon="4.57081">
        <ele>734</ele>
        <time>2021-08-23T16:41:54Z</time>
      </trkpt>
      <trkpt lat="45.59347" lon="4.57036">
        <ele>729</ele>
        <time>2021-08-23T16:42:12Z</time>
      </trkpt>
      <trkpt lat="45.59366" lon="4.56985">
        <ele>724</ele>
        <time>2021-08-23T16:42:33Z</time>
      </trkpt>
      <trkpt lat="45.59392" lon="4.56903">
        <ele>721</ele>
        <time>2021-08-23T16:43:04Z</time>
      </trkpt>
      <trkpt lat="45.59402" lon="4.56889">
        <ele>719</ele>
        <time>2021-08-23T16:43:11Z</time>
      </trkpt>
      <trkpt lat="45.59412" lon="4.56883">
        <ele>718</ele>
        <time>2021-08-23T16:43:17Z</time>
      </trkpt>
      <trkpt lat="45.59421" lon="4.56883">
        <ele>718</ele>
        <time>2021-08-23T16:43:21Z</time>
      </trkpt>
      <trkpt lat="45.59432" lon="4.56888">
        <ele>717</ele>
        <time>2021-08-23T16:43:27Z</time>
      </trkpt>
      <trkpt lat="45.59439" lon="4.56896">
        <ele>716</ele>
        <time>2021-08-23T16:43:31Z</time>
      </trkpt>
      <trkpt lat="45.59442" lon="4.5691">
        <ele>717</ele>
        <time>2021-08-23T16:43:36Z</time>
      </trkpt>
      <trkpt lat="45.59478" lon="4.56892">
        <ele>710</ele>
        <time>2021-08-23T16:43:55Z</time>
      </trkpt>
      <trkpt lat="45.595" lon="4.56869">
        <ele>706</ele>
        <time>2021-08-23T16:44:09Z</time>
      </trkpt>
      <trkpt lat="45.59531" lon="4.56811">
        <ele>698</ele>
        <time>2021-08-23T16:44:35Z</time>
      </trkpt>
      <trkpt lat="45.59547" lon="4.56787">
        <ele>695</ele>
        <time>2021-08-23T16:44:46Z</time>
      </trkpt>
      <trkpt lat="45.59526" lon="4.56756">
        <ele>696</ele>
        <time>2021-08-23T16:45:01Z</time>
      </trkpt>
      <trkpt lat="45.59569" lon="4.5672">
        <ele>693</ele>
        <time>2021-08-23T16:45:26Z</time>
      </trkpt>
      <trkpt lat="45.59581" lon="4.56729">
        <ele>692</ele>
        <time>2021-08-23T16:45:33Z</time>
      </trkpt>
      <trkpt lat="45.59585" lon="4.56831">
        <ele>692</ele>
        <time>2021-08-23T16:46:09Z</time>
      </trkpt>
      <trkpt lat="45.59579" lon="4.56836">
        <ele>693</ele>
        <time>2021-08-23T16:46:12Z</time>
      </trkpt>
      <trkpt lat="45.59586" lon="4.56859">
        <ele>692</ele>
        <time>2021-08-23T16:46:21Z</time>
      </trkpt>
      <trkpt lat="45.59585" lon="4.56853">
        <ele>692</ele>
        <time>2021-08-23T16:46:23Z</time>
      </trkpt>
      <trkpt lat="45.59594" lon="4.56846">
        <ele>692</ele>
        <time>2021-08-23T16:46:28Z</time>
      </trkpt>
      <trkpt lat="45.596" lon="4.56867">
        <ele>692</ele>
        <time>2021-08-23T16:46:36Z</time>
      </trkpt>
      <trkpt lat="45.59608" lon="4.56946">
        <ele>693</ele>
        <time>2021-08-23T16:47:04Z</time>
      </trkpt>
      <trkpt lat="45.59626" lon="4.57012">
        <ele>693</ele>
        <time>2021-08-23T16:47:29Z</time>
      </trkpt>
      <trkpt lat="45.59622" lon="4.5702">
        <ele>694</ele>
        <time>2021-08-23T16:47:33Z</time>
      </trkpt>
      <trkpt lat="45.59642" lon="4.57044">
        <ele>694</ele>
        <time>2021-08-23T16:47:46Z</time>
      </trkpt>
      <trkpt lat="45.59699" lon="4.57093">
        <ele>693</ele>
        <time>2021-08-23T16:48:19Z</time>
      </trkpt>
      <trkpt lat="45.59702" lon="4.57103">
        <ele>693</ele>
        <time>2021-08-23T16:48:23Z</time>
      </trkpt>
      <trkpt lat="45.59714" lon="4.57106">
        <ele>693</ele>
        <time>2021-08-23T16:48:29Z</time>
      </trkpt>
      <trkpt lat="45.59776" lon="4.57117">
        <ele>692</ele>
        <time>2021-08-23T16:49:00Z</time>
      </trkpt>
      <trkpt lat="45.59793" lon="4.57118">
        <ele>691</ele>
        <time>2021-08-23T16:49:09Z</time>
      </trkpt>
      <trkpt lat="45.59816" lon="4.57103">
        <ele>693</ele>
        <time>2021-08-23T16:49:21Z</time>
      </trkpt>
      <trkpt lat="45.5986" lon="4.5708">
        <ele>695</ele>
        <time>2021-08-23T16:49:45Z</time>
      </trkpt>
      <trkpt lat="45.59875" lon="4.57079">
        <ele>696</ele>
        <time>2021-08-23T16:49:52Z</time>
      </trkpt>
      <trkpt lat="45.5989" lon="4.57087">
        <ele>695</ele>
        <time>2021-08-23T16:50:00Z</time>
      </trkpt>
      <trkpt lat="45.59931" lon="4.571">
        <ele>696</ele>
        <time>2021-08-23T16:50:21Z</time>
      </trkpt>
      <trkpt lat="45.5994" lon="4.57111">
        <ele>696</ele>
        <time>2021-08-23T16:50:27Z</time>
      </trkpt>
      <trkpt lat="45.5996" lon="4.57184">
        <ele>693</ele>
        <time>2021-08-23T16:50:55Z</time>
      </trkpt>
      <trkpt lat="45.59968" lon="4.57228">
        <ele>692</ele>
        <time>2021-08-23T16:51:11Z</time>
      </trkpt>
      <trkpt lat="45.59971" lon="4.57312">
        <ele>687</ele>
        <time>2021-08-23T16:51:40Z</time>
      </trkpt>
      <trkpt lat="45.60004" lon="4.57424">
        <ele>694</ele>
        <time>2021-08-23T16:52:23Z</time>
      </trkpt>
      <trkpt lat="45.60013" lon="4.5752">
        <ele>690</ele>
        <time>2021-08-23T16:52:56Z</time>
      </trkpt>
      <trkpt lat="45.60019" lon="4.57544">
        <ele>689</ele>
        <time>2021-08-23T16:53:05Z</time>
      </trkpt>
      <trkpt lat="45.6003" lon="4.57577">
        <ele>689</ele>
        <time>2021-08-23T16:53:18Z</time>
      </trkpt>
      <trkpt lat="45.60062" lon="4.57641">
        <ele>690</ele>
        <time>2021-08-23T16:53:46Z</time>
      </trkpt>
      <trkpt lat="45.60088" lon="4.57687">
        <ele>692</ele>
        <time>2021-08-23T16:54:06Z</time>
      </trkpt>
      <trkpt lat="45.60103" lon="4.57743">
        <ele>689</ele>
        <time>2021-08-23T16:54:27Z</time>
      </trkpt>
      <trkpt lat="45.60099" lon="4.57793">
        <ele>689</ele>
        <time>2021-08-23T16:54:45Z</time>
      </trkpt>
      <trkpt lat="45.6008" lon="4.57816">
        <ele>683</ele>
        <time>2021-08-23T16:54:58Z</time>
      </trkpt>
      <trkpt lat="45.60063" lon="4.57853">
        <ele>681</ele>
        <time>2021-08-23T16:55:13Z</time>
      </trkpt>
      <trkpt lat="45.60062" lon="4.57886">
        <ele>686</ele>
        <time>2021-08-23T16:55:25Z</time>
      </trkpt>
      <trkpt lat="45.60064" lon="4.57933">
        <ele>692</ele>
        <time>2021-08-23T16:55:41Z</time>
      </trkpt>
      <trkpt lat="45.60076" lon="4.57958">
        <ele>699</ele>
        <time>2021-08-23T16:55:52Z</time>
      </trkpt>
      <trkpt lat="45.60081" lon="4.5804">
        <ele>702</ele>
        <time>2021-08-23T16:56:20Z</time>
      </trkpt>
      <trkpt lat="45.6008" lon="4.5806">
        <ele>701</ele>
        <time>2021-08-23T16:56:28Z</time>
      </trkpt>
      <trkpt lat="45.60085" lon="4.58073">
        <ele>703</ele>
        <time>2021-08-23T16:56:33Z</time>
      </trkpt>
      <trkpt lat="45.6009" lon="4.58172">
        <ele>706</ele>
        <time>2021-08-23T16:57:07Z</time>
      </trkpt>
      <trkpt lat="45.60103" lon="4.58238">
        <ele>710</ele>
        <time>2021-08-23T16:57:31Z</time>
      </trkpt>
      <trkpt lat="45.60114" lon="4.58313">
        <ele>710</ele>
        <time>2021-08-23T16:57:58Z</time>
      </trkpt>
      <trkpt lat="45.60119" lon="4.58303">
        <ele>713</ele>
        <time>2021-08-23T16:58:03Z</time>
      </trkpt>
      <trkpt lat="45.60137" lon="4.58203">
        <ele>723</ele>
        <time>2021-08-23T16:58:39Z</time>
      </trkpt>
      <trkpt lat="45.60163" lon="4.58017">
        <ele>737</ele>
        <time>2021-08-23T16:59:45Z</time>
      </trkpt>
      <trkpt lat="45.6017" lon="4.57995">
        <ele>740</ele>
        <time>2021-08-23T16:59:54Z</time>
      </trkpt>
      <trkpt lat="45.6018" lon="4.57987">
        <ele>741</ele>
        <time>2021-08-23T16:59:59Z</time>
      </trkpt>
      <trkpt lat="45.60207" lon="4.57975">
        <ele>745</ele>
        <time>2021-08-23T17:00:14Z</time>
      </trkpt>
      <trkpt lat="45.60222" lon="4.5795">
        <ele>747</ele>
        <time>2021-08-23T17:00:25Z</time>
      </trkpt>
      <trkpt lat="45.60231" lon="4.57925">
        <ele>748</ele>
        <time>2021-08-23T17:00:35Z</time>
      </trkpt>
      <trkpt lat="45.60244" lon="4.57831">
        <ele>749</ele>
        <time>2021-08-23T17:01:08Z</time>
      </trkpt>
      <trkpt lat="45.6024" lon="4.57787">
        <ele>749</ele>
        <time>2021-08-23T17:01:24Z</time>
      </trkpt>
      <trkpt lat="45.60245" lon="4.57772">
        <ele>752</ele>
        <time>2021-08-23T17:01:30Z</time>
      </trkpt>
      <trkpt lat="45.60251" lon="4.57816">
        <ele>752</ele>
        <time>2021-08-23T17:01:45Z</time>
      </trkpt>
      <trkpt lat="45.60283" lon="4.57889">
        <ele>757</ele>
        <time>2021-08-23T17:02:16Z</time>
      </trkpt>
      <trkpt lat="45.60295" lon="4.57924">
        <ele>759</ele>
        <time>2021-08-23T17:02:29Z</time>
      </trkpt>
      <trkpt lat="45.60312" lon="4.57999">
        <ele>761</ele>
        <time>2021-08-23T17:02:57Z</time>
      </trkpt>
      <trkpt lat="45.60354" lon="4.58128">
        <ele>765</ele>
        <time>2021-08-23T17:03:47Z</time>
      </trkpt>
      <trkpt lat="45.60361" lon="4.58162">
        <ele>765</ele>
        <time>2021-08-23T17:03:59Z</time>
      </trkpt>
      <trkpt lat="45.60361" lon="4.58172">
        <ele>765</ele>
        <time>2021-08-23T17:04:03Z</time>
      </trkpt>
      <trkpt lat="45.60374" lon="4.58217">
        <ele>765</ele>
        <time>2021-08-23T17:04:20Z</time>
      </trkpt>
      <trkpt lat="45.60385" lon="4.58278">
        <ele>764</ele>
        <time>2021-08-23T17:04:42Z</time>
      </trkpt>
      <trkpt lat="45.60418" lon="4.58345">
        <ele>767</ele>
        <time>2021-08-23T17:05:10Z</time>
      </trkpt>
      <trkpt lat="45.60422" lon="4.58368">
        <ele>766</ele>
        <time>2021-08-23T17:05:19Z</time>
      </trkpt>
      <trkpt lat="45.60464" lon="4.58452">
        <ele>770</ele>
        <time>2021-08-23T17:05:55Z</time>
      </trkpt>
      <trkpt lat="45.60524" lon="4.58648">
        <ele>773</ele>
        <time>2021-08-23T17:07:10Z</time>
      </trkpt>
      <trkpt lat="45.60541" lon="4.5868">
        <ele>774</ele>
        <time>2021-08-23T17:07:24Z</time>
      </trkpt>
      <trkpt lat="45.60622" lon="4.58752">
        <ele>779</ele>
        <time>2021-08-23T17:08:12Z</time>
      </trkpt>
      <trkpt lat="45.60647" lon="4.58777">
        <ele>779</ele>
        <time>2021-08-23T17:08:27Z</time>
      </trkpt>
      <trkpt lat="45.60699" lon="4.58904">
        <ele>771</ele>
        <time>2021-08-23T17:09:18Z</time>
      </trkpt>
      <trkpt lat="45.60749" lon="4.58959">
        <ele>767</ele>
        <time>2021-08-23T17:09:50Z</time>
      </trkpt>
      <trkpt lat="45.60776" lon="4.58983">
        <ele>765</ele>
        <time>2021-08-23T17:10:06Z</time>
      </trkpt>
      <trkpt lat="45.60787" lon="4.58991">
        <ele>765</ele>
        <time>2021-08-23T17:10:12Z</time>
      </trkpt>
      <trkpt lat="45.60809" lon="4.58995">
        <ele>765</ele>
        <time>2021-08-23T17:10:23Z</time>
      </trkpt>
      <trkpt lat="45.60829" lon="4.59002">
        <ele>766</ele>
        <time>2021-08-23T17:10:33Z</time>
      </trkpt>
      <trkpt lat="45.60854" lon="4.59032">
        <ele>769</ele>
        <time>2021-08-23T17:10:50Z</time>
      </trkpt>
      <trkpt lat="45.6088" lon="4.59023">
        <ele>771</ele>
        <time>2021-08-23T17:11:03Z</time>
      </trkpt>
      <trkpt lat="45.60953" lon="4.59042">
        <ele>779</ele>
        <time>2021-08-23T17:11:40Z</time>
      </trkpt>
      <trkpt lat="45.61033" lon="4.59055">
        <ele>789</ele>
        <time>2021-08-23T17:12:21Z</time>
      </trkpt>
      <trkpt lat="45.61047" lon="4.59063">
        <ele>791</ele>
        <time>2021-08-23T17:12:28Z</time>
      </trkpt>
      <trkpt lat="45.6109" lon="4.59105">
        <ele>796</ele>
        <time>2021-08-23T17:12:54Z</time>
      </trkpt>
      <trkpt lat="45.61122" lon="4.59122">
        <ele>803</ele>
        <time>2021-08-23T17:13:11Z</time>
      </trkpt>
      <trkpt lat="45.61146" lon="4.59145">
        <ele>809</ele>
        <time>2021-08-23T17:13:26Z</time>
      </trkpt>
      <trkpt lat="45.61168" lon="4.59169">
        <ele>814</ele>
        <time>2021-08-23T17:13:40Z</time>
      </trkpt>
      <trkpt lat="45.61198" lon="4.59208">
        <ele>819</ele>
        <time>2021-08-23T17:14:00Z</time>
      </trkpt>
      <trkpt lat="45.6123" lon="4.59241">
        <ele>825</ele>
        <time>2021-08-23T17:14:20Z</time>
      </trkpt>
      <trkpt lat="45.61246" lon="4.59246">
        <ele>828</ele>
        <time>2021-08-23T17:14:28Z</time>
      </trkpt>
      <trkpt lat="45.61262" lon="4.59247">
        <ele>831</ele>
        <time>2021-08-23T17:14:36Z</time>
      </trkpt>
      <trkpt lat="45.61386" lon="4.59293">
        <ele>842</ele>
        <time>2021-08-23T17:15:40Z</time>
      </trkpt>
      <trkpt lat="45.61433" lon="4.59307">
        <ele>845</ele>
        <time>2021-08-23T17:16:04Z</time>
      </trkpt>
      <trkpt lat="45.61534" lon="4.59317">
        <ele>853</ele>
        <time>2021-08-23T17:16:55Z</time>
      </trkpt>
      <trkpt lat="45.61581" lon="4.59327">
        <ele>857</ele>
        <time>2021-08-23T17:17:18Z</time>
      </trkpt>
      <trkpt lat="45.61679" lon="4.59336">
        <ele>858</ele>
        <time>2021-08-23T17:18:07Z</time>
      </trkpt>
      <trkpt lat="45.61749" lon="4.59353">
        <ele>857</ele>
        <time>2021-08-23T17:18:43Z</time>
      </trkpt>
      <trkpt lat="45.61811" lon="4.59361">
        <ele>858</ele>
        <time>2021-08-23T17:19:14Z</time>
      </trkpt>
      <trkpt lat="45.61885" lon="4.59352">
        <ele>862</ele>
        <time>2021-08-23T17:19:51Z</time>
      </trkpt>
      <trkpt lat="45.61898" lon="4.5934">
        <ele>862</ele>
        <time>2021-08-23T17:19:59Z</time>
      </trkpt>
      <trkpt lat="45.61936" lon="4.5928">
        <ele>862</ele>
        <time>2021-08-23T17:20:27Z</time>
      </trkpt>
      <trkpt lat="45.61983" lon="4.59235">
        <ele>863</ele>
        <time>2021-08-23T17:20:56Z</time>
      </trkpt>
      <trkpt lat="45.62037" lon="4.59109">
        <ele>860</ele>
        <time>2021-08-23T17:21:47Z</time>
      </trkpt>
      <trkpt lat="45.62055" lon="4.59046">
        <ele>857</ele>
        <time>2021-08-23T17:22:11Z</time>
      </trkpt>
      <trkpt lat="45.62069" lon="4.59007">
        <ele>855</ele>
        <time>2021-08-23T17:22:27Z</time>
      </trkpt>
      <trkpt lat="45.62134" lon="4.58903">
        <ele>845</ele>
        <time>2021-08-23T17:23:15Z</time>
      </trkpt>
      <trkpt lat="45.6219" lon="4.58824">
        <ele>841</ele>
        <time>2021-08-23T17:23:55Z</time>
      </trkpt>
      <trkpt lat="45.62207" lon="4.58786">
        <ele>842</ele>
        <time>2021-08-23T17:24:11Z</time>
      </trkpt>
      <trkpt lat="45.62215" lon="4.5879">
        <ele>842</ele>
        <time>2021-08-23T17:24:15Z</time>
      </trkpt>
      <trkpt lat="45.62228" lon="4.58791">
        <ele>842</ele>
        <time>2021-08-23T17:24:21Z</time>
      </trkpt>
      <trkpt lat="45.62251" lon="4.58799">
        <ele>841</ele>
        <time>2021-08-23T17:24:33Z</time>
      </trkpt>
      <trkpt lat="45.62271" lon="4.58808">
        <ele>838</ele>
        <time>2021-08-23T17:24:44Z</time>
      </trkpt>
      <trkpt lat="45.62285" lon="4.58819">
        <ele>835</ele>
        <time>2021-08-23T17:24:52Z</time>
      </trkpt>
      <trkpt lat="45.62307" lon="4.5883">
        <ele>831</ele>
        <time>2021-08-23T17:25:03Z</time>
      </trkpt>
      <trkpt lat="45.62343" lon="4.58819">
        <ele>827</ele>
        <time>2021-08-23T17:25:22Z</time>
      </trkpt>
      <trkpt lat="45.62402" lon="4.58778">
        <ele>818</ele>
        <time>2021-08-23T17:25:55Z</time>
      </trkpt>
      <trkpt lat="45.62423" lon="4.58758">
        <ele>816</ele>
        <time>2021-08-23T17:26:07Z</time>
      </trkpt>
      <trkpt lat="45.6249" lon="4.58667">
        <ele>809</ele>
        <time>2021-08-23T17:26:53Z</time>
      </trkpt>
      <trkpt lat="45.62504" lon="4.58652">
        <ele>807</ele>
        <time>2021-08-23T17:27:02Z</time>
      </trkpt>
      <trkpt lat="45.62519" lon="4.58621">
        <ele>804</ele>
        <time>2021-08-23T17:27:15Z</time>
      </trkpt>
      <trkpt lat="45.62535" lon="4.58566">
        <ele>803</ele>
        <time>2021-08-23T17:27:36Z</time>
      </trkpt>
      <trkpt lat="45.62559" lon="4.58503">
        <ele>800</ele>
        <time>2021-08-23T17:28:01Z</time>
      </trkpt>
      <trkpt lat="45.62572" lon="4.58478">
        <ele>797</ele>
        <time>2021-08-23T17:28:12Z</time>
      </trkpt>
      <trkpt lat="45.62615" lon="4.58436">
        <ele>789</ele>
        <time>2021-08-23T17:28:38Z</time>
      </trkpt>
      <trkpt lat="45.62657" lon="4.58366">
        <ele>782</ele>
        <time>2021-08-23T17:29:11Z</time>
      </trkpt>
      <trkpt lat="45.6268" lon="4.58335">
        <ele>777</ele>
        <time>2021-08-23T17:29:26Z</time>
      </trkpt>
      <trkpt lat="45.62727" lon="4.58292">
        <ele>764</ele>
        <time>2021-08-23T17:29:54Z</time>
      </trkpt>
      <trkpt lat="45.62751" lon="4.58266">
        <ele>758</ele>
        <time>2021-08-23T17:30:09Z</time>
      </trkpt>
      <trkpt lat="45.62755" lon="4.58256">
        <ele>757</ele>
        <time>2021-08-23T17:30:13Z</time>
      </trkpt>
      <trkpt lat="45.628" lon="4.58264">
        <ele>751</ele>
        <time>2021-08-23T17:30:36Z</time>
      </trkpt>
      <trkpt lat="45.62815" lon="4.58263">
        <ele>749</ele>
        <time>2021-08-23T17:30:44Z</time>
      </trkpt>
      <trkpt lat="45.62865" lon="4.58287">
        <ele>749</ele>
        <time>2021-08-23T17:31:10Z</time>
      </trkpt>
      <trkpt lat="45.62877" lon="4.58284">
        <ele>749</ele>
        <time>2021-08-23T17:31:16Z</time>
      </trkpt>
      <trkpt lat="45.629" lon="4.58264">
        <ele>750</ele>
        <time>2021-08-23T17:31:30Z</time>
      </trkpt>
      <trkpt lat="45.62916" lon="4.58213">
        <ele>751</ele>
        <time>2021-08-23T17:31:49Z</time>
      </trkpt>
      <trkpt lat="45.62916" lon="4.58193">
        <ele>751</ele>
        <time>2021-08-23T17:31:56Z</time>
      </trkpt>
      <trkpt lat="45.62906" lon="4.58129">
        <ele>752</ele>
        <time>2021-08-23T17:32:19Z</time>
      </trkpt>
      <trkpt lat="45.62896" lon="4.57929">
        <ele>758</ele>
        <time>2021-08-23T17:33:29Z</time>
      </trkpt>
      <trkpt lat="45.62909" lon="4.57816">
        <ele>762</ele>
        <time>2021-08-23T17:34:09Z</time>
      </trkpt>
      <trkpt lat="45.62918" lon="4.57779">
        <ele>762</ele>
        <time>2021-08-23T17:34:23Z</time>
      </trkpt>
      <trkpt lat="45.62951" lon="4.57725">
        <ele>764</ele>
        <time>2021-08-23T17:34:48Z</time>
      </trkpt>
      <trkpt lat="45.63021" lon="4.57647">
        <ele>763</ele>
        <time>2021-08-23T17:35:33Z</time>
      </trkpt>
      <trkpt lat="45.63073" lon="4.57579">
        <ele>762</ele>
        <time>2021-08-23T17:36:08Z</time>
      </trkpt>
      <trkpt lat="45.63098" lon="4.57556">
        <ele>763</ele>
        <time>2021-08-23T17:36:23Z</time>
      </trkpt>
      <trkpt lat="45.63116" lon="4.57566">
        <ele>764</ele>
        <time>2021-08-23T17:36:32Z</time>
      </trkpt>
      <trkpt lat="45.63137" lon="4.57569">
        <ele>765</ele>
        <time>2021-08-23T17:36:43Z</time>
      </trkpt>
      <trkpt lat="45.63141" lon="4.57577">
        <ele>766</ele>
        <time>2021-08-23T17:36:46Z</time>
      </trkpt>
      <trkpt lat="45.63149" lon="4.57624">
        <ele>769</ele>
        <time>2021-08-23T17:37:03Z</time>
      </trkpt>
      <trkpt lat="45.63152" lon="4.57684">
        <ele>772</ele>
        <time>2021-08-23T17:37:24Z</time>
      </trkpt>
      <trkpt lat="45.63194" lon="4.57855">
        <ele>790</ele>
        <time>2021-08-23T17:38:28Z</time>
      </trkpt>
      <trkpt lat="45.63255" lon="4.58034">
        <ele>809</ele>
        <time>2021-08-23T17:39:37Z</time>
      </trkpt>
      <trkpt lat="45.63292" lon="4.5808">
        <ele>818</ele>
        <time>2021-08-23T17:40:02Z</time>
      </trkpt>
      <trkpt lat="45.63313" lon="4.58118">
        <ele>823</ele>
        <time>2021-08-23T17:40:19Z</time>
      </trkpt>
      <trkpt lat="45.6333" lon="4.58141">
        <ele>828</ele>
        <time>2021-08-23T17:40:31Z</time>
      </trkpt>
      <trkpt lat="45.63342" lon="4.58148">
        <ele>829</ele>
        <time>2021-08-23T17:40:37Z</time>
      </trkpt>
      <trkpt lat="45.63358" lon="4.58166">
        <ele>832</ele>
        <time>2021-08-23T17:40:47Z</time>
      </trkpt>
      <trkpt lat="45.63374" lon="4.58195">
        <ele>834</ele>
        <time>2021-08-23T17:41:00Z</time>
      </trkpt>
      <trkpt lat="45.63383" lon="4.58222">
        <ele>835</ele>
        <time>2021-08-23T17:41:11Z</time>
      </trkpt>
      <trkpt lat="45.63415" lon="4.58229">
        <ele>838</ele>
        <time>2021-08-23T17:41:27Z</time>
      </trkpt>
      <trkpt lat="45.63481" lon="4.58276">
        <ele>842</ele>
        <time>2021-08-23T17:42:04Z</time>
      </trkpt>
      <trkpt lat="45.63508" lon="4.58306">
        <ele>844</ele>
        <time>2021-08-23T17:42:21Z</time>
      </trkpt>
      <trkpt lat="45.63536" lon="4.58352">
        <ele>848</ele>
        <time>2021-08-23T17:42:42Z</time>
      </trkpt>
      <trkpt lat="45.63567" lon="4.58392">
        <ele>852</ele>
        <time>2021-08-23T17:43:03Z</time>
      </trkpt>
      <trkpt lat="45.63598" lon="4.58421">
        <ele>856</ele>
        <time>2021-08-23T17:43:22Z</time>
      </trkpt>
      <trkpt lat="45.63646" lon="4.58457">
        <ele>861</ele>
        <time>2021-08-23T17:43:49Z</time>
      </trkpt>
      <trkpt lat="45.63628" lon="4.58465">
        <ele>861</ele>
        <time>2021-08-23T17:43:58Z</time>
      </trkpt>
      <trkpt lat="45.63629" lon="4.58477">
        <ele>862</ele>
        <time>2021-08-23T17:44:02Z</time>
      </trkpt>
      <trkpt lat="45.63613" lon="4.58506">
        <ele>864</ele>
        <time>2021-08-23T17:44:15Z</time>
      </trkpt>
      <trkpt lat="45.63611" lon="4.5852">
        <ele>865</ele>
        <time>2021-08-23T17:44:20Z</time>
      </trkpt>
      <trkpt lat="45.63613" lon="4.58551">
        <ele>868</ele>
        <time>2021-08-23T17:44:31Z</time>
      </trkpt>
      <trkpt lat="45.63611" lon="4.58565">
        <ele>869</ele>
        <time>2021-08-23T17:44:36Z</time>
      </trkpt>
      <trkpt lat="45.63592" lon="4.5863">
        <ele>874</ele>
        <time>2021-08-23T17:45:01Z</time>
      </trkpt>
      <trkpt lat="45.63593" lon="4.58649">
        <ele>876</ele>
        <time>2021-08-23T17:45:08Z</time>
      </trkpt>
      <trkpt lat="45.63598" lon="4.58668">
        <ele>879</ele>
        <time>2021-08-23T17:45:15Z</time>
      </trkpt>
      <trkpt lat="45.63611" lon="4.5869">
        <ele>881</ele>
        <time>2021-08-23T17:45:25Z</time>
      </trkpt>
      <trkpt lat="45.63619" lon="4.58696">
        <ele>882</ele>
        <time>2021-08-23T17:45:29Z</time>
      </trkpt>
      <trkpt lat="45.63638" lon="4.58702">
        <ele>884</ele>
        <time>2021-08-23T17:45:39Z</time>
      </trkpt>
      <trkpt lat="45.63713" lon="4.58712">
        <ele>891</ele>
        <time>2021-08-23T17:46:17Z</time>
      </trkpt>
      <trkpt lat="45.63735" lon="4.58718">
        <ele>893</ele>
        <time>2021-08-23T17:46:28Z</time>
      </trkpt>
      <trkpt lat="45.63756" lon="4.58717">
        <ele>894</ele>
        <time>2021-08-23T17:46:38Z</time>
      </trkpt>
      <trkpt lat="45.63769" lon="4.58709">
        <ele>894</ele>
        <time>2021-08-23T17:46:46Z</time>
      </trkpt>
      <trkpt lat="45.63782" lon="4.58696">
        <ele>894</ele>
        <time>2021-08-23T17:46:53Z</time>
      </trkpt>
      <trkpt lat="45.63792" lon="4.58692">
        <ele>894</ele>
        <time>2021-08-23T17:46:59Z</time>
      </trkpt>
      <trkpt lat="45.63867" lon="4.58739">
        <ele>896</ele>
        <time>2021-08-23T17:47:40Z</time>
      </trkpt>
      <trkpt lat="45.63882" lon="4.58745">
        <ele>895</ele>
        <time>2021-08-23T17:47:47Z</time>
      </trkpt>
      <trkpt lat="45.63916" lon="4.58787">
        <ele>894</ele>
        <time>2021-08-23T17:48:10Z</time>
      </trkpt>
      <trkpt lat="45.63936" lon="4.58801">
        <ele>892</ele>
        <time>2021-08-23T17:48:21Z</time>
      </trkpt>
      <trkpt lat="45.63952" lon="4.58809">
        <ele>891</ele>
        <time>2021-08-23T17:48:30Z</time>
      </trkpt>
      <trkpt lat="45.63967" lon="4.58811">
        <ele>890</ele>
        <time>2021-08-23T17:48:37Z</time>
      </trkpt>
      <trkpt lat="45.63983" lon="4.5881">
        <ele>889</ele>
        <time>2021-08-23T17:48:45Z</time>
      </trkpt>
      <trkpt lat="45.64015" lon="4.58802">
        <ele>885</ele>
        <time>2021-08-23T17:49:01Z</time>
      </trkpt>
      <trkpt lat="45.64082" lon="4.58802">
        <ele>872</ele>
        <time>2021-08-23T17:49:35Z</time>
      </trkpt>
      <trkpt lat="45.64073" lon="4.5883">
        <ele>876</ele>
        <time>2021-08-23T17:49:46Z</time>
      </trkpt>
      <trkpt lat="45.64047" lon="4.58884">
        <ele>882</ele>
        <time>2021-08-23T17:50:09Z</time>
      </trkpt>
      <trkpt lat="45.6405" lon="4.58911">
        <ele>883</ele>
        <time>2021-08-23T17:50:18Z</time>
      </trkpt>
      <trkpt lat="45.64046" lon="4.58995">
        <ele>887</ele>
        <time>2021-08-23T17:50:48Z</time>
      </trkpt>
      <trkpt lat="45.64028" lon="4.59035">
        <ele>891</ele>
        <time>2021-08-23T17:51:04Z</time>
      </trkpt>
      <trkpt lat="45.63993" lon="4.59101">
        <ele>901</ele>
        <time>2021-08-23T17:51:33Z</time>
      </trkpt>
      <trkpt lat="45.63945" lon="4.59147">
        <ele>911</ele>
        <time>2021-08-23T17:52:02Z</time>
      </trkpt>
      <trkpt lat="45.63954" lon="4.59197">
        <ele>912</ele>
        <time>2021-08-23T17:52:20Z</time>
      </trkpt>
      <trkpt lat="45.63978" lon="4.59298">
        <ele>916</ele>
        <time>2021-08-23T17:52:58Z</time>
      </trkpt>
      <trkpt lat="45.6397" lon="4.59358">
        <ele>921</ele>
        <time>2021-08-23T17:53:19Z</time>
      </trkpt>
      <trkpt lat="45.63952" lon="4.5941">
        <ele>924</ele>
        <time>2021-08-23T17:53:39Z</time>
      </trkpt>
      <trkpt lat="45.63925" lon="4.59399">
        <ele>926</ele>
        <time>2021-08-23T17:53:53Z</time>
      </trkpt>
      <trkpt lat="45.63917" lon="4.59432">
        <ele>925</ele>
        <time>2021-08-23T17:54:05Z</time>
      </trkpt>
      <trkpt lat="45.63903" lon="4.59451">
        <ele>923</ele>
        <time>2021-08-23T17:54:15Z</time>
      </trkpt>
      <trkpt lat="45.63869" lon="4.59456">
        <ele>922</ele>
        <time>2021-08-23T17:54:32Z</time>
      </trkpt>
      <trkpt lat="45.63829" lon="4.59458">
        <ele>920</ele>
        <time>2021-08-23T17:54:52Z</time>
      </trkpt>
      <trkpt lat="45.63803" lon="4.5945">
        <ele>919</ele>
        <time>2021-08-23T17:55:06Z</time>
      </trkpt>
      <trkpt lat="45.63758" lon="4.59384">
        <ele>924</ele>
        <time>2021-08-23T17:55:38Z</time>
      </trkpt>
      <trkpt lat="45.63728" lon="4.59354">
        <ele>920</ele>
        <time>2021-08-23T17:55:56Z</time>
      </trkpt>
      <trkpt lat="45.6372" lon="4.59339">
        <ele>920</ele>
        <time>2021-08-23T17:56:03Z</time>
      </trkpt>
      <trkpt lat="45.63717" lon="4.5932">
        <ele>919</ele>
        <time>2021-08-23T17:56:10Z</time>
      </trkpt>
      <trkpt lat="45.63699" lon="4.5929">
        <ele>913</ele>
        <time>2021-08-23T17:56:23Z</time>
      </trkpt>
      <trkpt lat="45.63687" lon="4.59264">
        <ele>908</ele>
        <time>2021-08-23T17:56:34Z</time>
      </trkpt>
      <trkpt lat="45.63685" lon="4.59228">
        <ele>906</ele>
        <time>2021-08-23T17:56:47Z</time>
      </trkpt>
      <trkpt lat="45.63671" lon="4.59205">
        <ele>901</ele>
        <time>2021-08-23T17:56:58Z</time>
      </trkpt>
      <trkpt lat="45.63663" lon="4.59184">
        <ele>897</ele>
        <time>2021-08-23T17:57:06Z</time>
      </trkpt>
      <trkpt lat="45.63657" lon="4.59177">
        <ele>895</ele>
        <time>2021-08-23T17:57:10Z</time>
      </trkpt>
      <trkpt lat="45.63646" lon="4.5918">
        <ele>893</ele>
        <time>2021-08-23T17:57:15Z</time>
      </trkpt>
      <trkpt lat="45.63619" lon="4.59214">
        <ele>888</ele>
        <time>2021-08-23T17:57:33Z</time>
      </trkpt>
      <trkpt lat="45.63579" lon="4.59256">
        <ele>882</ele>
        <time>2021-08-23T17:57:58Z</time>
      </trkpt>
      <trkpt lat="45.63567" lon="4.59274">
        <ele>878</ele>
        <time>2021-08-23T17:58:07Z</time>
      </trkpt>
      <trkpt lat="45.63531" lon="4.59376">
        <ele>864</ele>
        <time>2021-08-23T17:58:47Z</time>
      </trkpt>
      <trkpt lat="45.63508" lon="4.59421">
        <ele>856</ele>
        <time>2021-08-23T17:59:06Z</time>
      </trkpt>
      <trkpt lat="45.63504" lon="4.59464">
        <ele>855</ele>
        <time>2021-08-23T17:59:22Z</time>
      </trkpt>
      <trkpt lat="45.63513" lon="4.59477">
        <ele>857</ele>
        <time>2021-08-23T17:59:28Z</time>
      </trkpt>
      <trkpt lat="45.63525" lon="4.5957">
        <ele>859</ele>
        <time>2021-08-23T18:00:01Z</time>
      </trkpt>
      <trkpt lat="45.63533" lon="4.59587">
        <ele>860</ele>
        <time>2021-08-23T18:00:08Z</time>
      </trkpt>
      <trkpt lat="45.63558" lon="4.59619">
        <ele>862</ele>
        <time>2021-08-23T18:00:25Z</time>
      </trkpt>
      <trkpt lat="45.63576" lon="4.59675">
        <ele>861</ele>
        <time>2021-08-23T18:00:47Z</time>
      </trkpt>
      <trkpt lat="45.63598" lon="4.59698">
        <ele>860</ele>
        <time>2021-08-23T18:01:00Z</time>
      </trkpt>
      <trkpt lat="45.6361" lon="4.59738">
        <ele>857</ele>
        <time>2021-08-23T18:01:16Z</time>
      </trkpt>
      <trkpt lat="45.63616" lon="4.59805">
        <ele>854</ele>
        <time>2021-08-23T18:01:39Z</time>
      </trkpt>
      <trkpt lat="45.63635" lon="4.59889">
        <ele>851</ele>
        <time>2021-08-23T18:02:10Z</time>
      </trkpt>
      <trkpt lat="45.63665" lon="4.59937">
        <ele>846</ele>
        <time>2021-08-23T18:02:33Z</time>
      </trkpt>
      <trkpt lat="45.63682" lon="4.59954">
        <ele>843</ele>
        <time>2021-08-23T18:02:43Z</time>
      </trkpt>
      <trkpt lat="45.63717" lon="4.60019">
        <ele>841</ele>
        <time>2021-08-23T18:03:12Z</time>
      </trkpt>
      <trkpt lat="45.63741" lon="4.60046">
        <ele>838</ele>
        <time>2021-08-23T18:03:27Z</time>
      </trkpt>
      <trkpt lat="45.63775" lon="4.60118">
        <ele>829</ele>
        <time>2021-08-23T18:03:57Z</time>
      </trkpt>
      <trkpt lat="45.63786" lon="4.60134">
        <ele>826</ele>
        <time>2021-08-23T18:04:05Z</time>
      </trkpt>
      <trkpt lat="45.63795" lon="4.60156">
        <ele>823</ele>
        <time>2021-08-23T18:04:14Z</time>
      </trkpt>
      <trkpt lat="45.63809" lon="4.60153">
        <ele>821</ele>
        <time>2021-08-23T18:04:21Z</time>
      </trkpt>
      <trkpt lat="45.63817" lon="4.60162">
        <ele>819</ele>
        <time>2021-08-23T18:04:26Z</time>
      </trkpt>
      <trkpt lat="45.63837" lon="4.60221">
        <ele>810</ele>
        <time>2021-08-23T18:04:49Z</time>
      </trkpt>
      <trkpt lat="45.6385" lon="4.60252">
        <ele>805</ele>
        <time>2021-08-23T18:05:02Z</time>
      </trkpt>
      <trkpt lat="45.63923" lon="4.6033">
        <ele>796</ele>
        <time>2021-08-23T18:05:48Z</time>
      </trkpt>
      <trkpt lat="45.63945" lon="4.60368">
        <ele>792</ele>
        <time>2021-08-23T18:06:05Z</time>
      </trkpt>
      <trkpt lat="45.6397" lon="4.60383">
        <ele>791</ele>
        <time>2021-08-23T18:06:18Z</time>
      </trkpt>
      <trkpt lat="45.63995" lon="4.60403">
        <ele>790</ele>
        <time>2021-08-23T18:06:33Z</time>
      </trkpt>
      <trkpt lat="45.64013" lon="4.60411">
        <ele>789</ele>
        <time>2021-08-23T18:06:42Z</time>
      </trkpt>
      <trkpt lat="45.64046" lon="4.60442">
        <ele>783</ele>
        <time>2021-08-23T18:07:02Z</time>
      </trkpt>
      <trkpt lat="45.64057" lon="4.60461">
        <ele>781</ele>
        <time>2021-08-23T18:07:10Z</time>
      </trkpt>
      <trkpt lat="45.64064" lon="4.60485">
        <ele>778</ele>
        <time>2021-08-23T18:07:20Z</time>
      </trkpt>
      <trkpt lat="45.64062" lon="4.60507">
        <ele>775</ele>
        <time>2021-08-23T18:07:27Z</time>
      </trkpt>
      <trkpt lat="45.64047" lon="4.60518">
        <ele>772</ele>
        <time>2021-08-23T18:07:36Z</time>
      </trkpt>
      <trkpt lat="45.64027" lon="4.60525">
        <ele>769</ele>
        <time>2021-08-23T18:07:46Z</time>
      </trkpt>
      <trkpt lat="45.64" lon="4.60519">
        <ele>768</ele>
        <time>2021-08-23T18:08:00Z</time>
      </trkpt>
      <trkpt lat="45.63987" lon="4.60525">
        <ele>765</ele>
        <time>2021-08-23T18:08:07Z</time>
      </trkpt>
      <trkpt lat="45.63975" lon="4.60538">
        <ele>761</ele>
        <time>2021-08-23T18:08:14Z</time>
      </trkpt>
      <trkpt lat="45.63963" lon="4.60546">
        <ele>758</ele>
        <time>2021-08-23T18:08:21Z</time>
      </trkpt>
      <trkpt lat="45.63882" lon="4.60585">
        <ele>742</ele>
        <time>2021-08-23T18:09:04Z</time>
      </trkpt>
      <trkpt lat="45.63853" lon="4.60596">
        <ele>738</ele>
        <time>2021-08-23T18:09:19Z</time>
      </trkpt>
      <trkpt lat="45.63827" lon="4.60598">
        <ele>737</ele>
        <time>2021-08-23T18:09:32Z</time>
      </trkpt>
      <trkpt lat="45.63802" lon="4.60614">
        <ele>735</ele>
        <time>2021-08-23T18:09:45Z</time>
      </trkpt>
      <trkpt lat="45.63784" lon="4.60648">
        <ele>732</ele>
        <time>2021-08-23T18:10:00Z</time>
      </trkpt>
      <trkpt lat="45.63774" lon="4.60683">
        <ele>729</ele>
        <time>2021-08-23T18:10:13Z</time>
      </trkpt>
      <trkpt lat="45.63775" lon="4.6072">
        <ele>724</ele>
        <time>2021-08-23T18:10:26Z</time>
      </trkpt>
      <trkpt lat="45.63804" lon="4.60944">
        <ele>687</ele>
        <time>2021-08-23T18:11:46Z</time>
      </trkpt>
      <trkpt lat="45.63811" lon="4.6097">
        <ele>682</ele>
        <time>2021-08-23T18:11:56Z</time>
      </trkpt>
      <trkpt lat="45.63815" lon="4.61015">
        <ele>677</ele>
        <time>2021-08-23T18:12:12Z</time>
      </trkpt>
      <trkpt lat="45.63838" lon="4.61092">
        <ele>667</ele>
        <time>2021-08-23T18:12:41Z</time>
      </trkpt>
      <trkpt lat="45.6385" lon="4.61123">
        <ele>664</ele>
        <time>2021-08-23T18:12:53Z</time>
      </trkpt>
      <trkpt lat="45.63862" lon="4.61134">
        <ele>660</ele>
        <time>2021-08-23T18:13:01Z</time>
      </trkpt>
      <trkpt lat="45.63875" lon="4.61136">
        <ele>656</ele>
        <time>2021-08-23T18:13:07Z</time>
      </trkpt>
      <trkpt lat="45.63869" lon="4.61099">
        <ele>657</ele>
        <time>2021-08-23T18:13:20Z</time>
      </trkpt>
      <trkpt lat="45.63872" lon="4.61087">
        <ele>655</ele>
        <time>2021-08-23T18:13:25Z</time>
      </trkpt>
      <trkpt lat="45.63881" lon="4.61086">
        <ele>652</ele>
        <time>2021-08-23T18:13:29Z</time>
      </trkpt>
      <trkpt lat="45.6392" lon="4.61193">
        <ele>641</ele>
        <time>2021-08-23T18:14:12Z</time>
      </trkpt>
      <trkpt lat="45.6392" lon="4.61227">
        <ele>639</ele>
        <time>2021-08-23T18:14:23Z</time>
      </trkpt>
      <trkpt lat="45.63891" lon="4.61339">
        <ele>632</ele>
        <time>2021-08-23T18:15:05Z</time>
      </trkpt>
      <trkpt lat="45.63881" lon="4.61366">
        <ele>630</ele>
        <time>2021-08-23T18:15:16Z</time>
      </trkpt>
      <trkpt lat="45.63879" lon="4.61398">
        <ele>627</ele>
        <time>2021-08-23T18:15:27Z</time>
      </trkpt>
      <trkpt lat="45.63883" lon="4.61493">
        <ele>625</ele>
        <time>2021-08-23T18:16:00Z</time>
      </trkpt>
      <trkpt lat="45.63888" lon="4.6153">
        <ele>626</ele>
        <time>2021-08-23T18:16:14Z</time>
      </trkpt>
      <trkpt lat="45.63913" lon="4.61627">
        <ele>634</ele>
        <time>2021-08-23T18:16:50Z</time>
      </trkpt>
      <trkpt lat="45.63907" lon="4.61638">
        <ele>633</ele>
        <time>2021-08-23T18:16:55Z</time>
      </trkpt>
      <trkpt lat="45.63898" lon="4.61677">
        <ele>634</ele>
        <time>2021-08-23T18:17:09Z</time>
      </trkpt>
      <trkpt lat="45.63894" lon="4.61718">
        <ele>635</ele>
        <time>2021-08-23T18:17:24Z</time>
      </trkpt>
      <trkpt lat="45.63865" lon="4.61857">
        <ele>635</ele>
        <time>2021-08-23T18:18:14Z</time>
      </trkpt>
      <trkpt lat="45.63863" lon="4.6188">
        <ele>634</ele>
        <time>2021-08-23T18:18:22Z</time>
      </trkpt>
      <trkpt lat="45.63869" lon="4.61901">
        <ele>635</ele>
        <time>2021-08-23T18:18:30Z</time>
      </trkpt>
      <trkpt lat="45.63881" lon="4.61925">
        <ele>635</ele>
        <time>2021-08-23T18:18:41Z</time>
      </trkpt>
      <trkpt lat="45.63891" lon="4.61956">
        <ele>634</ele>
        <time>2021-08-23T18:18:53Z</time>
      </trkpt>
      <trkpt lat="45.63896" lon="4.61982">
        <ele>632</ele>
        <time>2021-08-23T18:19:02Z</time>
      </trkpt>
      <trkpt lat="45.63894" lon="4.62005">
        <ele>631</ele>
        <time>2021-08-23T18:19:10Z</time>
      </trkpt>
      <trkpt lat="45.63876" lon="4.62044">
        <ele>631</ele>
        <time>2021-08-23T18:19:27Z</time>
      </trkpt>
      <trkpt lat="45.63847" lon="4.6209">
        <ele>629</ele>
        <time>2021-08-23T18:19:48Z</time>
      </trkpt>
      <trkpt lat="45.63813" lon="4.62138">
        <ele>626</ele>
        <time>2021-08-23T18:20:12Z</time>
      </trkpt>
      <trkpt lat="45.63787" lon="4.62199">
        <ele>626</ele>
        <time>2021-08-23T18:20:37Z</time>
      </trkpt>
      <trkpt lat="45.63754" lon="4.62264">
        <ele>625</ele>
        <time>2021-08-23T18:21:05Z</time>
      </trkpt>
      <trkpt lat="45.63737" lon="4.62286">
        <ele>622</ele>
        <time>2021-08-23T18:21:17Z</time>
      </trkpt>
      <trkpt lat="45.63719" lon="4.6233">
        <ele>620</ele>
        <time>2021-08-23T18:21:35Z</time>
      </trkpt>
      <trkpt lat="45.63716" lon="4.62352">
        <ele>618</ele>
        <time>2021-08-23T18:21:42Z</time>
      </trkpt>
      <trkpt lat="45.63718" lon="4.62372">
        <ele>617</ele>
        <time>2021-08-23T18:21:49Z</time>
      </trkpt>
      <trkpt lat="45.6374" lon="4.62415">
        <ele>620</ele>
        <time>2021-08-23T18:22:08Z</time>
      </trkpt>
      <trkpt lat="45.63738" lon="4.62459">
        <ele>620</ele>
        <time>2021-08-23T18:22:24Z</time>
      </trkpt>
      <trkpt lat="45.63726" lon="4.62479">
        <ele>617</ele>
        <time>2021-08-23T18:22:33Z</time>
      </trkpt>
      <trkpt lat="45.63704" lon="4.625">
        <ele>613</ele>
        <time>2021-08-23T18:22:46Z</time>
      </trkpt>
      <trkpt lat="45.6369" lon="4.62509">
        <ele>611</ele>
        <time>2021-08-23T18:22:54Z</time>
      </trkpt>
      <trkpt lat="45.63684" lon="4.62547">
        <ele>613</ele>
        <time>2021-08-23T18:23:07Z</time>
      </trkpt>
      <trkpt lat="45.63624" lon="4.62705">
        <ele>603</ele>
        <time>2021-08-23T18:24:10Z</time>
      </trkpt>
      <trkpt lat="45.63607" lon="4.62727">
        <ele>598</ele>
        <time>2021-08-23T18:24:22Z</time>
      </trkpt>
      <trkpt lat="45.63584" lon="4.62768">
        <ele>591</ele>
        <time>2021-08-23T18:24:40Z</time>
      </trkpt>
      <trkpt lat="45.63576" lon="4.628">
        <ele>588</ele>
        <time>2021-08-23T18:24:52Z</time>
      </trkpt>
      <trkpt lat="45.63571" lon="4.62866">
        <ele>583</ele>
        <time>2021-08-23T18:25:15Z</time>
      </trkpt>
      <trkpt lat="45.63559" lon="4.62898">
        <ele>579</ele>
        <time>2021-08-23T18:25:28Z</time>
      </trkpt>
      <trkpt lat="45.63539" lon="4.62941">
        <ele>572</ele>
        <time>2021-08-23T18:25:46Z</time>
      </trkpt>
      <trkpt lat="45.63552" lon="4.62949">
        <ele>572</ele>
        <time>2021-08-23T18:25:53Z</time>
      </trkpt>
      <trkpt lat="45.63583" lon="4.62956">
        <ele>575</ele>
        <time>2021-08-23T18:26:09Z</time>
      </trkpt>
      <trkpt lat="45.63615" lon="4.62957">
        <ele>579</ele>
        <time>2021-08-23T18:26:25Z</time>
      </trkpt>
      <trkpt lat="45.63641" lon="4.62954">
        <ele>583</ele>
        <time>2021-08-23T18:26:38Z</time>
      </trkpt>
      <trkpt lat="45.63689" lon="4.62953">
        <ele>590</ele>
        <time>2021-08-23T18:27:02Z</time>
      </trkpt>
      <trkpt lat="45.6374" lon="4.62978">
        <ele>594</ele>
        <time>2021-08-23T18:27:29Z</time>
      </trkpt>
      <trkpt lat="45.63752" lon="4.62991">
        <ele>594</ele>
        <time>2021-08-23T18:27:36Z</time>
      </trkpt>
      <trkpt lat="45.63794" lon="4.63092">
        <ele>602</ele>
        <time>2021-08-23T18:28:17Z</time>
      </trkpt>
      <trkpt lat="45.63804" lon="4.63104">
        <ele>604</ele>
        <time>2021-08-23T18:28:24Z</time>
      </trkpt>
      <trkpt lat="45.63815" lon="4.63108">
        <ele>607</ele>
        <time>2021-08-23T18:28:30Z</time>
      </trkpt>
      <trkpt lat="45.63836" lon="4.63101">
        <ele>612</ele>
        <time>2021-08-23T18:28:40Z</time>
      </trkpt>
      <trkpt lat="45.63869" lon="4.6308">
        <ele>620</ele>
        <time>2021-08-23T18:28:59Z</time>
      </trkpt>
      <trkpt lat="45.63896" lon="4.63072">
        <ele>625</ele>
        <time>2021-08-23T18:29:12Z</time>
      </trkpt>
      <trkpt lat="45.63965" lon="4.63041">
        <ele>635</ele>
        <time>2021-08-23T18:29:49Z</time>
      </trkpt>
      <trkpt lat="45.64028" lon="4.63007">
        <ele>639</ele>
        <time>2021-08-23T18:30:22Z</time>
      </trkpt>
      <trkpt lat="45.64089" lon="4.62985">
        <ele>637</ele>
        <time>2021-08-23T18:30:54Z</time>
      </trkpt>
      <trkpt lat="45.64112" lon="4.62969">
        <ele>635</ele>
        <time>2021-08-23T18:31:07Z</time>
      </trkpt>
      <trkpt lat="45.64127" lon="4.62953">
        <ele>635</ele>
        <time>2021-08-23T18:31:16Z</time>
      </trkpt>
      <trkpt lat="45.64144" lon="4.62942">
        <ele>634</ele>
        <time>2021-08-23T18:31:25Z</time>
      </trkpt>
      <trkpt lat="45.64214" lon="4.62904">
        <ele>627</ele>
        <time>2021-08-23T18:32:03Z</time>
      </trkpt>
      <trkpt lat="45.64281" lon="4.62862">
        <ele>619</ele>
        <time>2021-08-23T18:32:39Z</time>
      </trkpt>
      <trkpt lat="45.64286" lon="4.62888">
        <ele>617</ele>
        <time>2021-08-23T18:32:49Z</time>
      </trkpt>
      <trkpt lat="45.64314" lon="4.62974">
        <ele>612</ele>
        <time>2021-08-23T18:33:22Z</time>
      </trkpt>
      <trkpt lat="45.64321" lon="4.63005">
        <ele>611</ele>
        <time>2021-08-23T18:33:33Z</time>
      </trkpt>
      <trkpt lat="45.64325" lon="4.63048">
        <ele>610</ele>
        <time>2021-08-23T18:33:48Z</time>
      </trkpt>
      <trkpt lat="45.64337" lon="4.63085">
        <ele>610</ele>
        <time>2021-08-23T18:34:03Z</time>
      </trkpt>
      <trkpt lat="45.64327" lon="4.63181">
        <ele>600</ele>
        <time>2021-08-23T18:34:37Z</time>
      </trkpt>
      <trkpt lat="45.64334" lon="4.63241">
        <ele>598</ele>
        <time>2021-08-23T18:34:58Z</time>
      </trkpt>
      <trkpt lat="45.64326" lon="4.63284">
        <ele>592</ele>
        <time>2021-08-23T18:35:14Z</time>
      </trkpt>
      <trkpt lat="45.64324" lon="4.6336">
        <ele>585</ele>
        <time>2021-08-23T18:35:40Z</time>
      </trkpt>
      <trkpt lat="45.64321" lon="4.63377">
        <ele>582</ele>
        <time>2021-08-23T18:35:46Z</time>
      </trkpt>
      <trkpt lat="45.64306" lon="4.63384">
        <ele>578</ele>
        <time>2021-08-23T18:35:54Z</time>
      </trkpt>
      <trkpt lat="45.64289" lon="4.63404">
        <ele>574</ele>
        <time>2021-08-23T18:36:05Z</time>
      </trkpt>
      <trkpt lat="45.64271" lon="4.63465">
        <ele>564</ele>
        <time>2021-08-23T18:36:28Z</time>
      </trkpt>
      <trkpt lat="45.64219" lon="4.63561">
        <ele>541</ele>
        <time>2021-08-23T18:37:11Z</time>
      </trkpt>
      <trkpt lat="45.64182" lon="4.63606">
        <ele>532</ele>
        <time>2021-08-23T18:37:35Z</time>
      </trkpt>
      <trkpt lat="45.64169" lon="4.63647">
        <ele>527</ele>
        <time>2021-08-23T18:37:51Z</time>
      </trkpt>
      <trkpt lat="45.6415" lon="4.6367">
        <ele>522</ele>
        <time>2021-08-23T18:38:03Z</time>
      </trkpt>
      <trkpt lat="45.64136" lon="4.63666">
        <ele>520</ele>
        <time>2021-08-23T18:38:11Z</time>
      </trkpt>
      <trkpt lat="45.6411" lon="4.63639">
        <ele>517</ele>
        <time>2021-08-23T18:38:27Z</time>
      </trkpt>
      <trkpt lat="45.64109" lon="4.63681">
        <ele>514</ele>
        <time>2021-08-23T18:38:41Z</time>
      </trkpt>
      <trkpt lat="45.64112" lon="4.63691">
        <ele>514</ele>
        <time>2021-08-23T18:38:45Z</time>
      </trkpt>
      <trkpt lat="45.64133" lon="4.63703">
        <ele>517</ele>
        <time>2021-08-23T18:38:56Z</time>
      </trkpt>
      <trkpt lat="45.64139" lon="4.63727">
        <ele>517</ele>
        <time>2021-08-23T18:39:05Z</time>
      </trkpt>
      <trkpt lat="45.64129" lon="4.63756">
        <ele>514</ele>
        <time>2021-08-23T18:39:17Z</time>
      </trkpt>
      <trkpt lat="45.64118" lon="4.63775">
        <ele>512</ele>
        <time>2021-08-23T18:39:25Z</time>
      </trkpt>
      <trkpt lat="45.64116" lon="4.63803">
        <ele>513</ele>
        <time>2021-08-23T18:39:35Z</time>
      </trkpt>
      <trkpt lat="45.64115" lon="4.6383">
        <ele>514</ele>
        <time>2021-08-23T18:39:45Z</time>
      </trkpt>
      <trkpt lat="45.64127" lon="4.63923">
        <ele>522</ele>
        <time>2021-08-23T18:40:18Z</time>
      </trkpt>
      <trkpt lat="45.64129" lon="4.63925">
        <ele>522</ele>
        <time>2021-08-23T18:40:19Z</time>
      </trkpt>
      <trkpt lat="45.64133" lon="4.63924">
        <ele>523</ele>
        <time>2021-08-23T18:40:21Z</time>
      </trkpt>
      <trkpt lat="45.6414" lon="4.63895">
        <ele>524</ele>
        <time>2021-08-23T18:40:32Z</time>
      </trkpt>
      <trkpt lat="45.64153" lon="4.63864">
        <ele>527</ele>
        <time>2021-08-23T18:40:44Z</time>
      </trkpt>
      <trkpt lat="45.64179" lon="4.63832">
        <ele>532</ele>
        <time>2021-08-23T18:41:01Z</time>
      </trkpt>
      <trkpt lat="45.64187" lon="4.63924">
        <ele>537</ele>
        <time>2021-08-23T18:41:34Z</time>
      </trkpt>
      <trkpt lat="45.64204" lon="4.6395">
        <ele>540</ele>
        <time>2021-08-23T18:41:46Z</time>
      </trkpt>
      <trkpt lat="45.64227" lon="4.63964">
        <ele>544</ele>
        <time>2021-08-23T18:41:59Z</time>
      </trkpt>
      <trkpt lat="45.64272" lon="4.63978">
        <ele>548</ele>
        <time>2021-08-23T18:42:22Z</time>
      </trkpt>
      <trkpt lat="45.64306" lon="4.63985">
        <ele>550</ele>
        <time>2021-08-23T18:42:39Z</time>
      </trkpt>
      <trkpt lat="45.6436" lon="4.63992">
        <ele>551</ele>
        <time>2021-08-23T18:43:06Z</time>
      </trkpt>
      <trkpt lat="45.64425" lon="4.63996">
        <ele>551</ele>
        <time>2021-08-23T18:43:39Z</time>
      </trkpt>
      <trkpt lat="45.6448" lon="4.64018">
        <ele>550</ele>
        <time>2021-08-23T18:44:07Z</time>
      </trkpt>
      <trkpt lat="45.6449" lon="4.64039">
        <ele>548</ele>
        <time>2021-08-23T18:44:16Z</time>
      </trkpt>
      <trkpt lat="45.64496" lon="4.64087">
        <ele>544</ele>
        <time>2021-08-23T18:44:33Z</time>
      </trkpt>
      <trkpt lat="45.64485" lon="4.64251">
        <ele>540</ele>
        <time>2021-08-23T18:45:31Z</time>
      </trkpt>
      <trkpt lat="45.64429" lon="4.64292">
        <ele>533</ele>
        <time>2021-08-23T18:46:02Z</time>
      </trkpt>
      <trkpt lat="45.64354" lon="4.6434">
        <ele>524</ele>
        <time>2021-08-23T18:46:44Z</time>
      </trkpt>
      <trkpt lat="45.64307" lon="4.64366">
        <ele>518</ele>
        <time>2021-08-23T18:47:09Z</time>
      </trkpt>
      <trkpt lat="45.64203" lon="4.64377">
        <ele>503</ele>
        <time>2021-08-23T18:48:01Z</time>
      </trkpt>
      <trkpt lat="45.64194" lon="4.64383">
        <ele>502</ele>
        <time>2021-08-23T18:48:06Z</time>
      </trkpt>
      <trkpt lat="45.64192" lon="4.6439">
        <ele>502</ele>
        <time>2021-08-23T18:48:09Z</time>
      </trkpt>
      <trkpt lat="45.64195" lon="4.64406">
        <ele>503</ele>
        <time>2021-08-23T18:48:14Z</time>
      </trkpt>
      <trkpt lat="45.6421" lon="4.64437">
        <ele>506</ele>
        <time>2021-08-23T18:48:28Z</time>
      </trkpt>
      <trkpt lat="45.6424" lon="4.64483">
        <ele>509</ele>
        <time>2021-08-23T18:48:50Z</time>
      </trkpt>
      <trkpt lat="45.64262" lon="4.6451">
        <ele>511</ele>
        <time>2021-08-23T18:49:04Z</time>
      </trkpt>
      <trkpt lat="45.64282" lon="4.64548">
        <ele>511</ele>
        <time>2021-08-23T18:49:21Z</time>
      </trkpt>
      <trkpt lat="45.64294" lon="4.64637">
        <ele>508</ele>
        <time>2021-08-23T18:49:52Z</time>
      </trkpt>
      <trkpt lat="45.64281" lon="4.64606">
        <ele>507</ele>
        <time>2021-08-23T18:50:05Z</time>
      </trkpt>
      <trkpt lat="45.64282" lon="4.6462">
        <ele>507</ele>
        <time>2021-08-23T18:50:10Z</time>
      </trkpt>
      <trkpt lat="45.64278" lon="4.64631">
        <ele>506</ele>
        <time>2021-08-23T18:50:14Z</time>
      </trkpt>
      <trkpt lat="45.6427" lon="4.64637">
        <ele>505</ele>
        <time>2021-08-23T18:50:19Z</time>
      </trkpt>
      <trkpt lat="45.64245" lon="4.64683">
        <ele>500</ele>
        <time>2021-08-23T18:50:39Z</time>
      </trkpt>
      <trkpt lat="45.6423" lon="4.64717">
        <ele>497</ele>
        <time>2021-08-23T18:50:53Z</time>
      </trkpt>
      <trkpt lat="45.64222" lon="4.64746">
        <ele>496</ele>
        <time>2021-08-23T18:51:04Z</time>
      </trkpt>
      <trkpt lat="45.64209" lon="4.64815">
        <ele>495</ele>
        <time>2021-08-23T18:51:29Z</time>
      </trkpt>
      <trkpt lat="45.64201" lon="4.64883">
        <ele>496</ele>
        <time>2021-08-23T18:51:53Z</time>
      </trkpt>
      <trkpt lat="45.64192" lon="4.64907">
        <ele>496</ele>
        <time>2021-08-23T18:52:03Z</time>
      </trkpt>
      <trkpt lat="45.64183" lon="4.64927">
        <ele>496</ele>
        <time>2021-08-23T18:52:11Z</time>
      </trkpt>
      <trkpt lat="45.64158" lon="4.6496">
        <ele>496</ele>
        <time>2021-08-23T18:52:28Z</time>
      </trkpt>
      <trkpt lat="45.64086" lon="4.65117">
        <ele>486</ele>
        <time>2021-08-23T18:53:34Z</time>
      </trkpt>
      <trkpt lat="45.64083" lon="4.65145">
        <ele>485</ele>
        <time>2021-08-23T18:53:44Z</time>
      </trkpt>
      <trkpt lat="45.64085" lon="4.65167">
        <ele>484</ele>
        <time>2021-08-23T18:53:52Z</time>
      </trkpt>
      <trkpt lat="45.64091" lon="4.65187">
        <ele>482</ele>
        <time>2021-08-23T18:53:59Z</time>
      </trkpt>
      <trkpt lat="45.64083" lon="4.65279">
        <ele>475</ele>
        <time>2021-08-23T18:54:32Z</time>
      </trkpt>
      <trkpt lat="45.64071" lon="4.65322">
        <ele>470</ele>
        <time>2021-08-23T18:54:48Z</time>
      </trkpt>
      <trkpt lat="45.64071" lon="4.65334">
        <ele>468</ele>
        <time>2021-08-23T18:54:52Z</time>
      </trkpt>
      <trkpt lat="45.64077" lon="4.65341">
        <ele>467</ele>
        <time>2021-08-23T18:54:56Z</time>
      </trkpt>
      <trkpt lat="45.64096" lon="4.65346">
        <ele>466</ele>
        <time>2021-08-23T18:55:06Z</time>
      </trkpt>
      <trkpt lat="45.64161" lon="4.65355">
        <ele>461</ele>
        <time>2021-08-23T18:55:38Z</time>
      </trkpt>
      <trkpt lat="45.64203" lon="4.65365">
        <ele>460</ele>
        <time>2021-08-23T18:56:00Z</time>
      </trkpt>
      <trkpt lat="45.64204" lon="4.65377">
        <ele>459</ele>
        <time>2021-08-23T18:56:04Z</time>
      </trkpt>
      <trkpt lat="45.64191" lon="4.65399">
        <ele>457</ele>
        <time>2021-08-23T18:56:14Z</time>
      </trkpt>
      <trkpt lat="45.64181" lon="4.65426">
        <ele>456</ele>
        <time>2021-08-23T18:56:25Z</time>
      </trkpt>
      <trkpt lat="45.64172" lon="4.65468">
        <ele>458</ele>
        <time>2021-08-23T18:56:40Z</time>
      </trkpt>
      <trkpt lat="45.64176" lon="4.65537">
        <ele>465</ele>
        <time>2021-08-23T18:57:04Z</time>
      </trkpt>
      <trkpt lat="45.6418" lon="4.65539">
        <ele>466</ele>
        <time>2021-08-23T18:57:06Z</time>
      </trkpt>
      <trkpt lat="45.64212" lon="4.65517">
        <ele>468</ele>
        <time>2021-08-23T18:57:24Z</time>
      </trkpt>
      <trkpt lat="45.64227" lon="4.65517">
        <ele>470</ele>
        <time>2021-08-23T18:57:32Z</time>
      </trkpt>
      <trkpt lat="45.64241" lon="4.65521">
        <ele>472</ele>
        <time>2021-08-23T18:57:39Z</time>
      </trkpt>
      <trkpt lat="45.64278" lon="4.65537">
        <ele>476</ele>
        <time>2021-08-23T18:57:58Z</time>
      </trkpt>
      <trkpt lat="45.64328" lon="4.65589">
        <ele>482</ele>
        <time>2021-08-23T18:58:29Z</time>
      </trkpt>
      <trkpt lat="45.64403" lon="4.65646">
        <ele>493</ele>
        <time>2021-08-23T18:59:11Z</time>
      </trkpt>
      <trkpt lat="45.64446" lon="4.65693">
        <ele>499</ele>
        <time>2021-08-23T18:59:39Z</time>
      </trkpt>
      <trkpt lat="45.64495" lon="4.6576">
        <ele>506</ele>
        <time>2021-08-23T19:00:12Z</time>
      </trkpt>
      <trkpt lat="45.64664" lon="4.6592">
        <ele>518</ele>
        <time>2021-08-23T19:01:54Z</time>
      </trkpt>
      <trkpt lat="45.64706" lon="4.65946">
        <ele>522</ele>
        <time>2021-08-23T19:02:17Z</time>
      </trkpt>
      <trkpt lat="45.64724" lon="4.65954">
        <ele>523</ele>
        <time>2021-08-23T19:02:26Z</time>
      </trkpt>
      <trkpt lat="45.64796" lon="4.65978">
        <ele>527</ele>
        <time>2021-08-23T19:03:03Z</time>
      </trkpt>
      <trkpt lat="45.64827" lon="4.65985">
        <ele>528</ele>
        <time>2021-08-23T19:03:19Z</time>
      </trkpt>
      <trkpt lat="45.6487" lon="4.65985">
        <ele>530</ele>
        <time>2021-08-23T19:03:40Z</time>
      </trkpt>
      <trkpt lat="45.64896" lon="4.65989">
        <ele>531</ele>
        <time>2021-08-23T19:03:54Z</time>
      </trkpt>
      <trkpt lat="45.64957" lon="4.65988">
        <ele>533</ele>
        <time>2021-08-23T19:04:24Z</time>
      </trkpt>
      <trkpt lat="45.64971" lon="4.65984">
        <ele>534</ele>
        <time>2021-08-23T19:04:31Z</time>
      </trkpt>
      <trkpt lat="45.64984" lon="4.65976">
        <ele>534</ele>
        <time>2021-08-23T19:04:38Z</time>
      </trkpt>
      <trkpt lat="45.64991" lon="4.65976">
        <ele>534</ele>
        <time>2021-08-23T19:04:42Z</time>
      </trkpt>
      <trkpt lat="45.65008" lon="4.65986">
        <ele>534</ele>
        <time>2021-08-23T19:04:51Z</time>
      </trkpt>
      <trkpt lat="45.65008" lon="4.65999">
        <ele>534</ele>
        <time>2021-08-23T19:04:56Z</time>
      </trkpt>
      <trkpt lat="45.64998" lon="4.66032">
        <ele>535</ele>
        <time>2021-08-23T19:05:08Z</time>
      </trkpt>
      <trkpt lat="45.64983" lon="4.66063">
        <ele>534</ele>
        <time>2021-08-23T19:05:21Z</time>
      </trkpt>
      <trkpt lat="45.64908" lon="4.66162">
        <ele>535</ele>
        <time>2021-08-23T19:06:12Z</time>
      </trkpt>
      <trkpt lat="45.64898" lon="4.66189">
        <ele>533</ele>
        <time>2021-08-23T19:06:23Z</time>
      </trkpt>
      <trkpt lat="45.64934" lon="4.66225">
        <ele>532</ele>
        <time>2021-08-23T19:06:45Z</time>
      </trkpt>
      <trkpt lat="45.65015" lon="4.6627">
        <ele>528</ele>
        <time>2021-08-23T19:07:29Z</time>
      </trkpt>
      <trkpt lat="45.6503" lon="4.66268">
        <ele>527</ele>
        <time>2021-08-23T19:07:36Z</time>
      </trkpt>
      <trkpt lat="45.65063" lon="4.66227">
        <ele>526</ele>
        <time>2021-08-23T19:07:58Z</time>
      </trkpt>
      <trkpt lat="45.65095" lon="4.66196">
        <ele>525</ele>
        <time>2021-08-23T19:08:17Z</time>
      </trkpt>
      <trkpt lat="45.65123" lon="4.66177">
        <ele>524</ele>
        <time>2021-08-23T19:08:33Z</time>
      </trkpt>
      <trkpt lat="45.65173" lon="4.66172">
        <ele>520</ele>
        <time>2021-08-23T19:08:58Z</time>
      </trkpt>
      <trkpt lat="45.65212" lon="4.66187">
        <ele>515</ele>
        <time>2021-08-23T19:09:18Z</time>
      </trkpt>
      <trkpt lat="45.65253" lon="4.6618">
        <ele>511</ele>
        <time>2021-08-23T19:09:39Z</time>
      </trkpt>
      <trkpt lat="45.6529" lon="4.66159">
        <ele>505</ele>
        <time>2021-08-23T19:09:59Z</time>
      </trkpt>
      <trkpt lat="45.65324" lon="4.66152">
        <ele>498</ele>
        <time>2021-08-23T19:10:16Z</time>
      </trkpt>
      <trkpt lat="45.65346" lon="4.66156">
        <ele>495</ele>
        <time>2021-08-23T19:10:27Z</time>
      </trkpt>
      <trkpt lat="45.65377" lon="4.66193">
        <ele>490</ele>
        <time>2021-08-23T19:10:47Z</time>
      </trkpt>
      <trkpt lat="45.6539" lon="4.66204">
        <ele>488</ele>
        <time>2021-08-23T19:10:55Z</time>
      </trkpt>
      <trkpt lat="45.65399" lon="4.66231">
        <ele>486</ele>
        <time>2021-08-23T19:11:05Z</time>
      </trkpt>
      <trkpt lat="45.65403" lon="4.66258">
        <ele>485</ele>
        <time>2021-08-23T19:11:15Z</time>
      </trkpt>
      <trkpt lat="45.65461" lon="4.66369">
        <ele>472</ele>
        <time>2021-08-23T19:12:03Z</time>
      </trkpt>
      <trkpt lat="45.65506" lon="4.66448">
        <ele>463</ele>
        <time>2021-08-23T19:12:39Z</time>
      </trkpt>
      <trkpt lat="45.65516" lon="4.66491">
        <ele>457</ele>
        <time>2021-08-23T19:12:55Z</time>
      </trkpt>
      <trkpt lat="45.65516" lon="4.66522">
        <ele>454</ele>
        <time>2021-08-23T19:13:06Z</time>
      </trkpt>
      <trkpt lat="45.65545" lon="4.6656">
        <ele>447</ele>
        <time>2021-08-23T19:13:25Z</time>
      </trkpt>
      <trkpt lat="45.65561" lon="4.66592">
        <ele>442</ele>
        <time>2021-08-23T19:13:39Z</time>
      </trkpt>
      <trkpt lat="45.6558" lon="4.66659">
        <ele>435</ele>
        <time>2021-08-23T19:14:04Z</time>
      </trkpt>
      <trkpt lat="45.65595" lon="4.66692">
        <ele>434</ele>
        <time>2021-08-23T19:14:18Z</time>
      </trkpt>
      <trkpt lat="45.65615" lon="4.66713">
        <ele>435</ele>
        <time>2021-08-23T19:14:31Z</time>
      </trkpt>
      <trkpt lat="45.65619" lon="4.66733">
        <ele>436</ele>
        <time>2021-08-23T19:14:38Z</time>
      </trkpt>
      <trkpt lat="45.65597" lon="4.66847">
        <ele>430</ele>
        <time>2021-08-23T19:15:19Z</time>
      </trkpt>
      <trkpt lat="45.65603" lon="4.66864">
        <ele>430</ele>
        <time>2021-08-23T19:15:26Z</time>
      </trkpt>
      <trkpt lat="45.65615" lon="4.66873">
        <ele>432</ele>
        <time>2021-08-23T19:15:33Z</time>
      </trkpt>
      <trkpt lat="45.65638" lon="4.66885">
        <ele>435</ele>
        <time>2021-08-23T19:15:45Z</time>
      </trkpt>
      <trkpt lat="45.65664" lon="4.66892">
        <ele>439</ele>
        <time>2021-08-23T19:15:58Z</time>
      </trkpt>
      <trkpt lat="45.65696" lon="4.66894">
        <ele>443</ele>
        <time>2021-08-23T19:16:14Z</time>
      </trkpt>
      <trkpt lat="45.65828" lon="4.66919">
        <ele>455</ele>
        <time>2021-08-23T19:17:21Z</time>
      </trkpt>
      <trkpt lat="45.65859" lon="4.6694">
        <ele>456</ele>
        <time>2021-08-23T19:17:38Z</time>
      </trkpt>
      <trkpt lat="45.66013" lon="4.67078">
        <ele>450</ele>
        <time>2021-08-23T19:19:09Z</time>
      </trkpt>
      <trkpt lat="45.66097" lon="4.67104">
        <ele>447</ele>
        <time>2021-08-23T19:19:52Z</time>
      </trkpt>
      <trkpt lat="45.66113" lon="4.67102">
        <ele>446</ele>
        <time>2021-08-23T19:20:00Z</time>
      </trkpt>
      <trkpt lat="45.66119" lon="4.67099">
        <ele>446</ele>
        <time>2021-08-23T19:20:03Z</time>
      </trkpt>
      <trkpt lat="45.66119" lon="4.6711">
        <ele>446</ele>
        <time>2021-08-23T19:20:07Z</time>
      </trkpt>
      <trkpt lat="45.66086" lon="4.67225">
        <ele>444</ele>
        <time>2021-08-23T19:20:50Z</time>
      </trkpt>
      <trkpt lat="45.66059" lon="4.67338">
        <ele>441</ele>
        <time>2021-08-23T19:21:32Z</time>
      </trkpt>
      <trkpt lat="45.66046" lon="4.67403">
        <ele>438</ele>
        <time>2021-08-23T19:21:56Z</time>
      </trkpt>
      <trkpt lat="45.66047" lon="4.67423">
        <ele>438</ele>
        <time>2021-08-23T19:22:03Z</time>
      </trkpt>
      <trkpt lat="45.66082" lon="4.67506">
        <ele>439</ele>
        <time>2021-08-23T19:22:37Z</time>
      </trkpt>
      <trkpt lat="45.66175" lon="4.67674">
        <ele>438</ele>
        <time>2021-08-23T19:23:52Z</time>
      </trkpt>
      <trkpt lat="45.66198" lon="4.67711">
        <ele>436</ele>
        <time>2021-08-23T19:24:09Z</time>
      </trkpt>
      <trkpt lat="45.66227" lon="4.6775">
        <ele>434</ele>
        <time>2021-08-23T19:24:29Z</time>
      </trkpt>
      <trkpt lat="45.66289" lon="4.67814">
        <ele>427</ele>
        <time>2021-08-23T19:25:07Z</time>
      </trkpt>
      <trkpt lat="45.66407" lon="4.67964">
        <ele>417</ele>
        <time>2021-08-23T19:26:26Z</time>
      </trkpt>
      <trkpt lat="45.66396" lon="4.67982">
        <ele>416</ele>
        <time>2021-08-23T19:26:35Z</time>
      </trkpt>
      <trkpt lat="45.66355" lon="4.6802">
        <ele>415</ele>
        <time>2021-08-23T19:26:59Z</time>
      </trkpt>
      <trkpt lat="45.6635" lon="4.68029">
        <ele>414</ele>
        <time>2021-08-23T19:27:03Z</time>
      </trkpt>
      <trkpt lat="45.66365" lon="4.68038">
        <ele>414</ele>
        <time>2021-08-23T19:27:11Z</time>
      </trkpt>
      <trkpt lat="45.66389" lon="4.68062">
        <ele>412</ele>
        <time>2021-08-23T19:27:26Z</time>
      </trkpt>
      <trkpt lat="45.6643" lon="4.6811">
        <ele>409</ele>
        <time>2021-08-23T19:27:52Z</time>
      </trkpt>
      <trkpt lat="45.66448" lon="4.68139">
        <ele>408</ele>
        <time>2021-08-23T19:28:06Z</time>
      </trkpt>
      <trkpt lat="45.66468" lon="4.68178">
        <ele>407</ele>
        <time>2021-08-23T19:28:23Z</time>
      </trkpt>
      <trkpt lat="45.66504" lon="4.68215">
        <ele>405</ele>
        <time>2021-08-23T19:28:45Z</time>
      </trkpt>
      <trkpt lat="45.66644" lon="4.68307">
        <ele>398</ele>
        <time>2021-08-23T19:30:02Z</time>
      </trkpt>
      <trkpt lat="45.66758" lon="4.68356">
        <ele>391</ele>
        <time>2021-08-23T19:31:02Z</time>
      </trkpt>
      <trkpt lat="45.66798" lon="4.68383">
        <ele>388</ele>
        <time>2021-08-23T19:31:24Z</time>
      </trkpt>
      <trkpt lat="45.66834" lon="4.68399">
        <ele>386</ele>
        <time>2021-08-23T19:31:43Z</time>
      </trkpt>
      <trkpt lat="45.66865" lon="4.68401">
        <ele>384</ele>
        <time>2021-08-23T19:31:58Z</time>
      </trkpt>
      <trkpt lat="45.6691" lon="4.68413">
        <ele>381</ele>
        <time>2021-08-23T19:32:21Z</time>
      </trkpt>
      <trkpt lat="45.66942" lon="4.68426">
        <ele>380</ele>
        <time>2021-08-23T19:32:38Z</time>
      </trkpt>
      <trkpt lat="45.66965" lon="4.68401">
        <ele>380</ele>
        <time>2021-08-23T19:32:52Z</time>
      </trkpt>
      <trkpt lat="45.6699" lon="4.68394">
        <ele>380</ele>
        <time>2021-08-23T19:33:05Z</time>
      </trkpt>
      <trkpt lat="45.67011" lon="4.68396">
        <ele>380</ele>
        <time>2021-08-23T19:33:16Z</time>
      </trkpt>
      <trkpt lat="45.67037" lon="4.68386">
        <ele>380</ele>
        <time>2021-08-23T19:33:29Z</time>
      </trkpt>
      <trkpt lat="45.67078" lon="4.68343">
        <ele>382</ele>
        <time>2021-08-23T19:33:54Z</time>
      </trkpt>
      <trkpt lat="45.67099" lon="4.68381">
        <ele>380</ele>
        <time>2021-08-23T19:34:11Z</time>
      </trkpt>
      <trkpt lat="45.67119" lon="4.684">
        <ele>380</ele>
        <time>2021-08-23T19:34:23Z</time>
      </trkpt>
      <trkpt lat="45.67226" lon="4.68477">
        <ele>377</ele>
        <time>2021-08-23T19:35:23Z</time>
      </trkpt>
      <trkpt lat="45.67243" lon="4.68506">
        <ele>376</ele>
        <time>2021-08-23T19:35:37Z</time>
      </trkpt>
      <trkpt lat="45.67251" lon="4.68514">
        <ele>375</ele>
        <time>2021-08-23T19:35:41Z</time>
      </trkpt>
      <trkpt lat="45.67283" lon="4.68532">
        <ele>375</ele>
        <time>2021-08-23T19:35:59Z</time>
      </trkpt>
      <trkpt lat="45.67302" lon="4.68539">
        <ele>375</ele>
        <time>2021-08-23T19:36:08Z</time>
      </trkpt>
      <trkpt lat="45.67311" lon="4.68548">
        <ele>375</ele>
        <time>2021-08-23T19:36:14Z</time>
      </trkpt>
      <trkpt lat="45.67319" lon="4.68559">
        <ele>375</ele>
        <time>2021-08-23T19:36:19Z</time>
      </trkpt>
      <trkpt lat="45.67414" lon="4.68797">
        <ele>377</ele>
        <time>2021-08-23T19:37:55Z</time>
      </trkpt>
      <trkpt lat="45.67428" lon="4.68846">
        <ele>378</ele>
        <time>2021-08-23T19:38:14Z</time>
      </trkpt>
      <trkpt lat="45.67431" lon="4.68902">
        <ele>379</ele>
        <time>2021-08-23T19:38:33Z</time>
      </trkpt>
      <trkpt lat="45.6746" lon="4.69006">
        <ele>378</ele>
        <time>2021-08-23T19:39:13Z</time>
      </trkpt>
      <trkpt lat="45.67467" lon="4.69021">
        <ele>378</ele>
        <time>2021-08-23T19:39:19Z</time>
      </trkpt>
      <trkpt lat="45.67496" lon="4.69061">
        <ele>378</ele>
        <time>2021-08-23T19:39:39Z</time>
      </trkpt>
      <trkpt lat="45.67592" lon="4.69149">
        <ele>375</ele>
        <time>2021-08-23T19:40:36Z</time>
      </trkpt>
      <trkpt lat="45.67616" lon="4.69164">
        <ele>374</ele>
        <time>2021-08-23T19:40:49Z</time>
      </trkpt>
      <trkpt lat="45.6767" lon="4.69189">
        <ele>372</ele>
        <time>2021-08-23T19:41:18Z</time>
      </trkpt>
      <trkpt lat="45.67702" lon="4.69225">
        <ele>369</ele>
        <time>2021-08-23T19:41:38Z</time>
      </trkpt>
      <trkpt lat="45.6773" lon="4.69263">
        <ele>368</ele>
        <time>2021-08-23T19:41:57Z</time>
      </trkpt>
      <trkpt lat="45.67744" lon="4.69292">
        <ele>367</ele>
        <time>2021-08-23T19:42:10Z</time>
      </trkpt>
      <trkpt lat="45.6774" lon="4.69302">
        <ele>367</ele>
        <time>2021-08-23T19:42:14Z</time>
      </trkpt>
      <trkpt lat="45.67743" lon="4.69318">
        <ele>367</ele>
        <time>2021-08-23T19:42:19Z</time>
      </trkpt>
      <trkpt lat="45.67746" lon="4.69323">
        <ele>367</ele>
        <time>2021-08-23T19:42:22Z</time>
      </trkpt>
      <trkpt lat="45.67758" lon="4.69332">
        <ele>367</ele>
        <time>2021-08-23T19:42:29Z</time>
      </trkpt>
      <trkpt lat="45.67775" lon="4.6937">
        <ele>367</ele>
        <time>2021-08-23T19:42:44Z</time>
      </trkpt>
      <trkpt lat="45.67781" lon="4.694">
        <ele>367</ele>
        <time>2021-08-23T19:42:55Z</time>
      </trkpt>
      <trkpt lat="45.67779" lon="4.69409">
        <ele>367</ele>
        <time>2021-08-23T19:42:59Z</time>
      </trkpt>
      <trkpt lat="45.67782" lon="4.69434">
        <ele>367</ele>
        <time>2021-08-23T19:43:07Z</time>
      </trkpt>
      <trkpt lat="45.67784" lon="4.695">
        <ele>366</ele>
        <time>2021-08-23T19:43:31Z</time>
      </trkpt>
    </trkseg>
  </trk>
  <trk>
    <name><![CDATA[Off Car_2]]></name>
    <trkseg>
      <trkpt lat="45.67784" lon="4.695">
        <ele>366</ele>
        <time>2021-08-23T19:43:31Z</time>
      </trkpt>
      <trkpt lat="45.67792" lon="4.69537">
        <ele>365</ele>
        <time>2021-08-23T19:43:44Z</time>
      </trkpt>
    </trkseg>
  </trk>
  <trk>
    <name><![CDATA[Off Car_3]]></name>
    <trkseg>
      <trkpt lat="45.67792" lon="4.69537">
        <ele>365</ele>
        <time>2021-08-23T19:43:44Z</time>
      </trkpt>
      <trkpt lat="45.67782" lon="4.69541">
        <ele>365</ele>
        <time>2021-08-23T19:43:49Z</time>
      </trkpt>
      <trkpt lat="45.67733" lon="4.69586">
        <ele>364</ele>
        <time>2021-08-23T19:44:18Z</time>
      </trkpt>
      <trkpt lat="45.67739" lon="4.696">
        <ele>364</ele>
        <time>2021-08-23T19:44:24Z</time>
      </trkpt>
      <trkpt lat="45.67782" lon="4.69551">
        <ele>365</ele>
        <time>2021-08-23T19:44:52Z</time>
      </trkpt>
      <trkpt lat="45.67802" lon="4.69596">
        <ele>364</ele>
        <time>2021-08-23T19:45:10Z</time>
      </trkpt>
      <trkpt lat="45.67806" lon="4.69601">
        <ele>364</ele>
        <time>2021-08-23T19:45:13Z</time>
      </trkpt>
      <trkpt lat="45.6781" lon="4.69597">
        <ele>365</ele>
        <time>2021-08-23T19:45:15Z</time>
      </trkpt>
      <trkpt lat="45.67832" lon="4.69676">
        <ele>364</ele>
        <time>2021-08-23T19:45:45Z</time>
      </trkpt>
    </trkseg>
  </trk>
  <trk>
    <name><![CDATA[Off Car_4]]></name>
    <trkseg>
      <trkpt lat="45.67832" lon="4.69676">
        <ele>364</ele>
        <time>2021-08-23T19:45:45Z</time>
      </trkpt>
      <trkpt lat="45.67836" lon="4.69735">
        <ele>362</ele>
        <time>2021-08-23T19:46:06Z</time>
      </trkpt>
      <trkpt lat="45.67838" lon="4.69879">
        <ele>356</ele>
        <time>2021-08-23T19:46:56Z</time>
      </trkpt>
      <trkpt lat="45.67841" lon="4.69903">
        <ele>356</ele>
        <time>2021-08-23T19:47:05Z</time>
      </trkpt>
      <trkpt lat="45.67859" lon="4.69974">
        <ele>353</ele>
        <time>2021-08-23T19:47:31Z</time>
      </trkpt>
      <trkpt lat="45.67865" lon="4.70011">
        <ele>352</ele>
        <time>2021-08-23T19:47:44Z</time>
      </trkpt>
      <trkpt lat="45.67956" lon="4.70031">
        <ele>353</ele>
        <time>2021-08-23T19:48:30Z</time>
      </trkpt>
      <trkpt lat="45.67961" lon="4.70029">
        <ele>353</ele>
        <time>2021-08-23T19:48:33Z</time>
      </trkpt>
      <trkpt lat="45.67966" lon="4.7002">
        <ele>354</ele>
        <time>2021-08-23T19:48:37Z</time>
      </trkpt>
      <trkpt lat="45.67999" lon="4.69872">
        <ele>362</ele>
        <time>2021-08-23T19:49:31Z</time>
      </trkpt>
      <trkpt lat="45.6808" lon="4.69717">
        <ele>363</ele>
        <time>2021-08-23T19:50:39Z</time>
      </trkpt>
      <trkpt lat="45.68094" lon="4.6973">
        <ele>362</ele>
        <time>2021-08-23T19:50:47Z</time>
      </trkpt>
      <trkpt lat="45.68163" lon="4.69775">
        <ele>358</ele>
        <time>2021-08-23T19:51:25Z</time>
      </trkpt>
      <trkpt lat="45.68232" lon="4.69828">
        <ele>354</ele>
        <time>2021-08-23T19:52:05Z</time>
      </trkpt>
      <trkpt lat="45.6826" lon="4.69855">
        <ele>353</ele>
        <time>2021-08-23T19:52:21Z</time>
      </trkpt>
      <trkpt lat="45.68304" lon="4.6991">
        <ele>352</ele>
        <time>2021-08-23T19:52:51Z</time>
      </trkpt>
      <trkpt lat="45.68321" lon="4.6994">
        <ele>352</ele>
        <time>2021-08-23T19:53:04Z</time>
      </trkpt>
      <trkpt lat="45.68355" lon="4.69973">
        <ele>352</ele>
        <time>2021-08-23T19:53:25Z</time>
      </trkpt>
      <trkpt lat="45.6837" lon="4.69959">
        <ele>352</ele>
        <time>2021-08-23T19:53:34Z</time>
      </trkpt>
      <trkpt lat="45.68398" lon="4.69943">
        <ele>352</ele>
        <time>2021-08-23T19:53:49Z</time>
      </trkpt>
      <trkpt lat="45.68425" lon="4.69939">
        <ele>351</ele>
        <time>2021-08-23T19:54:02Z</time>
      </trkpt>
      <trkpt lat="45.68451" lon="4.69945">
        <ele>349</ele>
        <time>2021-08-23T19:54:16Z</time>
      </trkpt>
      <trkpt lat="45.68468" lon="4.69944">
        <ele>348</ele>
        <time>2021-08-23T19:54:24Z</time>
      </trkpt>
      <trkpt lat="45.68474" lon="4.69904">
        <ele>347</ele>
        <time>2021-08-23T19:54:38Z</time>
      </trkpt>
      <trkpt lat="45.68479" lon="4.6989">
        <ele>346</ele>
        <time>2021-08-23T19:54:44Z</time>
      </trkpt>
      <trkpt lat="45.68532" lon="4.69858">
        <ele>340</ele>
        <time>2021-08-23T19:55:13Z</time>
      </trkpt>
      <trkpt lat="45.68698" lon="4.69745">
        <ele>319</ele>
        <time>2021-08-23T19:56:45Z</time>
      </trkpt>
      <trkpt lat="45.68788" lon="4.69668">
        <ele>312</ele>
        <time>2021-08-23T19:57:37Z</time>
      </trkpt>
      <trkpt lat="45.68835" lon="4.69634">
        <ele>309</ele>
        <time>2021-08-23T19:58:03Z</time>
      </trkpt>
      <trkpt lat="45.68892" lon="4.69607">
        <ele>308</ele>
        <time>2021-08-23T19:58:34Z</time>
      </trkpt>
      <trkpt lat="45.68914" lon="4.69589">
        <ele>308</ele>
        <time>2021-08-23T19:58:46Z</time>
      </trkpt>
      <trkpt lat="45.6896" lon="4.69545">
        <ele>307</ele>
        <time>2021-08-23T19:59:14Z</time>
      </trkpt>
      <trkpt lat="45.68976" lon="4.69535">
        <ele>306</ele>
        <time>2021-08-23T19:59:23Z</time>
      </trkpt>
      <trkpt lat="45.68999" lon="4.69527">
        <ele>305</ele>
        <time>2021-08-23T19:59:34Z</time>
      </trkpt>
      <trkpt lat="45.69071" lon="4.69513">
        <ele>300</ele>
        <time>2021-08-23T20:00:11Z</time>
      </trkpt>
      <trkpt lat="45.6914" lon="4.69466">
        <ele>292</ele>
        <time>2021-08-23T20:00:49Z</time>
      </trkpt>
      <trkpt lat="45.69172" lon="4.69424">
        <ele>289</ele>
        <time>2021-08-23T20:01:11Z</time>
      </trkpt>
      <trkpt lat="45.6923" lon="4.69329">
        <ele>287</ele>
        <time>2021-08-23T20:01:55Z</time>
      </trkpt>
      <trkpt lat="45.69258" lon="4.69303">
        <ele>288</ele>
        <time>2021-08-23T20:02:12Z</time>
      </trkpt>
      <trkpt lat="45.69268" lon="4.69288">
        <ele>288</ele>
        <time>2021-08-23T20:02:19Z</time>
      </trkpt>
      <trkpt lat="45.69267" lon="4.69283">
        <ele>288</ele>
        <time>2021-08-23T20:02:21Z</time>
      </trkpt>
      <trkpt lat="45.69281" lon="4.69259">
        <ele>290</ele>
        <time>2021-08-23T20:02:32Z</time>
      </trkpt>
      <trkpt lat="45.69293" lon="4.69259">
        <ele>291</ele>
        <time>2021-08-23T20:02:38Z</time>
      </trkpt>
      <trkpt lat="45.69312" lon="4.69276">
        <ele>291</ele>
        <time>2021-08-23T20:02:49Z</time>
      </trkpt>
      <trkpt lat="45.69327" lon="4.69283">
        <ele>291</ele>
        <time>2021-08-23T20:02:57Z</time>
      </trkpt>
      <trkpt lat="45.69343" lon="4.69287">
        <ele>292</ele>
        <time>2021-08-23T20:03:05Z</time>
      </trkpt>
      <trkpt lat="45.69356" lon="4.69286">
        <ele>293</ele>
        <time>2021-08-23T20:03:11Z</time>
      </trkpt>
      <trkpt lat="45.69418" lon="4.69258">
        <ele>302</ele>
        <time>2021-08-23T20:03:44Z</time>
      </trkpt>
      <trkpt lat="45.69436" lon="4.69247">
        <ele>305</ele>
        <time>2021-08-23T20:03:54Z</time>
      </trkpt>
      <trkpt lat="45.69455" lon="4.69226">
        <ele>308</ele>
        <time>2021-08-23T20:04:06Z</time>
      </trkpt>
      <trkpt lat="45.69469" lon="4.69232">
        <ele>309</ele>
        <time>2021-08-23T20:04:13Z</time>
      </trkpt>
      <trkpt lat="45.69477" lon="4.69228">
        <ele>310</ele>
        <time>2021-08-23T20:04:17Z</time>
      </trkpt>
      <trkpt lat="45.69501" lon="4.69148">
        <ele>319</ele>
        <time>2021-08-23T20:04:48Z</time>
      </trkpt>
      <trkpt lat="45.69514" lon="4.69148">
        <ele>319</ele>
        <time>2021-08-23T20:04:54Z</time>
      </trkpt>
      <trkpt lat="45.69512" lon="4.69165">
        <ele>318</ele>
        <time>2021-08-23T20:05:00Z</time>
      </trkpt>
      <trkpt lat="45.69518" lon="4.69196">
        <ele>316</ele>
        <time>2021-08-23T20:05:11Z</time>
      </trkpt>
      <trkpt lat="45.69524" lon="4.69274">
        <ele>309</ele>
        <time>2021-08-23T20:05:39Z</time>
      </trkpt>
      <trkpt lat="45.69532" lon="4.69288">
        <ele>308</ele>
        <time>2021-08-23T20:05:45Z</time>
      </trkpt>
      <trkpt lat="45.69545" lon="4.69297">
        <ele>308</ele>
        <time>2021-08-23T20:05:52Z</time>
      </trkpt>
      <trkpt lat="45.69552" lon="4.69314">
        <ele>307</ele>
        <time>2021-08-23T20:05:59Z</time>
      </trkpt>
      <trkpt lat="45.69552" lon="4.69338">
        <ele>306</ele>
        <time>2021-08-23T20:06:08Z</time>
      </trkpt>
      <trkpt lat="45.69548" lon="4.69358">
        <ele>305</ele>
        <time>2021-08-23T20:06:15Z</time>
      </trkpt>
      <trkpt lat="45.69549" lon="4.69432">
        <ele>299</ele>
        <time>2021-08-23T20:06:41Z</time>
      </trkpt>
      <trkpt lat="45.6961" lon="4.69438">
        <ele>297</ele>
        <time>2021-08-23T20:07:11Z</time>
      </trkpt>
      <trkpt lat="45.69651" lon="4.69427">
        <ele>295</ele>
        <time>2021-08-23T20:07:32Z</time>
      </trkpt>
      <trkpt lat="45.69698" lon="4.69402">
        <ele>295</ele>
        <time>2021-08-23T20:07:57Z</time>
      </trkpt>
      <trkpt lat="45.69725" lon="4.69382">
        <ele>296</ele>
        <time>2021-08-23T20:08:13Z</time>
      </trkpt>
      <trkpt lat="45.69826" lon="4.69298">
        <ele>300</ele>
        <time>2021-08-23T20:09:11Z</time>
      </trkpt>
      <trkpt lat="45.69844" lon="4.69296">
        <ele>301</ele>
        <time>2021-08-23T20:09:20Z</time>
      </trkpt>
      <trkpt lat="45.69881" lon="4.69274">
        <ele>303</ele>
        <time>2021-08-23T20:09:40Z</time>
      </trkpt>
      <trkpt lat="45.69893" lon="4.69281">
        <ele>303</ele>
        <time>2021-08-23T20:09:47Z</time>
      </trkpt>
      <trkpt lat="45.69973" lon="4.69238">
        <ele>304</ele>
        <time>2021-08-23T20:10:29Z</time>
      </trkpt>
      <trkpt lat="45.69987" lon="4.69236">
        <ele>304</ele>
        <time>2021-08-23T20:10:36Z</time>
      </trkpt>
      <trkpt lat="45.70055" lon="4.69249">
        <ele>303</ele>
        <time>2021-08-23T20:11:11Z</time>
      </trkpt>
      <trkpt lat="45.70061" lon="4.69246">
        <ele>303</ele>
        <time>2021-08-23T20:11:14Z</time>
      </trkpt>
      <trkpt lat="45.70085" lon="4.6928">
        <ele>302</ele>
        <time>2021-08-23T20:11:31Z</time>
      </trkpt>
      <trkpt lat="45.70071" lon="4.69342">
        <ele>302</ele>
        <time>2021-08-23T20:11:54Z</time>
      </trkpt>
      <trkpt lat="45.70021" lon="4.69399">
        <ele>300</ele>
        <time>2021-08-23T20:12:26Z</time>
      </trkpt>
      <trkpt lat="45.69998" lon="4.69412">
        <ele>299</ele>
        <time>2021-08-23T20:12:38Z</time>
      </trkpt>
      <trkpt lat="45.69974" lon="4.69416">
        <ele>299</ele>
        <time>2021-08-23T20:12:50Z</time>
      </trkpt>
      <trkpt lat="45.69961" lon="4.69432">
        <ele>298</ele>
        <time>2021-08-23T20:12:59Z</time>
      </trkpt>
      <trkpt lat="45.69945" lon="4.69487">
        <ele>295</ele>
        <time>2021-08-23T20:13:19Z</time>
      </trkpt>
      <trkpt lat="45.69928" lon="4.69527">
        <ele>292</ele>
        <time>2021-08-23T20:13:36Z</time>
      </trkpt>
      <trkpt lat="45.69888" lon="4.69573">
        <ele>289</ele>
        <time>2021-08-23T20:14:02Z</time>
      </trkpt>
      <trkpt lat="45.69867" lon="4.69628">
        <ele>287</ele>
        <time>2021-08-23T20:14:23Z</time>
      </trkpt>
      <trkpt lat="45.69846" lon="4.69697">
        <ele>281</ele>
        <time>2021-08-23T20:14:50Z</time>
      </trkpt>
      <trkpt lat="45.69848" lon="4.69742">
        <ele>278</ele>
        <time>2021-08-23T20:15:06Z</time>
      </trkpt>
      <trkpt lat="45.69863" lon="4.69813">
        <ele>280</ele>
        <time>2021-08-23T20:15:31Z</time>
      </trkpt>
      <trkpt lat="45.69859" lon="4.69825">
        <ele>280</ele>
        <time>2021-08-23T20:15:36Z</time>
      </trkpt>
      <trkpt lat="45.69846" lon="4.69849">
        <ele>278</ele>
        <time>2021-08-23T20:15:47Z</time>
      </trkpt>
      <trkpt lat="45.69848" lon="4.69862">
        <ele>278</ele>
        <time>2021-08-23T20:15:51Z</time>
      </trkpt>
      <trkpt lat="45.69864" lon="4.69883">
        <ele>278</ele>
        <time>2021-08-23T20:16:02Z</time>
      </trkpt>
      <trkpt lat="45.69935" lon="4.69917">
        <ele>281</ele>
        <time>2021-08-23T20:16:40Z</time>
      </trkpt>
      <trkpt lat="45.69946" lon="4.69933">
        <ele>282</ele>
        <time>2021-08-23T20:16:48Z</time>
      </trkpt>
      <trkpt lat="45.69953" lon="4.69952">
        <ele>282</ele>
        <time>2021-08-23T20:16:55Z</time>
      </trkpt>
      <trkpt lat="45.69986" lon="4.69995">
        <ele>282</ele>
        <time>2021-08-23T20:17:17Z</time>
      </trkpt>
      <trkpt lat="45.70003" lon="4.70031">
        <ele>280</ele>
        <time>2021-08-23T20:17:33Z</time>
      </trkpt>
      <trkpt lat="45.70008" lon="4.7005">
        <ele>279</ele>
        <time>2021-08-23T20:17:40Z</time>
      </trkpt>
      <trkpt lat="45.70023" lon="4.70078">
        <ele>279</ele>
        <time>2021-08-23T20:17:52Z</time>
      </trkpt>
      <trkpt lat="45.70028" lon="4.70095">
        <ele>279</ele>
        <time>2021-08-23T20:17:58Z</time>
      </trkpt>
      <trkpt lat="45.70091" lon="4.70212">
        <ele>272</ele>
        <time>2021-08-23T20:18:50Z</time>
      </trkpt>
      <trkpt lat="45.70124" lon="4.70279">
        <ele>273</ele>
        <time>2021-08-23T20:19:19Z</time>
      </trkpt>
      <trkpt lat="45.70133" lon="4.70325">
        <ele>272</ele>
        <time>2021-08-23T20:19:35Z</time>
      </trkpt>
      <trkpt lat="45.70138" lon="4.70395">
        <ele>274</ele>
        <time>2021-08-23T20:20:00Z</time>
      </trkpt>
      <trkpt lat="45.70198" lon="4.70309">
        <ele>282</ele>
        <time>2021-08-23T20:20:42Z</time>
      </trkpt>
      <trkpt lat="45.70201" lon="4.70295">
        <ele>283</ele>
        <time>2021-08-23T20:20:48Z</time>
      </trkpt>
      <trkpt lat="45.7019" lon="4.70238">
        <ele>287</ele>
        <time>2021-08-23T20:21:08Z</time>
      </trkpt>
      <trkpt lat="45.70177" lon="4.70187">
        <ele>291</ele>
        <time>2021-08-23T20:21:27Z</time>
      </trkpt>
      <trkpt lat="45.70121" lon="4.70059">
        <ele>298</ele>
        <time>2021-08-23T20:22:20Z</time>
      </trkpt>
      <trkpt lat="45.70171" lon="4.70039">
        <ele>305</ele>
        <time>2021-08-23T20:22:46Z</time>
      </trkpt>
      <trkpt lat="45.70249" lon="4.70026">
        <ele>306</ele>
        <time>2021-08-23T20:23:25Z</time>
      </trkpt>
      <trkpt lat="45.7027" lon="4.70009">
        <ele>306</ele>
        <time>2021-08-23T20:23:37Z</time>
      </trkpt>
      <trkpt lat="45.70328" lon="4.69909">
        <ele>307</ele>
        <time>2021-08-23T20:24:23Z</time>
      </trkpt>
      <trkpt lat="45.70336" lon="4.69873">
        <ele>308</ele>
        <time>2021-08-23T20:24:36Z</time>
      </trkpt>
      <trkpt lat="45.70336" lon="4.69852">
        <ele>308</ele>
        <time>2021-08-23T20:24:43Z</time>
      </trkpt>
      <trkpt lat="45.70325" lon="4.69777">
        <ele>310</ele>
        <time>2021-08-23T20:25:10Z</time>
      </trkpt>
      <trkpt lat="45.70329" lon="4.69765">
        <ele>309</ele>
        <time>2021-08-23T20:25:15Z</time>
      </trkpt>
      <trkpt lat="45.70376" lon="4.69773">
        <ele>307</ele>
        <time>2021-08-23T20:25:38Z</time>
      </trkpt>
      <trkpt lat="45.70423" lon="4.69751">
        <ele>306</ele>
        <time>2021-08-23T20:26:03Z</time>
      </trkpt>
      <trkpt lat="45.70494" lon="4.69828">
        <ele>297</ele>
        <time>2021-08-23T20:26:48Z</time>
      </trkpt>
      <trkpt lat="45.70523" lon="4.69853">
        <ele>293</ele>
        <time>2021-08-23T20:27:05Z</time>
      </trkpt>
      <trkpt lat="45.70572" lon="4.69866">
        <ele>290</ele>
        <time>2021-08-23T20:27:30Z</time>
      </trkpt>
      <trkpt lat="45.70608" lon="4.69894">
        <ele>291</ele>
        <time>2021-08-23T20:27:50Z</time>
      </trkpt>
      <trkpt lat="45.70618" lon="4.69906">
        <ele>291</ele>
        <time>2021-08-23T20:27:57Z</time>
      </trkpt>
      <trkpt lat="45.70624" lon="4.69924">
        <ele>292</ele>
        <time>2021-08-23T20:28:04Z</time>
      </trkpt>
      <trkpt lat="45.70624" lon="4.69962">
        <ele>295</ele>
        <time>2021-08-23T20:28:17Z</time>
      </trkpt>
      <trkpt lat="45.70621" lon="4.69983">
        <ele>296</ele>
        <time>2021-08-23T20:28:24Z</time>
      </trkpt>
      <trkpt lat="45.7061" lon="4.70009">
        <ele>297</ele>
        <time>2021-08-23T20:28:35Z</time>
      </trkpt>
      <trkpt lat="45.70588" lon="4.70039">
        <ele>297</ele>
        <time>2021-08-23T20:28:50Z</time>
      </trkpt>
      <trkpt lat="45.70528" lon="4.70192">
        <ele>298</ele>
        <time>2021-08-23T20:29:52Z</time>
      </trkpt>
      <trkpt lat="45.70506" lon="4.70334">
        <ele>309</ele>
        <time>2021-08-23T20:30:42Z</time>
      </trkpt>
      <trkpt lat="45.70505" lon="4.70353">
        <ele>310</ele>
        <time>2021-08-23T20:30:49Z</time>
      </trkpt>
      <trkpt lat="45.70516" lon="4.70421">
        <ele>315</ele>
        <time>2021-08-23T20:31:13Z</time>
      </trkpt>
      <trkpt lat="45.70519" lon="4.70464">
        <ele>315</ele>
        <time>2021-08-23T20:31:29Z</time>
      </trkpt>
      <trkpt lat="45.70519" lon="4.70579">
        <ele>313</ele>
        <time>2021-08-23T20:32:09Z</time>
      </trkpt>
      <trkpt lat="45.70523" lon="4.70641">
        <ele>311</ele>
        <time>2021-08-23T20:32:31Z</time>
      </trkpt>
      <trkpt lat="45.70539" lon="4.70744">
        <ele>307</ele>
        <time>2021-08-23T20:33:07Z</time>
      </trkpt>
      <trkpt lat="45.7054" lon="4.70811">
        <ele>306</ele>
        <time>2021-08-23T20:33:31Z</time>
      </trkpt>
      <trkpt lat="45.7055" lon="4.70915">
        <ele>307</ele>
        <time>2021-08-23T20:34:08Z</time>
      </trkpt>
      <trkpt lat="45.70539" lon="4.70979">
        <ele>306</ele>
        <time>2021-08-23T20:34:31Z</time>
      </trkpt>
      <trkpt lat="45.70535" lon="4.71026">
        <ele>306</ele>
        <time>2021-08-23T20:34:47Z</time>
      </trkpt>
      <trkpt lat="45.70537" lon="4.71069">
        <ele>305</ele>
        <time>2021-08-23T20:35:02Z</time>
      </trkpt>
      <trkpt lat="45.70546" lon="4.71136">
        <ele>306</ele>
        <time>2021-08-23T20:35:26Z</time>
      </trkpt>
      <trkpt lat="45.70631" lon="4.71319">
        <ele>311</ele>
        <time>2021-08-23T20:36:43Z</time>
      </trkpt>
      <trkpt lat="45.70649" lon="4.71363">
        <ele>311</ele>
        <time>2021-08-23T20:37:01Z</time>
      </trkpt>
      <trkpt lat="45.70692" lon="4.71533">
        <ele>312</ele>
        <time>2021-08-23T20:38:04Z</time>
      </trkpt>
      <trkpt lat="45.70703" lon="4.71613">
        <ele>312</ele>
        <time>2021-08-23T20:38:32Z</time>
      </trkpt>
      <trkpt lat="45.70716" lon="4.71669">
        <ele>314</ele>
        <time>2021-08-23T20:38:53Z</time>
      </trkpt>
      <trkpt lat="45.70714" lon="4.71678">
        <ele>314</ele>
        <time>2021-08-23T20:38:56Z</time>
      </trkpt>
      <trkpt lat="45.70722" lon="4.71759">
        <ele>316</ele>
        <time>2021-08-23T20:39:25Z</time>
      </trkpt>
      <trkpt lat="45.70737" lon="4.7179">
        <ele>316</ele>
        <time>2021-08-23T20:39:38Z</time>
      </trkpt>
      <trkpt lat="45.70774" lon="4.71853">
        <ele>315</ele>
        <time>2021-08-23T20:40:07Z</time>
      </trkpt>
      <trkpt lat="45.70829" lon="4.71935">
        <ele>313</ele>
        <time>2021-08-23T20:40:46Z</time>
      </trkpt>
      <trkpt lat="45.70864" lon="4.71996">
        <ele>313</ele>
        <time>2021-08-23T20:41:14Z</time>
      </trkpt>
      <trkpt lat="45.7084" lon="4.7204">
        <ele>313</ele>
        <time>2021-08-23T20:41:34Z</time>
      </trkpt>
      <trkpt lat="45.70795" lon="4.72156">
        <ele>312</ele>
        <time>2021-08-23T20:42:20Z</time>
      </trkpt>
      <trkpt lat="45.70763" lon="4.72294">
        <ele>311</ele>
        <time>2021-08-23T20:43:11Z</time>
      </trkpt>
      <trkpt lat="45.70748" lon="4.72336">
        <ele>311</ele>
        <time>2021-08-23T20:43:27Z</time>
      </trkpt>
      <trkpt lat="45.7068" lon="4.7245">
        <ele>311</ele>
        <time>2021-08-23T20:44:20Z</time>
      </trkpt>
      <trkpt lat="45.70596" lon="4.72625">
        <ele>310</ele>
        <time>2021-08-23T20:45:34Z</time>
      </trkpt>
      <trkpt lat="45.70549" lon="4.72716">
        <ele>308</ele>
        <time>2021-08-23T20:46:13Z</time>
      </trkpt>
      <trkpt lat="45.70518" lon="4.72755">
        <ele>307</ele>
        <time>2021-08-23T20:46:34Z</time>
      </trkpt>
      <trkpt lat="45.7047" lon="4.72774">
        <ele>307</ele>
        <time>2021-08-23T20:46:59Z</time>
      </trkpt>
      <trkpt lat="45.70439" lon="4.72796">
        <ele>307</ele>
        <time>2021-08-23T20:47:16Z</time>
      </trkpt>
      <trkpt lat="45.70431" lon="4.72828">
        <ele>307</ele>
        <time>2021-08-23T20:47:28Z</time>
      </trkpt>
      <trkpt lat="45.70378" lon="4.72934">
        <ele>306</ele>
        <time>2021-08-23T20:48:14Z</time>
      </trkpt>
      <trkpt lat="45.70335" lon="4.73042">
        <ele>307</ele>
        <time>2021-08-23T20:48:57Z</time>
      </trkpt>
      <trkpt lat="45.70324" lon="4.73088">
        <ele>307</ele>
        <time>2021-08-23T20:49:14Z</time>
      </trkpt>
      <trkpt lat="45.70367" lon="4.73147">
        <ele>308</ele>
        <time>2021-08-23T20:49:44Z</time>
      </trkpt>
      <trkpt lat="45.7039" lon="4.73167">
        <ele>308</ele>
        <time>2021-08-23T20:49:57Z</time>
      </trkpt>
      <trkpt lat="45.70549" lon="4.73271">
        <ele>308</ele>
        <time>2021-08-23T20:51:25Z</time>
      </trkpt>
      <trkpt lat="45.70578" lon="4.73305">
        <ele>307</ele>
        <time>2021-08-23T20:51:44Z</time>
      </trkpt>
      <trkpt lat="45.70693" lon="4.73466">
        <ele>311</ele>
        <time>2021-08-23T20:53:04Z</time>
      </trkpt>
      <trkpt lat="45.70757" lon="4.73533">
        <ele>312</ele>
        <time>2021-08-23T20:53:44Z</time>
      </trkpt>
      <trkpt lat="45.70771" lon="4.73449">
        <ele>310</ele>
        <time>2021-08-23T20:54:14Z</time>
      </trkpt>
      <trkpt lat="45.7078" lon="4.73438">
        <ele>310</ele>
        <time>2021-08-23T20:54:20Z</time>
      </trkpt>
      <trkpt lat="45.70799" lon="4.73356">
        <ele>308</ele>
        <time>2021-08-23T20:54:50Z</time>
      </trkpt>
      <trkpt lat="45.70819" lon="4.73353">
        <ele>309</ele>
        <time>2021-08-23T20:55:00Z</time>
      </trkpt>
      <trkpt lat="45.70852" lon="4.73341">
        <ele>308</ele>
        <time>2021-08-23T20:55:17Z</time>
      </trkpt>
      <trkpt lat="45.70873" lon="4.73345">
        <ele>308</ele>
        <time>2021-08-23T20:55:28Z</time>
      </trkpt>
      <trkpt lat="45.70876" lon="4.7339">
        <ele>310</ele>
        <time>2021-08-23T20:55:44Z</time>
      </trkpt>
      <trkpt lat="45.70845" lon="4.73537">
        <ele>313</ele>
        <time>2021-08-23T20:56:37Z</time>
      </trkpt>
      <trkpt lat="45.70853" lon="4.73544">
        <ele>313</ele>
        <time>2021-08-23T20:56:42Z</time>
      </trkpt>
      <trkpt lat="45.70833" lon="4.73608">
        <ele>314</ele>
        <time>2021-08-23T20:57:06Z</time>
      </trkpt>
      <trkpt lat="45.70787" lon="4.73572">
        <ele>314</ele>
        <time>2021-08-23T20:57:33Z</time>
      </trkpt>
      <trkpt lat="45.70705" lon="4.73496">
        <ele>311</ele>
        <time>2021-08-23T20:58:22Z</time>
      </trkpt>
      <trkpt lat="45.70672" lon="4.73635">
        <ele>312</ele>
        <time>2021-08-23T20:59:13Z</time>
      </trkpt>
      <trkpt lat="45.70556" lon="4.73626">
        <ele>311</ele>
        <time>2021-08-23T21:00:11Z</time>
      </trkpt>
      <trkpt lat="45.70554" lon="4.73688">
        <ele>312</ele>
        <time>2021-08-23T21:00:33Z</time>
      </trkpt>
      <trkpt lat="45.70493" lon="4.73714">
        <ele>311</ele>
        <time>2021-08-23T21:01:05Z</time>
      </trkpt>
      <trkpt lat="45.70501" lon="4.73769">
        <ele>312</ele>
        <time>2021-08-23T21:01:24Z</time>
      </trkpt>
      <trkpt lat="45.7053" lon="4.73844">
        <ele>312</ele>
        <time>2021-08-23T21:01:54Z</time>
      </trkpt>
      <trkpt lat="45.70549" lon="4.73868">
        <ele>312</ele>
        <time>2021-08-23T21:02:07Z</time>
      </trkpt>
      <trkpt lat="45.70556" lon="4.73957">
        <ele>312</ele>
        <time>2021-08-23T21:02:38Z</time>
      </trkpt>
      <trkpt lat="45.70569" lon="4.7405">
        <ele>310</ele>
        <time>2021-08-23T21:03:11Z</time>
      </trkpt>
      <trkpt lat="45.70572" lon="4.74135">
        <ele>309</ele>
        <time>2021-08-23T21:03:41Z</time>
      </trkpt>
      <trkpt lat="45.70583" lon="4.74175">
        <ele>308</ele>
        <time>2021-08-23T21:03:56Z</time>
      </trkpt>
      <trkpt lat="45.70585" lon="4.7419">
        <ele>308</ele>
        <time>2021-08-23T21:04:01Z</time>
      </trkpt>
      <trkpt lat="45.70385" lon="4.74269">
        <ele>311</ele>
        <time>2021-08-23T21:05:45Z</time>
      </trkpt>
      <trkpt lat="45.70408" lon="4.74365">
        <ele>310</ele>
        <time>2021-08-23T21:06:21Z</time>
      </trkpt>
      <trkpt lat="45.70421" lon="4.74438">
        <ele>311</ele>
        <time>2021-08-23T21:06:47Z</time>
      </trkpt>
      <trkpt lat="45.70428" lon="4.74576">
        <ele>312</ele>
        <time>2021-08-23T21:07:35Z</time>
      </trkpt>
      <trkpt lat="45.70432" lon="4.74748">
        <ele>305</ele>
        <time>2021-08-23T21:08:36Z</time>
      </trkpt>
      <trkpt lat="45.70443" lon="4.74809">
        <ele>301</ele>
        <time>2021-08-23T21:08:58Z</time>
      </trkpt>
      <trkpt lat="45.70461" lon="4.75142">
        <ele>278</ele>
        <time>2021-08-23T21:10:54Z</time>
      </trkpt>
      <trkpt lat="45.70464" lon="4.75243">
        <ele>273</ele>
        <time>2021-08-23T21:11:30Z</time>
      </trkpt>
      <trkpt lat="45.70459" lon="4.75249">
        <ele>273</ele>
        <time>2021-08-23T21:11:33Z</time>
      </trkpt>
      <trkpt lat="45.70462" lon="4.75259">
        <ele>272</ele>
        <time>2021-08-23T21:11:37Z</time>
      </trkpt>
      <trkpt lat="45.70463" lon="4.75308">
        <ele>272</ele>
        <time>2021-08-23T21:11:54Z</time>
      </trkpt>
      <trkpt lat="45.70465" lon="4.75336">
        <ele>272</ele>
        <time>2021-08-23T21:12:04Z</time>
      </trkpt>
      <trkpt lat="45.70468" lon="4.75341">
        <ele>273</ele>
        <time>2021-08-23T21:12:06Z</time>
      </trkpt>
      <trkpt lat="45.70467" lon="4.75352">
        <ele>274</ele>
        <time>2021-08-23T21:12:10Z</time>
      </trkpt>
      <trkpt lat="45.70437" lon="4.7539">
        <ele>274</ele>
        <time>2021-08-23T21:12:30Z</time>
      </trkpt>
      <trkpt lat="45.70428" lon="4.75424">
        <ele>276</ele>
        <time>2021-08-23T21:12:43Z</time>
      </trkpt>
      <trkpt lat="45.70454" lon="4.755">
        <ele>285</ele>
        <time>2021-08-23T21:13:12Z</time>
      </trkpt>
      <trkpt lat="45.70468" lon="4.75512">
        <ele>286</ele>
        <time>2021-08-23T21:13:20Z</time>
      </trkpt>
      <trkpt lat="45.7052" lon="4.75511">
        <ele>290</ele>
        <time>2021-08-23T21:13:46Z</time>
      </trkpt>
      <trkpt lat="45.70545" lon="4.75517">
        <ele>292</ele>
        <time>2021-08-23T21:13:59Z</time>
      </trkpt>
      <trkpt lat="45.70567" lon="4.75542">
        <ele>296</ele>
        <time>2021-08-23T21:14:13Z</time>
      </trkpt>
      <trkpt lat="45.70575" lon="4.75577">
        <ele>299</ele>
        <time>2021-08-23T21:14:26Z</time>
      </trkpt>
      <trkpt lat="45.7058" lon="4.75676">
        <ele>302</ele>
        <time>2021-08-23T21:15:01Z</time>
      </trkpt>
      <trkpt lat="45.70607" lon="4.75764">
        <ele>306</ele>
        <time>2021-08-23T21:15:34Z</time>
      </trkpt>
      <trkpt lat="45.7062" lon="4.75781">
        <ele>306</ele>
        <time>2021-08-23T21:15:43Z</time>
      </trkpt>
      <trkpt lat="45.7064" lon="4.75795">
        <ele>307</ele>
        <time>2021-08-23T21:15:54Z</time>
      </trkpt>
      <trkpt lat="45.70688" lon="4.75818">
        <ele>310</ele>
        <time>2021-08-23T21:16:19Z</time>
      </trkpt>
      <trkpt lat="45.70753" lon="4.75856">
        <ele>314</ele>
        <time>2021-08-23T21:16:55Z</time>
      </trkpt>
      <trkpt lat="45.70776" lon="4.75858">
        <ele>315</ele>
        <time>2021-08-23T21:17:06Z</time>
      </trkpt>
      <trkpt lat="45.7079" lon="4.75869">
        <ele>315</ele>
        <time>2021-08-23T21:17:14Z</time>
      </trkpt>
      <trkpt lat="45.70824" lon="4.75923">
        <ele>316</ele>
        <time>2021-08-23T21:17:40Z</time>
      </trkpt>
      <trkpt lat="45.70843" lon="4.75973">
        <ele>315</ele>
        <time>2021-08-23T21:17:59Z</time>
      </trkpt>
      <trkpt lat="45.70851" lon="4.76006">
        <ele>314</ele>
        <time>2021-08-23T21:18:12Z</time>
      </trkpt>
      <trkpt lat="45.70859" lon="4.76074">
        <ele>311</ele>
        <time>2021-08-23T21:18:36Z</time>
      </trkpt>
      <trkpt lat="45.70875" lon="4.76082">
        <ele>312</ele>
        <time>2021-08-23T21:18:44Z</time>
      </trkpt>
      <trkpt lat="45.70914" lon="4.76091">
        <ele>314</ele>
        <time>2021-08-23T21:19:04Z</time>
      </trkpt>
      <trkpt lat="45.70908" lon="4.76135">
        <ele>311</ele>
        <time>2021-08-23T21:19:20Z</time>
      </trkpt>
      <trkpt lat="45.70892" lon="4.76334">
        <ele>295</ele>
        <time>2021-08-23T21:20:30Z</time>
      </trkpt>
      <trkpt lat="45.70886" lon="4.76346">
        <ele>293</ele>
        <time>2021-08-23T21:20:35Z</time>
      </trkpt>
      <trkpt lat="45.70897" lon="4.7636">
        <ele>292</ele>
        <time>2021-08-23T21:20:42Z</time>
      </trkpt>
      <trkpt lat="45.70909" lon="4.76365">
        <ele>291</ele>
        <time>2021-08-23T21:20:48Z</time>
      </trkpt>
      <trkpt lat="45.70971" lon="4.76366">
        <ele>290</ele>
        <time>2021-08-23T21:21:19Z</time>
      </trkpt>
      <trkpt lat="45.70988" lon="4.76362">
        <ele>291</ele>
        <time>2021-08-23T21:21:28Z</time>
      </trkpt>
      <trkpt lat="45.71002" lon="4.76354">
        <ele>292</ele>
        <time>2021-08-23T21:21:36Z</time>
      </trkpt>
      <trkpt lat="45.71026" lon="4.76335">
        <ele>298</ele>
        <time>2021-08-23T21:21:49Z</time>
      </trkpt>
      <trkpt lat="45.71029" lon="4.7634">
        <ele>297</ele>
        <time>2021-08-23T21:21:52Z</time>
      </trkpt>
      <trkpt lat="45.71024" lon="4.76381">
        <ele>290</ele>
        <time>2021-08-23T21:22:06Z</time>
      </trkpt>
      <trkpt lat="45.71015" lon="4.76405">
        <ele>285</ele>
        <time>2021-08-23T21:22:16Z</time>
      </trkpt>
      <trkpt lat="45.7101" lon="4.76427">
        <ele>280</ele>
        <time>2021-08-23T21:22:24Z</time>
      </trkpt>
      <trkpt lat="45.7101" lon="4.76444">
        <ele>277</ele>
        <time>2021-08-23T21:22:30Z</time>
      </trkpt>
      <trkpt lat="45.71016" lon="4.7646">
        <ele>276</ele>
        <time>2021-08-23T21:22:36Z</time>
      </trkpt>
      <trkpt lat="45.71018" lon="4.76476">
        <ele>273</ele>
        <time>2021-08-23T21:22:42Z</time>
      </trkpt>
      <trkpt lat="45.71014" lon="4.7649">
        <ele>270</ele>
        <time>2021-08-23T21:22:47Z</time>
      </trkpt>
      <trkpt lat="45.70994" lon="4.76522">
        <ele>263</ele>
        <time>2021-08-23T21:23:02Z</time>
      </trkpt>
      <trkpt lat="45.70994" lon="4.76534">
        <ele>261</ele>
        <time>2021-08-23T21:23:06Z</time>
      </trkpt>
      <trkpt lat="45.71046" lon="4.76633">
        <ele>253</ele>
        <time>2021-08-23T21:23:50Z</time>
      </trkpt>
      <trkpt lat="45.71073" lon="4.76716">
        <ele>246</ele>
        <time>2021-08-23T21:24:22Z</time>
      </trkpt>
      <trkpt lat="45.71096" lon="4.76833">
        <ele>240</ele>
        <time>2021-08-23T21:25:04Z</time>
      </trkpt>
      <trkpt lat="45.71138" lon="4.7697">
        <ele>234</ele>
        <time>2021-08-23T21:25:56Z</time>
      </trkpt>
      <trkpt lat="45.71142" lon="4.76993">
        <ele>233</ele>
        <time>2021-08-23T21:26:05Z</time>
      </trkpt>
      <trkpt lat="45.71163" lon="4.76999">
        <ele>235</ele>
        <time>2021-08-23T21:26:15Z</time>
      </trkpt>
      <trkpt lat="45.71261" lon="4.77001">
        <ele>238</ele>
        <time>2021-08-23T21:27:04Z</time>
      </trkpt>
      <trkpt lat="45.71298" lon="4.76998">
        <ele>237</ele>
        <time>2021-08-23T21:27:23Z</time>
      </trkpt>
      <trkpt lat="45.71318" lon="4.76992">
        <ele>237</ele>
        <time>2021-08-23T21:27:33Z</time>
      </trkpt>
      <trkpt lat="45.71445" lon="4.76972">
        <ele>246</ele>
        <time>2021-08-23T21:28:37Z</time>
      </trkpt>
      <trkpt lat="45.71455" lon="4.76966">
        <ele>246</ele>
        <time>2021-08-23T21:28:42Z</time>
      </trkpt>
      <trkpt lat="45.71495" lon="4.76965">
        <ele>248</ele>
        <time>2021-08-23T21:29:02Z</time>
      </trkpt>
      <trkpt lat="45.71607" lon="4.76926">
        <ele>252</ele>
        <time>2021-08-23T21:30:00Z</time>
      </trkpt>
      <trkpt lat="45.71609" lon="4.76942">
        <ele>251</ele>
        <time>2021-08-23T21:30:06Z</time>
      </trkpt>
      <trkpt lat="45.71606" lon="4.76987">
        <ele>250</ele>
        <time>2021-08-23T21:30:22Z</time>
      </trkpt>
      <trkpt lat="45.71733" lon="4.77029">
        <ele>247</ele>
        <time>2021-08-23T21:31:27Z</time>
      </trkpt>
      <trkpt lat="45.71744" lon="4.77057">
        <ele>246</ele>
        <time>2021-08-23T21:31:38Z</time>
      </trkpt>
      <trkpt lat="45.71803" lon="4.77046">
        <ele>245</ele>
        <time>2021-08-23T21:32:08Z</time>
      </trkpt>
      <trkpt lat="45.71917" lon="4.77085">
        <ele>245</ele>
        <time>2021-08-23T21:33:07Z</time>
      </trkpt>
      <trkpt lat="45.71936" lon="4.77148">
        <ele>242</ele>
        <time>2021-08-23T21:33:30Z</time>
      </trkpt>
      <trkpt lat="45.71916" lon="4.77189">
        <ele>240</ele>
        <time>2021-08-23T21:33:48Z</time>
      </trkpt>
      <trkpt lat="45.71916" lon="4.77215">
        <ele>240</ele>
        <time>2021-08-23T21:33:57Z</time>
      </trkpt>
      <trkpt lat="45.71925" lon="4.77269">
        <ele>239</ele>
        <time>2021-08-23T21:34:16Z</time>
      </trkpt>
      <trkpt lat="45.71997" lon="4.77243">
        <ele>240</ele>
        <time>2021-08-23T21:34:54Z</time>
      </trkpt>
      <trkpt lat="45.7203" lon="4.77234">
        <ele>241</ele>
        <time>2021-08-23T21:35:10Z</time>
      </trkpt>
      <trkpt lat="45.72038" lon="4.77239">
        <ele>240</ele>
        <time>2021-08-23T21:35:15Z</time>
      </trkpt>
      <trkpt lat="45.72052" lon="4.77276">
        <ele>240</ele>
        <time>2021-08-23T21:35:29Z</time>
      </trkpt>
      <trkpt lat="45.72054" lon="4.77297">
        <ele>239</ele>
        <time>2021-08-23T21:35:37Z</time>
      </trkpt>
      <trkpt lat="45.72069" lon="4.77356">
        <ele>238</ele>
        <time>2021-08-23T21:35:59Z</time>
      </trkpt>
      <trkpt lat="45.72066" lon="4.77372">
        <ele>238</ele>
        <time>2021-08-23T21:36:05Z</time>
      </trkpt>
      <trkpt lat="45.72053" lon="4.77401">
        <ele>237</ele>
        <time>2021-08-23T21:36:17Z</time>
      </trkpt>
      <trkpt lat="45.72052" lon="4.77414">
        <ele>237</ele>
        <time>2021-08-23T21:36:21Z</time>
      </trkpt>
      <trkpt lat="45.72058" lon="4.7743">
        <ele>236</ele>
        <time>2021-08-23T21:36:28Z</time>
      </trkpt>
      <trkpt lat="45.72065" lon="4.77438">
        <ele>235</ele>
        <time>2021-08-23T21:36:32Z</time>
      </trkpt>
      <trkpt lat="45.72085" lon="4.7745">
        <ele>232</ele>
        <time>2021-08-23T21:36:43Z</time>
      </trkpt>
      <trkpt lat="45.72141" lon="4.77469">
        <ele>227</ele>
        <time>2021-08-23T21:37:12Z</time>
      </trkpt>
      <trkpt lat="45.72172" lon="4.77492">
        <ele>223</ele>
        <time>2021-08-23T21:37:29Z</time>
      </trkpt>
      <trkpt lat="45.72197" lon="4.77506">
        <ele>219</ele>
        <time>2021-08-23T21:37:43Z</time>
      </trkpt>
      <trkpt lat="45.72218" lon="4.77514">
        <ele>217</ele>
        <time>2021-08-23T21:37:53Z</time>
      </trkpt>
      <trkpt lat="45.72299" lon="4.7758">
        <ele>211</ele>
        <time>2021-08-23T21:38:40Z</time>
      </trkpt>
      <trkpt lat="45.72348" lon="4.77631">
        <ele>207</ele>
        <time>2021-08-23T21:39:10Z</time>
      </trkpt>
      <trkpt lat="45.72396" lon="4.77637">
        <ele>204</ele>
        <time>2021-08-23T21:39:35Z</time>
      </trkpt>
      <trkpt lat="45.72396" lon="4.77634">
        <ele>205</ele>
        <time>2021-08-23T21:39:36Z</time>
      </trkpt>
      <trkpt lat="45.72402" lon="4.77627">
        <ele>205</ele>
        <time>2021-08-23T21:39:39Z</time>
      </trkpt>
      <trkpt lat="45.72409" lon="4.77634">
        <ele>204</ele>
        <time>2021-08-23T21:39:44Z</time>
      </trkpt>
      <trkpt lat="45.72446" lon="4.77604">
        <ele>205</ele>
        <time>2021-08-23T21:40:05Z</time>
      </trkpt>
      <trkpt lat="45.72468" lon="4.77554">
        <ele>207</ele>
        <time>2021-08-23T21:40:26Z</time>
      </trkpt>
      <trkpt lat="45.72513" lon="4.77524">
        <ele>207</ele>
        <time>2021-08-23T21:40:50Z</time>
      </trkpt>
      <trkpt lat="45.72568" lon="4.77508">
        <ele>209</ele>
        <time>2021-08-23T21:41:19Z</time>
      </trkpt>
      <trkpt lat="45.7258" lon="4.77576">
        <ele>207</ele>
        <time>2021-08-23T21:41:43Z</time>
      </trkpt>
      <trkpt lat="45.72579" lon="4.77621">
        <ele>205</ele>
        <time>2021-08-23T21:41:59Z</time>
      </trkpt>
      <trkpt lat="45.72582" lon="4.77651">
        <ele>204</ele>
        <time>2021-08-23T21:42:09Z</time>
      </trkpt>
      <trkpt lat="45.72597" lon="4.77704">
        <ele>198</ele>
        <time>2021-08-23T21:42:29Z</time>
      </trkpt>
      <trkpt lat="45.72608" lon="4.77761">
        <ele>192</ele>
        <time>2021-08-23T21:42:50Z</time>
      </trkpt>
      <trkpt lat="45.72632" lon="4.77928">
        <ele>177</ele>
        <time>2021-08-23T21:43:50Z</time>
      </trkpt>
      <trkpt lat="45.72635" lon="4.77982">
        <ele>177</ele>
        <time>2021-08-23T21:44:09Z</time>
      </trkpt>
      <trkpt lat="45.72656" lon="4.78116">
        <ele>192</ele>
        <time>2021-08-23T21:44:57Z</time>
      </trkpt>
      <trkpt lat="45.72654" lon="4.7813">
        <ele>194</ele>
        <time>2021-08-23T21:45:01Z</time>
      </trkpt>
      <trkpt lat="45.72633" lon="4.78156">
        <ele>195</ele>
        <time>2021-08-23T21:45:15Z</time>
      </trkpt>
      <trkpt lat="45.7263" lon="4.78165">
        <ele>196</ele>
        <time>2021-08-23T21:45:19Z</time>
      </trkpt>
      <trkpt lat="45.72626" lon="4.78234">
        <ele>208</ele>
        <time>2021-08-23T21:45:43Z</time>
      </trkpt>
      <trkpt lat="45.72643" lon="4.78298">
        <ele>220</ele>
        <time>2021-08-23T21:46:07Z</time>
      </trkpt>
      <trkpt lat="45.72657" lon="4.7833">
        <ele>224</ele>
        <time>2021-08-23T21:46:20Z</time>
      </trkpt>
      <trkpt lat="45.72667" lon="4.78363">
        <ele>228</ele>
        <time>2021-08-23T21:46:33Z</time>
      </trkpt>
      <trkpt lat="45.72684" lon="4.78449">
        <ele>236</ele>
        <time>2021-08-23T21:47:04Z</time>
      </trkpt>
      <trkpt lat="45.72706" lon="4.7858">
        <ele>248</ele>
        <time>2021-08-23T21:47:51Z</time>
      </trkpt>
      <trkpt lat="45.72714" lon="4.78646">
        <ele>253</ele>
        <time>2021-08-23T21:48:14Z</time>
      </trkpt>
      <trkpt lat="45.72652" lon="4.78668">
        <ele>253</ele>
        <time>2021-08-23T21:48:46Z</time>
      </trkpt>
      <trkpt lat="45.72633" lon="4.78687">
        <ele>256</ele>
        <time>2021-08-23T21:48:58Z</time>
      </trkpt>
      <trkpt lat="45.7262" lon="4.78707">
        <ele>257</ele>
        <time>2021-08-23T21:49:08Z</time>
      </trkpt>
      <trkpt lat="45.72612" lon="4.78739">
        <ele>260</ele>
        <time>2021-08-23T21:49:19Z</time>
      </trkpt>
      <trkpt lat="45.72608" lon="4.78747">
        <ele>261</ele>
        <time>2021-08-23T21:49:23Z</time>
      </trkpt>
      <trkpt lat="45.72623" lon="4.78794">
        <ele>263</ele>
        <time>2021-08-23T21:49:41Z</time>
      </trkpt>
      <trkpt lat="45.72635" lon="4.78849">
        <ele>267</ele>
        <time>2021-08-23T21:50:01Z</time>
      </trkpt>
      <trkpt lat="45.72644" lon="4.78877">
        <ele>269</ele>
        <time>2021-08-23T21:50:12Z</time>
      </trkpt>
      <trkpt lat="45.72653" lon="4.78892">
        <ele>272</ele>
        <time>2021-08-23T21:50:19Z</time>
      </trkpt>
      <trkpt lat="45.72686" lon="4.78935">
        <ele>278</ele>
        <time>2021-08-23T21:50:41Z</time>
      </trkpt>
      <trkpt lat="45.72758" lon="4.78996">
        <ele>281</ele>
        <time>2021-08-23T21:51:23Z</time>
      </trkpt>
      <trkpt lat="45.7268" lon="4.79102">
        <ele>268</ele>
        <time>2021-08-23T21:52:17Z</time>
      </trkpt>
      <trkpt lat="45.72664" lon="4.79091">
        <ele>266</ele>
        <time>2021-08-23T21:52:26Z</time>
      </trkpt>
      <trkpt lat="45.72649" lon="4.7909">
        <ele>261</ele>
        <time>2021-08-23T21:52:33Z</time>
      </trkpt>
      <trkpt lat="45.72633" lon="4.79083">
        <ele>257</ele>
        <time>2021-08-23T21:52:41Z</time>
      </trkpt>
      <trkpt lat="45.72619" lon="4.79086">
        <ele>252</ele>
        <time>2021-08-23T21:52:49Z</time>
      </trkpt>
      <trkpt lat="45.72609" lon="4.79093">
        <ele>249</ele>
        <time>2021-08-23T21:52:54Z</time>
      </trkpt>
      <trkpt lat="45.72603" lon="4.79108">
        <ele>246</ele>
        <time>2021-08-23T21:53:00Z</time>
      </trkpt>
      <trkpt lat="45.72604" lon="4.79144">
        <ele>245</ele>
        <time>2021-08-23T21:53:13Z</time>
      </trkpt>
      <trkpt lat="45.72609" lon="4.79179">
        <ele>246</ele>
        <time>2021-08-23T21:53:25Z</time>
      </trkpt>
      <trkpt lat="45.72606" lon="4.79181">
        <ele>245</ele>
        <time>2021-08-23T21:53:27Z</time>
      </trkpt>
      <trkpt lat="45.72597" lon="4.79207">
        <ele>242</ele>
        <time>2021-08-23T21:53:37Z</time>
      </trkpt>
      <trkpt lat="45.72589" lon="4.79239">
        <ele>240</ele>
        <time>2021-08-23T21:53:49Z</time>
      </trkpt>
      <trkpt lat="45.72586" lon="4.79263">
        <ele>239</ele>
        <time>2021-08-23T21:53:57Z</time>
      </trkpt>
      <trkpt lat="45.72589" lon="4.793">
        <ele>239</ele>
        <time>2021-08-23T21:54:10Z</time>
      </trkpt>
      <trkpt lat="45.7258" lon="4.79295">
        <ele>237</ele>
        <time>2021-08-23T21:54:15Z</time>
      </trkpt>
      <trkpt lat="45.7257" lon="4.79272">
        <ele>234</ele>
        <time>2021-08-23T21:54:25Z</time>
      </trkpt>
      <trkpt lat="45.72571" lon="4.7924">
        <ele>234</ele>
        <time>2021-08-23T21:54:36Z</time>
      </trkpt>
      <trkpt lat="45.7258" lon="4.79218">
        <ele>237</ele>
        <time>2021-08-23T21:54:45Z</time>
      </trkpt>
      <trkpt lat="45.72582" lon="4.79179">
        <ele>238</ele>
        <time>2021-08-23T21:54:58Z</time>
      </trkpt>
      <trkpt lat="45.72572" lon="4.79141">
        <ele>235</ele>
        <time>2021-08-23T21:55:13Z</time>
      </trkpt>
      <trkpt lat="45.72554" lon="4.79105">
        <ele>230</ele>
        <time>2021-08-23T21:55:28Z</time>
      </trkpt>
      <trkpt lat="45.72551" lon="4.79106">
        <ele>229</ele>
        <time>2021-08-23T21:55:30Z</time>
      </trkpt>
      <trkpt lat="45.7255" lon="4.79114">
        <ele>228</ele>
        <time>2021-08-23T21:55:33Z</time>
      </trkpt>
      <trkpt lat="45.72558" lon="4.79135">
        <ele>231</ele>
        <time>2021-08-23T21:55:41Z</time>
      </trkpt>
      <trkpt lat="45.72563" lon="4.79159">
        <ele>231</ele>
        <time>2021-08-23T21:55:50Z</time>
      </trkpt>
      <trkpt lat="45.72556" lon="4.79181">
        <ele>229</ele>
        <time>2021-08-23T21:55:58Z</time>
      </trkpt>
      <trkpt lat="45.72546" lon="4.79275">
        <ele>226</ele>
        <time>2021-08-23T21:56:31Z</time>
      </trkpt>
      <trkpt lat="45.72553" lon="4.79325">
        <ele>229</ele>
        <time>2021-08-23T21:56:49Z</time>
      </trkpt>
      <trkpt lat="45.72551" lon="4.79345">
        <ele>229</ele>
        <time>2021-08-23T21:56:56Z</time>
      </trkpt>
      <trkpt lat="45.72537" lon="4.79371">
        <ele>225</ele>
        <time>2021-08-23T21:57:08Z</time>
      </trkpt>
      <trkpt lat="45.72529" lon="4.79364">
        <ele>223</ele>
        <time>2021-08-23T21:57:12Z</time>
      </trkpt>
      <trkpt lat="45.72499" lon="4.79377">
        <ele>215</ele>
        <time>2021-08-23T21:57:28Z</time>
      </trkpt>
      <trkpt lat="45.72482" lon="4.79389">
        <ele>212</ele>
        <time>2021-08-23T21:57:37Z</time>
      </trkpt>
      <trkpt lat="45.72477" lon="4.79402">
        <ele>211</ele>
        <time>2021-08-23T21:57:43Z</time>
      </trkpt>
      <trkpt lat="45.72486" lon="4.79424">
        <ele>213</ele>
        <time>2021-08-23T21:57:52Z</time>
      </trkpt>
      <trkpt lat="45.72491" lon="4.79425">
        <ele>214</ele>
        <time>2021-08-23T21:57:54Z</time>
      </trkpt>
      <trkpt lat="45.72496" lon="4.79417">
        <ele>214</ele>
        <time>2021-08-23T21:57:58Z</time>
      </trkpt>
      <trkpt lat="45.72502" lon="4.7942">
        <ele>216</ele>
        <time>2021-08-23T21:58:01Z</time>
      </trkpt>
      <trkpt lat="45.72502" lon="4.79433">
        <ele>216</ele>
        <time>2021-08-23T21:58:06Z</time>
      </trkpt>
      <trkpt lat="45.72508" lon="4.7944">
        <ele>218</ele>
        <time>2021-08-23T21:58:09Z</time>
      </trkpt>
      <trkpt lat="45.72519" lon="4.79439">
        <ele>221</ele>
        <time>2021-08-23T21:58:15Z</time>
      </trkpt>
      <trkpt lat="45.72527" lon="4.79431">
        <ele>223</ele>
        <time>2021-08-23T21:58:20Z</time>
      </trkpt>
      <trkpt lat="45.72532" lon="4.79432">
        <ele>225</ele>
        <time>2021-08-23T21:58:22Z</time>
      </trkpt>
      <trkpt lat="45.72533" lon="4.79438">
        <ele>225</ele>
        <time>2021-08-23T21:58:25Z</time>
      </trkpt>
      <trkpt lat="45.72539" lon="4.79446">
        <ele>227</ele>
        <time>2021-08-23T21:58:29Z</time>
      </trkpt>
      <trkpt lat="45.72544" lon="4.79438">
        <ele>228</ele>
        <time>2021-08-23T21:58:32Z</time>
      </trkpt>
      <trkpt lat="45.72554" lon="4.79435">
        <ele>231</ele>
        <time>2021-08-23T21:58:38Z</time>
      </trkpt>
      <trkpt lat="45.72549" lon="4.79444">
        <ele>230</ele>
        <time>2021-08-23T21:58:42Z</time>
      </trkpt>
      <trkpt lat="45.72533" lon="4.795">
        <ele>227</ele>
        <time>2021-08-23T21:59:03Z</time>
      </trkpt>
      <trkpt lat="45.72561" lon="4.79596">
        <ele>235</ele>
        <time>2021-08-23T21:59:39Z</time>
      </trkpt>
      <trkpt lat="45.72564" lon="4.79625">
        <ele>238</ele>
        <time>2021-08-23T21:59:49Z</time>
      </trkpt>
      <trkpt lat="45.72575" lon="4.7964">
        <ele>242</ele>
        <time>2021-08-23T21:59:57Z</time>
      </trkpt>
      <trkpt lat="45.72578" lon="4.7965">
        <ele>244</ele>
        <time>2021-08-23T22:00:01Z</time>
      </trkpt>
      <trkpt lat="45.72576" lon="4.7967">
        <ele>244</ele>
        <time>2021-08-23T22:00:08Z</time>
      </trkpt>
      <trkpt lat="45.72583" lon="4.79715">
        <ele>248</ele>
        <time>2021-08-23T22:00:24Z</time>
      </trkpt>
      <trkpt lat="45.72602" lon="4.79714">
        <ele>251</ele>
        <time>2021-08-23T22:00:33Z</time>
      </trkpt>
      <trkpt lat="45.7261" lon="4.79716">
        <ele>253</ele>
        <time>2021-08-23T22:00:37Z</time>
      </trkpt>
      <trkpt lat="45.72607" lon="4.79727">
        <ele>253</ele>
        <time>2021-08-23T22:00:42Z</time>
      </trkpt>
      <trkpt lat="45.7262" lon="4.79886">
        <ele>251</ele>
        <time>2021-08-23T22:01:37Z</time>
      </trkpt>
      <trkpt lat="45.72625" lon="4.79917">
        <ele>250</ele>
        <time>2021-08-23T22:01:49Z</time>
      </trkpt>
      <trkpt lat="45.72629" lon="4.80003">
        <ele>251</ele>
        <time>2021-08-23T22:02:19Z</time>
      </trkpt>
      <trkpt lat="45.72643" lon="4.80047">
        <ele>251</ele>
        <time>2021-08-23T22:02:36Z</time>
      </trkpt>
      <trkpt lat="45.72668" lon="4.80109">
        <ele>252</ele>
        <time>2021-08-23T22:03:01Z</time>
      </trkpt>
      <trkpt lat="45.7267" lon="4.80122">
        <ele>252</ele>
        <time>2021-08-23T22:03:05Z</time>
      </trkpt>
      <trkpt lat="45.72636" lon="4.80315">
        <ele>244</ele>
        <time>2021-08-23T22:04:15Z</time>
      </trkpt>
      <trkpt lat="45.72602" lon="4.80439">
        <ele>230</ele>
        <time>2021-08-23T22:05:01Z</time>
      </trkpt>
      <trkpt lat="45.72624" lon="4.80462">
        <ele>231</ele>
        <time>2021-08-23T22:05:15Z</time>
      </trkpt>
      <trkpt lat="45.72618" lon="4.80471">
        <ele>230</ele>
        <time>2021-08-23T22:05:19Z</time>
      </trkpt>
      <trkpt lat="45.72602" lon="4.80475">
        <ele>228</ele>
        <time>2021-08-23T22:05:27Z</time>
      </trkpt>
      <trkpt lat="45.72601" lon="4.80506">
        <ele>227</ele>
        <time>2021-08-23T22:05:38Z</time>
      </trkpt>
      <trkpt lat="45.72597" lon="4.80527">
        <ele>227</ele>
        <time>2021-08-23T22:05:46Z</time>
      </trkpt>
      <trkpt lat="45.72621" lon="4.80548">
        <ele>228</ele>
        <time>2021-08-23T22:06:00Z</time>
      </trkpt>
      <trkpt lat="45.72626" lon="4.80558">
        <ele>228</ele>
        <time>2021-08-23T22:06:04Z</time>
      </trkpt>
      <trkpt lat="45.72621" lon="4.80591">
        <ele>228</ele>
        <time>2021-08-23T22:06:16Z</time>
      </trkpt>
      <trkpt lat="45.72627" lon="4.8061">
        <ele>229</ele>
        <time>2021-08-23T22:06:23Z</time>
      </trkpt>
      <trkpt lat="45.72628" lon="4.80643">
        <ele>231</ele>
        <time>2021-08-23T22:06:35Z</time>
      </trkpt>
      <trkpt lat="45.72564" lon="4.80691">
        <ele>233</ele>
        <time>2021-08-23T22:07:11Z</time>
      </trkpt>
      <trkpt lat="45.72521" lon="4.80716">
        <ele>233</ele>
        <time>2021-08-23T22:07:34Z</time>
      </trkpt>
      <trkpt lat="45.72533" lon="4.80746">
        <ele>235</ele>
        <time>2021-08-23T22:07:46Z</time>
      </trkpt>
      <trkpt lat="45.72554" lon="4.80776">
        <ele>237</ele>
        <time>2021-08-23T22:08:01Z</time>
      </trkpt>
      <trkpt lat="45.72571" lon="4.80789">
        <ele>238</ele>
        <time>2021-08-23T22:08:11Z</time>
      </trkpt>
      <trkpt lat="45.72592" lon="4.80824">
        <ele>239</ele>
        <time>2021-08-23T22:08:27Z</time>
      </trkpt>
      <trkpt lat="45.72611" lon="4.80846">
        <ele>238</ele>
        <time>2021-08-23T22:08:39Z</time>
      </trkpt>
      <trkpt lat="45.72646" lon="4.80911">
        <ele>235</ele>
        <time>2021-08-23T22:09:08Z</time>
      </trkpt>
      <trkpt lat="45.72661" lon="4.80927">
        <ele>234</ele>
        <time>2021-08-23T22:09:17Z</time>
      </trkpt>
      <trkpt lat="45.72677" lon="4.80933">
        <ele>234</ele>
        <time>2021-08-23T22:09:25Z</time>
      </trkpt>
      <trkpt lat="45.72701" lon="4.80934">
        <ele>236</ele>
        <time>2021-08-23T22:09:37Z</time>
      </trkpt>
      <trkpt lat="45.72737" lon="4.80926">
        <ele>240</ele>
        <time>2021-08-23T22:09:56Z</time>
      </trkpt>
      <trkpt lat="45.72743" lon="4.80927">
        <ele>240</ele>
        <time>2021-08-23T22:09:59Z</time>
      </trkpt>
      <trkpt lat="45.72754" lon="4.80922">
        <ele>241</ele>
        <time>2021-08-23T22:10:04Z</time>
      </trkpt>
      <trkpt lat="45.72811" lon="4.80966">
        <ele>241</ele>
        <time>2021-08-23T22:10:37Z</time>
      </trkpt>
      <trkpt lat="45.72834" lon="4.8101">
        <ele>243</ele>
        <time>2021-08-23T22:10:56Z</time>
      </trkpt>
      <trkpt lat="45.72848" lon="4.81026">
        <ele>243</ele>
        <time>2021-08-23T22:11:05Z</time>
      </trkpt>
      <trkpt lat="45.72873" lon="4.81032">
        <ele>243</ele>
        <time>2021-08-23T22:11:18Z</time>
      </trkpt>
      <trkpt lat="45.72902" lon="4.81034">
        <ele>243</ele>
        <time>2021-08-23T22:11:32Z</time>
      </trkpt>
      <trkpt lat="45.72947" lon="4.81133">
        <ele>237</ele>
        <time>2021-08-23T22:12:14Z</time>
      </trkpt>
      <trkpt lat="45.72949" lon="4.81145">
        <ele>237</ele>
        <time>2021-08-23T22:12:18Z</time>
      </trkpt>
      <trkpt lat="45.72993" lon="4.81248">
        <ele>225</ele>
        <time>2021-08-23T22:13:00Z</time>
      </trkpt>
      <trkpt lat="45.72995" lon="4.81256">
        <ele>224</ele>
        <time>2021-08-23T22:13:03Z</time>
      </trkpt>
      <trkpt lat="45.72992" lon="4.81278">
        <ele>221</ele>
        <time>2021-08-23T22:13:11Z</time>
      </trkpt>
      <trkpt lat="45.73007" lon="4.81339">
        <ele>211</ele>
        <time>2021-08-23T22:13:33Z</time>
      </trkpt>
      <trkpt lat="45.73034" lon="4.81367">
        <ele>199</ele>
        <time>2021-08-23T22:13:50Z</time>
      </trkpt>
      <trkpt lat="45.7308" lon="4.81454">
        <ele>173</ele>
        <time>2021-08-23T22:14:28Z</time>
      </trkpt>
      <trkpt lat="45.73114" lon="4.81389">
        <ele>179</ele>
        <time>2021-08-23T22:14:57Z</time>
      </trkpt>
      <trkpt lat="45.73128" lon="4.81367">
        <ele>183</ele>
        <time>2021-08-23T22:15:07Z</time>
      </trkpt>
      <trkpt lat="45.7314" lon="4.81355">
        <ele>184</ele>
        <time>2021-08-23T22:15:14Z</time>
      </trkpt>
      <trkpt lat="45.73198" lon="4.81326">
        <ele>182</ele>
        <time>2021-08-23T22:15:45Z</time>
      </trkpt>
      <trkpt lat="45.73248" lon="4.81308">
        <ele>180</ele>
        <time>2021-08-23T22:16:11Z</time>
      </trkpt>
      <trkpt lat="45.73245" lon="4.81318">
        <ele>178</ele>
        <time>2021-08-23T22:16:15Z</time>
      </trkpt>
      <trkpt lat="45.73138" lon="4.81374">
        <ele>179</ele>
        <time>2021-08-23T22:17:12Z</time>
      </trkpt>
      <trkpt lat="45.73122" lon="4.81401">
        <ele>175</ele>
        <time>2021-08-23T22:17:24Z</time>
      </trkpt>
      <trkpt lat="45.73047" lon="4.81553">
        <ele>168</ele>
        <time>2021-08-23T22:18:29Z</time>
      </trkpt>
      <trkpt lat="45.73035" lon="4.81567">
        <ele>167</ele>
        <time>2021-08-23T22:18:37Z</time>
      </trkpt>
      <trkpt lat="45.73016" lon="4.81582">
        <ele>166</ele>
        <time>2021-08-23T22:18:48Z</time>
      </trkpt>
      <trkpt lat="45.73014" lon="4.81572">
        <ele>167</ele>
        <time>2021-08-23T22:18:51Z</time>
      </trkpt>
      <trkpt lat="45.73015" lon="4.81575">
        <ele>167</ele>
        <time>2021-08-23T22:18:52Z</time>
      </trkpt>
      <trkpt lat="45.73033" lon="4.81566">
        <ele>167</ele>
        <time>2021-08-23T22:19:02Z</time>
      </trkpt>
      <trkpt lat="45.73043" lon="4.81564">
        <ele>167</ele>
        <time>2021-08-23T22:19:07Z</time>
      </trkpt>
      <trkpt lat="45.73065" lon="4.81566">
        <ele>166</ele>
        <time>2021-08-23T22:19:18Z</time>
      </trkpt>
      <trkpt lat="45.73077" lon="4.81573">
        <ele>165</ele>
        <time>2021-08-23T22:19:25Z</time>
      </trkpt>
      <trkpt lat="45.73188" lon="4.81666">
        <ele>166</ele>
        <time>2021-08-23T22:20:29Z</time>
      </trkpt>
      <trkpt lat="45.73254" lon="4.81735">
        <ele>169</ele>
        <time>2021-08-23T22:21:10Z</time>
      </trkpt>
      <trkpt lat="45.73263" lon="4.81737">
        <ele>169</ele>
        <time>2021-08-23T22:21:14Z</time>
      </trkpt>
      <trkpt lat="45.73336" lon="4.81801">
        <ele>168</ele>
        <time>2021-08-23T22:21:57Z</time>
      </trkpt>
      <trkpt lat="45.73345" lon="4.81817">
        <ele>168</ele>
        <time>2021-08-23T22:22:04Z</time>
      </trkpt>
      <trkpt lat="45.73367" lon="4.81841">
        <ele>168</ele>
        <time>2021-08-23T22:22:18Z</time>
      </trkpt>
      <trkpt lat="45.73336" lon="4.8195">
        <ele>165</ele>
        <time>2021-08-23T22:22:59Z</time>
      </trkpt>
      <trkpt lat="45.73198" lon="4.82124">
        <ele>165</ele>
        <time>2021-08-23T22:24:31Z</time>
      </trkpt>
      <trkpt lat="45.73191" lon="4.82137">
        <ele>165</ele>
        <time>2021-08-23T22:24:37Z</time>
      </trkpt>
      <trkpt lat="45.73182" lon="4.82168">
        <ele>166</ele>
        <time>2021-08-23T22:24:49Z</time>
      </trkpt>
      <trkpt lat="45.73166" lon="4.82273">
        <ele>167</ele>
        <time>2021-08-23T22:25:26Z</time>
      </trkpt>
      <trkpt lat="45.73056" lon="4.82249">
        <ele>167</ele>
        <time>2021-08-23T22:26:22Z</time>
      </trkpt>
      <trkpt lat="45.73001" lon="4.82234">
        <ele>165</ele>
        <time>2021-08-23T22:26:50Z</time>
      </trkpt>
      <trkpt lat="45.72991" lon="4.82226">
        <ele>166</ele>
        <time>2021-08-23T22:26:56Z</time>
      </trkpt>
      <trkpt lat="45.72913" lon="4.82144">
        <ele>165</ele>
        <time>2021-08-23T22:27:44Z</time>
      </trkpt>
      <trkpt lat="45.72903" lon="4.82155">
        <ele>166</ele>
        <time>2021-08-23T22:27:50Z</time>
      </trkpt>
      <trkpt lat="45.729" lon="4.82288">
        <ele>167</ele>
        <time>2021-08-23T22:28:37Z</time>
      </trkpt>
      <trkpt lat="45.72883" lon="4.82287">
        <ele>167</ele>
        <time>2021-08-23T22:28:45Z</time>
      </trkpt>
      <trkpt lat="45.72881" lon="4.82367">
        <ele>166</ele>
        <time>2021-08-23T22:29:13Z</time>
      </trkpt>
      <trkpt lat="45.72972" lon="4.82373">
        <ele>168</ele>
        <time>2021-08-23T22:29:59Z</time>
      </trkpt>
      <trkpt lat="45.72972" lon="4.82416">
        <ele>169</ele>
        <time>2021-08-23T22:30:14Z</time>
      </trkpt>
      <trkpt lat="45.72995" lon="4.82418">
        <ele>170</ele>
        <time>2021-08-23T22:30:26Z</time>
      </trkpt>
      <trkpt lat="45.72995" lon="4.82458">
        <ele>172</ele>
        <time>2021-08-23T22:30:40Z</time>
      </trkpt>
      <trkpt lat="45.73018" lon="4.82466">
        <ele>172</ele>
        <time>2021-08-23T22:30:51Z</time>
      </trkpt>
    </trkseg>
  </trk>
</gpx>